[[{"header":{"parameterUnit":"m.s-1","parameterCategory":1,"la1":31.0,"la2":29.5877,"lo1":-88.7671,"lo2":-86.6584,"dy":0.0162,"dx":0.0185,"nx":115,"ny":88,"refTime":"2023-07-13T06:00:00:Z","depth":0,"parameterNumber":2,"parameterNumberName":"U-component_of_WINDS"},"data":[0.0,0.0,0.0,0.0,0.0,0.0,0.0,0.0,0.0,0.0,0.0,0.0,0.0,0.0,0.0,0.0,0.0,0.0,0.0,0.0,0.0,0.0,0.0,0.0,0.0,0.0,0.0,0.0,0.0,0.0,0.0,0.0,0.0,0.0,0.0,0.0,0.0,0.0,0.0,0.0,0.0,0.0,0.0,0.0,0.0,0.0,0.0,0.0,0.0,0.0,0.0,0.0,0.0,0.0,0.0,0.0,0.0,0.0,0.0,0.0,0.0,0.0,0.0,0.0,0.0,0.0,0.0,0.0,0.0,0.0,0.0,0.0,0.0,0.0,0.0,0.0,0.0,0.0,0.0,0.0,0.0,0.0,0.0,0.0,0.0,0.0,0.0,0.0,0.0,0.0,0.0,0.0,0.0,0.0,0.0,0.0,0.0,0.0,0.0,0.0,0.0,0.0,0.0,0.0,0.0,0.0,0.0,0.0,0.0,0.0,0.0,0.0,0.0,0.0,0.0,0.0,0.0,0.0,0.0,0.0,0.0,0.0,0.0,0.0,0.0,0.0,0.0,0.0,0.0,0.0,0.0,0.0,0.0,0.0,0.0,0.0,0.0,0.0,0.0,0.0,0.0,0.0,0.0,0.0,0.0,0.0,0.0,0.0,0.0,0.0,0.0,0.0,0.0,0.0,0.0,0.0,0.0,0.0,0.0,0.0,0.0,0.0,0.0,0.0,0.0,0.0,0.0,0.0,0.0,0.0,0.0,0.0,0.0,0.0,0.0,0.0,0.0,0.0,0.0,0.0,0.0,0.0,0.0,0.0,0.0,0.0,0.0,0.0,0.0,0.0,0.0,0.0,0.0,0.0,0.0,0.0,0.0,0.0,0.0,0.0,0.0,0.0,0.0,0.0,0.0,0.0,0.0,0.0,0.0,0.0,0.0,0.0,0.0,0.0,0.0,0.0,0.0,0.0,0.0,0.0,0.0,0.0,0.0,0.0,0.0,0.0,0.0,0.0,0.0,0.0,0.0,0.0,0.0,0.0,0.0,0.0,0.0,0.0,0.0,0.0,0.0,0.0,0.0,0.0,0.0,0.0,0.0,0.0,0.0,0.0,0.0,0.0,0.0,0.0,0.0,0.0,0.0,0.0,0.0,0.0,0.0,0.0,0.0,0.0,0.0,0.0,0.0,0.0,0.0,0.0,0.0,0.0,0.0,0.0,0.0,0.0,0.0,0.0,0.0,0.0,0.0,0.0,0.0,0.0,0.0,0.0,0.0,0.0,0.0,0.0,0.0,0.0,0.0,0.0,0.0,0.0,0.0,0.0,0.0,0.0,0.0,0.0,0.0,0.0,0.0,0.0,0.0,0.0,0.0,0.0,0.0,0.0,0.0,0.0,0.0,0.0,0.0,0.0,0.0,0.0,0.0,0.0,0.0,0.0,0.0,0.0,0.0,0.0,0.0,0.0,0.0,0.0,0.0,0.0,0.0,0.0,0.0,0.0,0.0,0.0,0.0,0.0,0.0,0.0,0.0,0.0,0.0,0.0,0.0,0.0,0.0,0.0,0.0,0.0,0.0,0.0,0.0,0.0,0.0,0.0,0.0,0.0,0.0,0.0,0.0,0.0,0.0,0.0,0.0,0.0,0.0,0.0,0.0,0.0,0.0,0.0,0.0,0.0,0.0,0.0,0.0,0.0,0.0,0.0,0.0,0.0,0.0,0.0,0.0,0.0,0.0,0.0,0.0,0.0,0.0,0.0,0.0,0.0,0.0,0.0,0.0,0.0,0.0,0.0,0.0,0.0,0.0,0.0,0.0,0.0,0.0,0.0,0.0,0.0,0.0,0.0,0.0,0.0,0.0,0.0,0.0,0.0,0.0,0.0,0.0,0.0,0.0,0.0,0.0,0.0,0.0,0.0,0.0,0.0,0.0,0.0,0.0,0.0,0.0,0.0,0.0,0.0,0.0,0.0,0.0,0.0,0.0,0.0,0.0,0.0,0.0,0.0,0.0,0.0,0.0,0.0,0.0,0.0,0.0,0.0,0.0,0.0,0.0,0.0,0.0,0.0,0.0,0.0,0.0,0.0,0.0,0.0,0.0,0.0,0.0,0.0,0.0,0.0,0.0,0.0,0.0,0.0,0.0,0.0,0.0,0.0,0.0,0.0,0.0,0.0,0.0,0.0,0.0,0.0,0.0,0.0,0.0,0.0,0.0,0.0,0.0,0.0,0.0,0.0,0.0,0.0,0.0,0.0,0.0,0.0,0.0,0.0,0.0,0.0,0.0,0.0,0.0,0.0,0.0,0.0,0.0,0.0,0.0,0.0,0.0,0.0,0.0,0.0,0.0,0.0,0.0,0.0,0.0,0.0,0.0,0.0,0.0,0.0,0.0,0.0,0.0,0.0,0.0,0.0,0.0,0.0,0.0,0.0,0.0,0.0,0.0,0.0,0.0,0.0,0.0,0.0,0.0,0.0,0.0,0.0,0.0,0.0,0.0,0.0,0.0,0.0,0.0,0.0,0.0,0.0,0.0,0.0,0.0,0.0,0.0,0.0,0.0,0.0,0.0,0.0,0.0,0.0,0.0,0.0,0.0,0.0,0.0,0.0,0.0,0.0,0.0,0.0,0.0,0.0,0.0,0.0,0.0,0.0,0.0,0.0,0.0,0.0,0.0,0.0,0.0,0.0,0.0,0.0,0.0,0.0,0.0,0.0,0.0,0.0,0.0,0.0,0.0,0.0,0.0,0.0,0.0,0.0,0.0,0.0,0.0,0.0,0.0,0.0,0.0,0.0,0.0,0.0,0.0,0.0,0.0,0.0,0.0,0.0,0.0,0.0,0.0,0.0,0.0,0.0,0.0,0.0,0.0,0.0,0.0,0.0,0.0,0.0,0.0,0.0,0.0,0.0,0.0,0.0,0.0,0.0,0.0,0.0,0.0,0.0,0.0,0.0,0.0,0.0,0.0,0.0,0.0,0.0,0.0,0.0,0.0,0.0,0.0,0.0,0.0,0.0,0.0,0.0,0.0,0.0,0.0,0.0,0.0,0.0,0.0,0.0,0.0,0.0,0.0,0.0,0.0,0.0,0.0,0.0,0.0,0.0,0.0,0.0,0.0,0.0,0.0,0.0,0.0,0.0,0.0,0.0,0.0,0.0,0.0,0.0,0.0,0.0,0.0,0.0,0.0,0.0,0.0,0.0,0.0,0.0,0.0,0.0,0.0,0.0,0.0,0.0,0.0,0.0,0.0,0.0,0.0,0.0,0.0,0.0,0.0,0.0,0.0,0.0,0.0,0.0,0.0,0.0,0.0,0.0,0.0,0.0,0.0,0.0,0.0,0.0,0.0,0.0,0.0,0.0,0.0,0.0,0.0,0.0,0.0,0.0,0.0,0.0,0.0,0.0,0.0,0.0,0.0,0.0,0.0,0.0,0.0,0.0,0.0,0.0,0.0,0.0,0.0,0.0,0.0,0.0,0.0,0.0,0.0,0.0,0.0,0.0,0.0,0.0,0.0,0.0,0.0,0.0,0.0,0.0,0.0,0.0,0.0,0.0,0.0,0.0,0.0,0.0,0.0,0.0,0.0,0.0,0.0,0.0,0.0,0.0,0.0,0.0,0.0,0.0,0.0,0.0,0.0,0.0,0.0,0.0,0.0,0.0,0.0,0.0,0.0,0.0,0.0,0.0,0.0,0.0,0.0,0.0,0.0,0.0,0.0,0.0,0.0,0.0,0.0,0.0,0.0,0.0,0.0,0.0,0.0,0.0,0.0,0.0,0.0,0.0,0.0,0.0,0.0,0.0,0.0,0.0,0.0,0.0,0.0,0.0,0.0,0.0,0.0,0.0,0.0,0.0,0.0,0.0,0.0,0.0,0.0,0.0,0.0,0.0,0.0,0.0,0.0,0.0,0.0,0.0,0.0,0.0,0.0,0.0,0.0,0.0,0.0,0.0,0.0,0.0,0.0,0.0,0.0,0.0,0.0,0.0,0.0,0.0,0.0,0.0,0.0,0.0,0.0,0.0,0.0,0.0,0.0,0.0,0.0,0.0,0.0,0.0,0.0,0.0,0.0,0.0,0.0,0.0,0.0,0.0,0.0,0.0,0.0,0.0,0.0,0.0,0.0,0.0,0.0,0.0,0.0,0.0,0.0,0.0,0.0,0.0,0.0,0.0,0.0,0.0,0.0,0.0,0.0,0.0,0.0,0.0,0.0,0.0,0.0,0.0,0.0,0.0,0.0,0.0,0.0,0.0,0.0,0.0,0.0,0.0,0.0,0.0,-3.283,0.0,0.0,0.0,0.0,0.0,0.0,0.0,0.0,0.0,0.0,0.0,0.0,0.0,0.0,0.0,0.0,0.0,0.0,0.0,0.0,0.0,0.0,0.0,0.0,0.0,0.0,0.0,0.0,0.0,0.0,0.0,0.0,0.0,0.0,0.0,0.0,0.0,0.0,0.0,0.0,0.0,0.0,0.0,0.0,0.0,0.0,0.0,0.0,0.0,0.0,0.0,0.0,0.0,0.0,0.0,0.0,0.0,0.0,0.0,0.0,0.0,0.0,0.0,0.0,0.0,0.0,0.0,0.0,0.0,0.0,0.0,0.0,0.0,0.0,0.0,0.0,0.0,0.0,0.0,0.0,0.0,0.0,0.0,0.0,0.0,0.0,0.0,0.0,0.0,0.0,0.0,0.0,0.0,0.0,0.0,0.0,0.0,0.0,0.0,0.0,0.0,0.0,0.0,0.0,0.0,0.0,0.0,0.0,0.0,0.0,-3.2176,-3.1619,-3.5132,-3.6146,-3.4255,0.0,0.0,0.0,0.0,0.0,0.0,0.0,0.0,0.0,0.0,0.0,0.0,0.0,0.0,0.0,0.0,0.0,0.0,0.0,0.0,0.0,0.0,0.0,0.0,0.0,0.0,0.0,0.0,0.0,0.0,0.0,0.0,0.0,0.0,0.0,0.0,0.0,0.0,0.0,0.0,0.0,0.0,0.0,0.0,0.0,0.0,0.0,0.0,0.0,0.0,0.0,0.0,0.0,0.0,0.0,0.0,0.0,0.0,0.0,0.0,0.0,0.0,0.0,0.0,0.0,0.0,0.0,0.0,0.0,0.0,0.0,0.0,0.0,0.0,0.0,0.0,0.0,0.0,0.0,0.0,0.0,0.0,0.0,0.0,0.0,0.0,0.0,0.0,0.0,0.0,0.0,0.0,0.0,0.0,0.0,0.0,0.0,0.0,0.0,0.0,0.0,0.0,0.0,0.0,0.0,0.0,0.0,0.0,0.0,0.0,0.0,0.0,-3.6288,-3.7487,-3.6262,0.0,0.0,0.0,0.0,0.0,0.0,0.0,0.0,0.0,0.0,0.0,0.0,0.0,0.0,0.0,0.0,0.0,0.0,0.0,0.0,0.0,0.0,0.0,0.0,0.0,0.0,0.0,0.0,0.0,0.0,0.0,0.0,0.0,0.0,0.0,0.0,0.0,0.0,0.0,0.0,0.0,0.0,0.0,0.0,0.0,0.0,0.0,0.0,0.0,0.0,0.0,0.0,0.0,0.0,0.0,0.0,0.0,0.0,0.0,0.0,0.0,0.0,0.0,0.0,0.0,0.0,0.0,0.0,0.0,0.0,0.0,0.0,0.0,0.0,0.0,0.0,0.0,0.0,0.0,0.0,0.0,0.0,0.0,0.0,0.0,0.0,0.0,0.0,0.0,0.0,0.0,0.0,0.0,0.0,0.0,0.0,0.0,0.0,0.0,0.0,0.0,0.0,0.0,0.0,0.0,0.0,0.0,0.0,0.0,0.0,-3.2043,-3.6158,-3.8415,0.0,-3.8302,0.0,0.0,0.0,0.0,0.0,0.0,0.0,0.0,0.0,0.0,0.0,0.0,0.0,0.0,0.0,0.0,0.0,0.0,0.0,0.0,0.0,0.0,0.0,0.0,0.0,0.0,0.0,0.0,0.0,0.0,0.0,0.0,0.0,0.0,0.0,0.0,0.0,0.0,0.0,0.0,0.0,0.0,0.0,0.0,0.0,0.0,0.0,0.0,0.0,0.0,0.0,0.0,0.0,0.0,0.0,0.0,0.0,0.0,0.0,0.0,0.0,0.0,0.0,0.0,0.0,0.0,0.0,0.0,0.0,0.0,0.0,0.0,0.0,0.0,0.0,0.0,0.0,0.0,0.0,0.0,0.0,0.0,0.0,0.0,0.0,0.0,0.0,0.0,0.0,0.0,0.0,0.0,0.0,0.0,0.0,0.0,0.0,0.0,0.0,0.0,0.0,0.0,0.0,0.0,0.0,0.0,0.0,0.0,0.0,0.0,-3.244,-3.6294,-3.7947,-3.8181,0.0,0.0,0.0,0.0,0.0,0.0,0.0,0.0,0.0,0.0,0.0,0.0,0.0,0.0,0.0,0.0,0.0,0.0,0.0,0.0,0.0,0.0,0.0,0.0,0.0,0.0,0.0,0.0,0.0,0.0,0.0,0.0,0.0,0.0,0.0,0.0,0.0,0.0,0.0,0.0,0.0,0.0,0.0,0.0,0.0,0.0,0.0,0.0,0.0,0.0,0.0,0.0,0.0,0.0,0.0,0.0,0.0,0.0,0.0,0.0,0.0,0.0,0.0,0.0,0.0,0.0,0.0,0.0,0.0,0.0,0.0,0.0,0.0,0.0,0.0,0.0,0.0,0.0,0.0,0.0,0.0,0.0,0.0,0.0,0.0,0.0,0.0,0.0,0.0,0.0,0.0,0.0,0.0,0.0,0.0,0.0,0.0,0.0,0.0,0.0,0.0,0.0,0.0,0.0,0.0,0.0,0.0,0.0,0.0,0.0,-3.0352,-3.3636,-3.7431,-3.7636,-3.7093,-3.6021,0.0,0.0,0.0,0.0,0.0,0.0,0.0,0.0,0.0,0.0,0.0,0.0,0.0,0.0,0.0,0.0,0.0,0.0,0.0,0.0,0.0,0.0,0.0,0.0,0.0,0.0,0.0,0.0,0.0,0.0,0.0,0.0,0.0,0.0,0.0,0.0,0.0,0.0,0.0,0.0,0.0,0.0,0.0,0.0,0.0,0.0,0.0,0.0,0.0,0.0,0.0,0.0,0.0,0.0,0.0,0.0,0.0,0.0,0.0,0.0,0.0,0.0,0.0,0.0,0.0,0.0,0.0,0.0,0.0,0.0,0.0,0.0,0.0,0.0,0.0,0.0,0.0,0.0,0.0,0.0,0.0,0.0,0.0,0.0,0.0,0.0,0.0,0.0,0.0,0.0,0.0,0.0,0.0,0.0,0.0,0.0,0.0,0.0,0.0,0.0,0.0,0.0,0.0,0.0,0.0,0.0,0.0,0.0,-3.3787,-3.3548,-3.5837,-4.1089,-3.8151,-3.6472,0.0,0.0,0.0,0.0,0.0,0.0,0.0,0.0,0.0,0.0,0.0,0.0,0.0,0.0,0.0,0.0,0.0,0.0,0.0,0.0,0.0,0.0,0.0,0.0,0.0,0.0,0.0,0.0,0.0,0.0,0.0,0.0,0.0,0.0,0.0,0.0,0.0,0.0,0.0,0.0,0.0,0.0,0.0,0.0,0.0,0.0,0.0,0.0,0.0,0.0,0.0,0.0,0.0,0.0,0.0,0.0,0.0,0.0,0.0,0.0,0.0,0.0,0.0,0.0,0.0,0.0,0.0,0.0,0.0,0.0,0.0,0.0,0.0,0.0,0.0,0.0,0.0,0.0,0.0,0.0,0.0,0.0,0.0,0.0,0.0,0.0,0.0,0.0,0.0,0.0,0.0,0.0,0.0,0.0,0.0,0.0,0.0,0.0,0.0,0.0,0.0,0.0,0.0,0.0,0.0,0.0,0.0,0.0,0.0,-2.8242,-3.2433,-3.6729,-4.0989,-3.7809,-3.6474,0.0,0.0,0.0,0.0,0.0,0.0,0.0,0.0,0.0,0.0,0.0,0.0,0.0,0.0,0.0,0.0,0.0,0.0,0.0,0.0,0.0,0.0,0.0,0.0,0.0,0.0,0.0,0.0,0.0,0.0,0.0,0.0,0.0,0.0,0.0,0.0,0.0,0.0,0.0,0.0,0.0,0.0,0.0,0.0,0.0,0.0,0.0,0.0,0.0,0.0,0.0,0.0,0.0,0.0,0.0,0.0,0.0,0.0,0.0,0.0,0.0,0.0,0.0,0.0,0.0,0.0,0.0,0.0,0.0,0.0,0.0,0.0,0.0,0.0,0.0,0.0,0.0,0.0,0.0,0.0,0.0,0.0,0.0,0.0,0.0,0.0,0.0,0.0,0.0,0.0,0.0,0.0,0.0,0.0,0.0,0.0,0.0,0.0,0.0,0.0,0.0,0.0,0.0,0.0,0.0,0.0,0.0,0.0,0.0,-2.8153,0.0,-3.8657,-4.0233,-3.7629,-3.6019,0.0,0.0,0.0,0.0,0.0,0.0,0.0,0.0,0.0,0.0,0.0,0.0,0.0,0.0,0.0,0.0,0.0,0.0,0.0,0.0,0.0,0.0,0.0,0.0,0.0,0.0,0.0,0.0,0.0,0.0,0.0,0.0,0.0,0.0,0.0,0.0,0.0,0.0,0.0,0.0,0.0,0.0,0.0,0.0,0.0,0.0,0.0,0.0,0.0,0.0,0.0,0.0,0.0,0.0,0.0,0.0,0.0,0.0,0.0,0.0,0.0,0.0,0.0,0.0,0.0,0.0,0.0,0.0,0.0,0.0,0.0,0.0,0.0,0.0,0.0,0.0,0.0,0.0,0.0,0.0,0.0,0.0,0.0,0.0,0.0,0.0,0.0,0.0,0.0,0.0,0.0,0.0,0.0,0.0,0.0,0.0,0.0,0.0,0.0,0.0,0.0,0.0,0.0,0.0,0.0,0.0,0.0,0.0,-2.6587,-3.4889,-3.9932,-4.1348,-3.9346,-3.7721,-3.5038,0.0,0.0,0.0,0.0,0.0,0.0,0.0,0.0,0.0,0.0,0.0,0.0,0.0,0.0,0.0,0.0,0.0,0.0,0.0,0.0,0.0,0.0,0.0,0.0,0.0,0.0,0.0,0.0,0.0,0.0,0.0,0.0,0.0,0.0,0.0,0.0,0.0,0.0,0.0,0.0,0.0,0.0,0.0,0.0,0.0,0.0,0.0,0.0,0.0,0.0,0.0,0.0,0.0,0.0,0.0,0.0,0.0,0.0,0.0,0.0,0.0,0.0,0.0,0.0,0.0,0.0,0.0,0.0,0.0,0.0,0.0,0.0,0.0,0.0,0.0,0.0,0.0,0.0,0.0,0.0,0.0,0.0,0.0,0.0,0.0,0.0,0.0,0.0,0.0,0.0,0.0,0.0,0.0,0.0,0.0,0.0,0.0,0.0,0.0,0.0,0.0,0.0,0.0,0.0,0.0,0.0,0.0,0.0,0.0,-3.1531,-3.5672,-3.9554,-4.2721,-3.8492,-3.6787,0.0,0.0,0.0,0.0,0.0,0.0,0.0,0.0,0.0,0.0,0.0,0.0,0.0,0.0,0.0,0.0,0.0,0.0,0.0,0.0,0.0,0.0,0.0,0.0,0.0,0.0,0.0,0.0,0.0,0.0,0.0,0.0,0.0,0.0,0.0,0.0,0.0,0.0,0.0,0.0,0.0,0.0,0.0,0.0,0.0,0.0,0.0,0.0,0.0,0.0,0.0,0.0,0.0,0.0,0.0,0.0,0.0,0.0,0.0,0.0,0.0,0.0,0.0,0.0,0.0,0.0,0.0,0.0,0.0,0.0,0.0,0.0,0.0,0.0,0.0,0.0,0.0,0.0,0.0,0.0,0.0,0.0,0.0,0.0,0.0,0.0,0.0,0.0,0.0,0.0,0.0,0.0,0.0,0.0,0.0,0.0,0.0,0.0,0.0,0.0,0.0,0.0,0.0,0.0,0.0,0.0,0.0,0.0,0.0,-3.2238,-3.64,-4.0513,-4.4281,-3.9705,-3.7989,-3.9554,0.0,0.0,0.0,0.0,0.0,0.0,0.0,0.0,0.0,0.0,0.0,0.0,0.0,0.0,0.0,0.0,0.0,0.0,0.0,0.0,0.0,0.0,0.0,0.0,0.0,0.0,0.0,0.0,0.0,0.0,0.0,0.0,0.0,0.0,0.0,0.0,0.0,0.0,0.0,0.0,0.0,0.0,0.0,0.0,0.0,0.0,0.0,0.0,0.0,0.0,0.0,0.0,0.0,0.0,0.0,0.0,0.0,0.0,0.0,0.0,0.0,0.0,0.0,0.0,0.0,0.0,0.0,0.0,0.0,0.0,0.0,0.0,0.0,0.0,0.0,0.0,0.0,0.0,0.0,0.0,0.0,0.0,0.0,0.0,0.0,0.0,0.0,0.0,0.0,0.0,0.0,0.0,0.0,0.0,0.0,0.0,0.0,0.0,0.0,0.0,0.0,0.0,0.0,0.0,0.0,0.0,0.0,0.0,-3.6039,-4.1226,-4.3926,-4.3895,-4.1379,-3.8963,0.0,0.0,0.0,0.0,0.0,0.0,0.0,0.0,0.0,0.0,0.0,0.0,0.0,0.0,0.0,0.0,0.0,0.0,0.0,0.0,0.0,0.0,0.0,0.0,0.0,0.0,0.0,0.0,0.0,0.0,0.0,0.0,0.0,0.0,0.0,0.0,0.0,0.0,0.0,0.0,0.0,0.0,0.0,0.0,0.0,0.0,0.0,0.0,0.0,0.0,0.0,0.0,0.0,0.0,0.0,0.0,0.0,0.0,0.0,0.0,0.0,0.0,0.0,0.0,0.0,0.0,0.0,0.0,0.0,0.0,0.0,0.0,0.0,0.0,0.0,0.0,0.0,0.0,0.0,0.0,0.0,0.0,0.0,0.0,0.0,0.0,0.0,0.0,0.0,0.0,0.0,0.0,0.0,0.0,0.0,0.0,0.0,0.0,0.0,0.0,0.0,0.0,0.0,0.0,0.0,0.0,0.0,0.0,0.0,-3.8375,-4.2545,-4.5362,-4.6604,-4.3535,-4.141,0.0,0.0,0.0,0.0,0.0,0.0,0.0,0.0,0.0,0.0,0.0,0.0,0.0,0.0,0.0,0.0,0.0,0.0,0.0,0.0,0.0,0.0,0.0,0.0,0.0,0.0,0.0,0.0,0.0,0.0,0.0,0.0,0.0,0.0,0.0,0.0,0.0,0.0,0.0,0.0,0.0,0.0,0.0,0.0,0.0,0.0,0.0,0.0,0.0,0.0,0.0,0.0,0.0,0.0,0.0,0.0,0.0,0.0,0.0,0.0,0.0,0.0,0.0,0.0,0.0,0.0,0.0,0.0,0.0,0.0,0.0,0.0,0.0,0.0,0.0,0.0,0.0,0.0,0.0,0.0,0.0,0.0,0.0,0.0,0.0,0.0,0.0,0.0,0.0,0.0,0.0,0.0,0.0,0.0,0.0,0.0,0.0,0.0,0.0,0.0,0.0,0.0,0.0,0.0,0.0,0.0,0.0,0.0,-3.6245,-4.0054,-4.4068,-4.6828,-4.8318,-4.5615,-4.3245,0.0,0.0,0.0,0.0,0.0,0.0,0.0,0.0,0.0,0.0,0.0,0.0,0.0,0.0,0.0,0.0,0.0,0.0,0.0,0.0,0.0,0.0,0.0,0.0,0.0,0.0,0.0,0.0,0.0,0.0,0.0,0.0,0.0,0.0,0.0,0.0,0.0,0.0,0.0,0.0,0.0,0.0,0.0,0.0,0.0,0.0,0.0,0.0,0.0,0.0,0.0,0.0,0.0,0.0,0.0,0.0,0.0,0.0,0.0,0.0,0.0,0.0,0.0,0.0,0.0,0.0,0.0,0.0,0.0,0.0,0.0,0.0,0.0,0.0,0.0,0.0,0.0,0.0,0.0,0.0,0.0,0.0,0.0,0.0,0.0,0.0,0.0,0.0,0.0,0.0,0.0,0.0,0.0,0.0,0.0,0.0,0.0,0.0,0.0,0.0,0.0,0.0,0.0,0.0,0.0,0.0,0.0,0.0,-3.7592,-4.1128,-4.5227,-4.7849,-4.8793,-4.7135,-4.4489,0.0,0.0,0.0,0.0,0.0,0.0,0.0,0.0,0.0,0.0,0.0,0.0,0.0,0.0,0.0,0.0,0.0,0.0,0.0,0.0,0.0,0.0,0.0,0.0,0.0,0.0,0.0,0.0,0.0,0.0,0.0,0.0,0.0,0.0,0.0,0.0,0.0,0.0,0.0,0.0,0.0,0.0,0.0,0.0,0.0,0.0,0.0,0.0,0.0,0.0,0.0,0.0,0.0,0.0,0.0,0.0,0.0,0.0,0.0,0.0,0.0,0.0,0.0,0.0,0.0,0.0,0.0,0.0,0.0,0.0,0.0,0.0,0.0,0.0,0.0,0.0,0.0,0.0,0.0,0.0,0.0,0.0,0.0,0.0,0.0,0.0,0.0,0.0,0.0,0.0,0.0,0.0,0.0,0.0,0.0,0.0,0.0,0.0,0.0,0.0,0.0,0.0,0.0,0.0,0.0,0.0,0.0,0.0,-3.6704,-4.0291,-4.367,-4.6323,-4.8144,-4.6641,-4.433,0.0,0.0,0.0,0.0,0.0,0.0,0.0,0.0,0.0,0.0,0.0,0.0,0.0,0.0,0.0,0.0,0.0,0.0,0.0,0.0,0.0,0.0,0.0,0.0,0.0,0.0,0.0,0.0,0.0,0.0,0.0,0.0,0.0,0.0,0.0,0.0,0.0,0.0,0.0,0.0,0.0,0.0,0.0,0.0,0.0,0.0,0.0,0.0,-3.6754,0.0,0.0,0.0,0.0,0.0,0.0,0.0,0.0,0.0,0.0,0.0,0.0,0.0,0.0,0.0,0.0,0.0,0.0,0.0,0.0,0.0,0.0,0.0,0.0,0.0,0.0,0.0,0.0,0.0,0.0,0.0,0.0,0.0,0.0,0.0,0.0,0.0,0.0,0.0,0.0,0.0,0.0,0.0,0.0,0.0,0.0,0.0,0.0,0.0,0.0,0.0,0.0,0.0,0.0,0.0,0.0,0.0,0.0,0.0,-3.6687,-4.0501,-4.2814,-4.5109,-4.7305,-4.7003,-4.5001,0.0,0.0,0.0,0.0,0.0,0.0,0.0,0.0,0.0,0.0,0.0,0.0,0.0,0.0,0.0,0.0,0.0,0.0,0.0,0.0,0.0,0.0,0.0,0.0,0.0,0.0,0.0,0.0,0.0,0.0,0.0,0.0,0.0,0.0,0.0,0.0,0.0,0.0,0.0,0.0,0.0,0.0,0.0,0.0,0.0,0.0,0.0,0.0,0.0,0.0,0.0,0.0,0.0,0.0,0.0,0.0,0.0,0.0,0.0,0.0,0.0,0.0,0.0,0.0,0.0,0.0,0.0,0.0,0.0,0.0,0.0,0.0,0.0,0.0,0.0,0.0,0.0,0.0,0.0,0.0,0.0,0.0,0.0,0.0,0.0,0.0,0.0,0.0,0.0,0.0,0.0,0.0,0.0,0.0,0.0,0.0,0.0,0.0,0.0,0.0,0.0,0.0,0.0,0.0,0.0,0.0,0.0,-3.3982,-3.6778,-4.0593,-4.2122,-4.399,-4.6205,-4.7258,-4.5579,-4.1205,0.0,0.0,0.0,0.0,0.0,0.0,0.0,0.0,0.0,0.0,0.0,0.0,0.0,0.0,0.0,0.0,0.0,0.0,0.0,0.0,0.0,0.0,0.0,0.0,0.0,0.0,0.0,0.0,0.0,0.0,0.0,0.0,0.0,0.0,0.0,0.0,0.0,0.0,-3.5188,-3.7681,0.0,0.0,0.0,0.0,0.0,0.0,0.0,0.0,-3.9704,0.0,0.0,0.0,0.0,0.0,0.0,0.0,0.0,0.0,0.0,0.0,0.0,0.0,0.0,0.0,0.0,0.0,0.0,0.0,0.0,0.0,0.0,0.0,0.0,0.0,0.0,0.0,0.0,0.0,0.0,0.0,0.0,0.0,0.0,0.0,0.0,0.0,0.0,0.0,0.0,0.0,0.0,0.0,0.0,0.0,0.0,0.0,0.0,0.0,0.0,0.0,0.0,0.0,0.0,0.0,0.0,-3.3619,-3.3888,-3.577,-3.9261,-4.0982,-4.2322,-4.3403,-4.5807,-4.4787,-4.0238,0.0,0.0,0.0,0.0,0.0,0.0,0.0,0.0,0.0,0.0,0.0,0.0,0.0,0.0,0.0,0.0,0.0,0.0,0.0,0.0,0.0,0.0,0.0,0.0,0.0,0.0,0.0,0.0,0.0,0.0,0.0,0.0,0.0,0.0,0.0,0.0,0.0,0.0,0.0,-4.2328,-4.3045,0.0,0.0,0.0,0.0,0.0,0.0,0.0,0.0,-4.0036,0.0,0.0,0.0,0.0,0.0,0.0,0.0,0.0,0.0,0.0,0.0,0.0,0.0,0.0,0.0,0.0,0.0,0.0,0.0,0.0,0.0,0.0,0.0,0.0,0.0,0.0,0.0,0.0,0.0,0.0,0.0,0.0,0.0,0.0,0.0,0.0,0.0,0.0,0.0,0.0,0.0,0.0,0.0,0.0,0.0,0.0,0.0,0.0,0.0,0.0,0.0,0.0,0.0,0.0,0.0,-3.2666,-3.398,-3.6052,-3.8918,-4.0971,-4.2379,-4.3205,-4.4585,-4.3533,0.0,0.0,0.0,0.0,0.0,0.0,0.0,0.0,0.0,0.0,0.0,0.0,0.0,0.0,0.0,0.0,0.0,0.0,0.0,0.0,0.0,0.0,0.0,0.0,0.0,0.0,0.0,0.0,0.0,0.0,0.0,0.0,0.0,0.0,0.0,0.0,0.0,0.0,0.0,0.0,-4.4115,-4.5354,-4.7681,0.0,0.0,0.0,0.0,0.0,0.0,-4.1186,-4.0282,0.0,0.0,0.0,0.0,0.0,0.0,0.0,0.0,0.0,0.0,0.0,0.0,0.0,0.0,0.0,0.0,0.0,0.0,0.0,0.0,0.0,0.0,0.0,0.0,0.0,0.0,0.0,0.0,0.0,0.0,0.0,0.0,0.0,0.0,0.0,0.0,0.0,0.0,0.0,0.0,0.0,0.0,0.0,0.0,0.0,0.0,0.0,0.0,0.0,0.0,0.0,0.0,0.0,0.0,0.0,-3.1573,-3.4024,-3.6443,-3.8766,-4.0817,-4.2283,-4.301,-4.3079,-4.185,0.0,0.0,0.0,0.0,0.0,0.0,0.0,0.0,0.0,0.0,0.0,0.0,0.0,0.0,0.0,0.0,0.0,0.0,0.0,0.0,0.0,0.0,0.0,0.0,0.0,0.0,0.0,0.0,0.0,0.0,0.0,0.0,0.0,0.0,0.0,0.0,0.0,0.0,0.0,0.0,0.0,-4.7411,-4.9289,-4.7404,0.0,0.0,0.0,0.0,-4.2773,-4.2719,0.0,0.0,0.0,0.0,0.0,0.0,0.0,0.0,0.0,0.0,0.0,0.0,0.0,0.0,0.0,0.0,0.0,0.0,0.0,0.0,0.0,0.0,0.0,0.0,0.0,0.0,0.0,0.0,0.0,0.0,0.0,0.0,0.0,0.0,0.0,0.0,0.0,0.0,0.0,0.0,0.0,0.0,0.0,0.0,0.0,0.0,0.0,0.0,0.0,0.0,0.0,0.0,0.0,0.0,0.0,0.0,-3.1233,-3.3718,-3.5978,-3.8098,-3.9826,-4.0755,-4.0893,-4.0893,-3.9838,0.0,0.0,0.0,0.0,0.0,0.0,0.0,0.0,0.0,0.0,0.0,0.0,0.0,0.0,0.0,0.0,0.0,0.0,0.0,0.0,0.0,0.0,0.0,0.0,0.0,0.0,0.0,0.0,0.0,0.0,0.0,0.0,0.0,0.0,0.0,0.0,0.0,0.0,0.0,0.0,0.0,-4.9442,-4.8998,-4.7273,-4.5663,0.0,0.0,-4.635,-4.7692,-4.9375,0.0,0.0,0.0,0.0,0.0,0.0,0.0,0.0,0.0,0.0,0.0,0.0,0.0,0.0,0.0,0.0,0.0,0.0,0.0,0.0,0.0,0.0,0.0,0.0,0.0,0.0,0.0,0.0,0.0,0.0,0.0,0.0,0.0,0.0,0.0,0.0,0.0,0.0,0.0,0.0,0.0,0.0,0.0,0.0,0.0,0.0,0.0,0.0,0.0,0.0,0.0,0.0,0.0,0.0,0.0,-2.8899,-3.1166,-3.3811,-3.6109,-3.8007,-3.994,-4.0984,-4.1124,-3.9932,-3.8499,0.0,0.0,0.0,0.0,0.0,0.0,0.0,0.0,0.0,0.0,0.0,0.0,0.0,0.0,0.0,0.0,0.0,0.0,0.0,0.0,0.0,0.0,0.0,0.0,0.0,0.0,0.0,0.0,0.0,0.0,0.0,0.0,0.0,0.0,0.0,0.0,0.0,0.0,0.0,0.0,0.0,0.0,-4.9418,-4.9261,0.0,0.0,0.0,-4.7107,-4.7102,0.0,0.0,0.0,0.0,0.0,0.0,0.0,0.0,0.0,0.0,0.0,0.0,0.0,0.0,0.0,0.0,0.0,0.0,0.0,0.0,0.0,0.0,0.0,0.0,0.0,0.0,0.0,0.0,0.0,0.0,0.0,0.0,0.0,0.0,0.0,0.0,0.0,0.0,0.0,0.0,0.0,0.0,0.0,0.0,0.0,0.0,0.0,0.0,0.0,0.0,0.0,0.0,0.0,0.0,0.0,0.0,0.0,-3.1077,-3.4014,-3.6315,-3.7895,-3.9914,-4.0949,-4.0907,-3.8994,0.0,0.0,0.0,0.0,0.0,0.0,0.0,0.0,0.0,0.0,0.0,0.0,0.0,0.0,0.0,0.0,0.0,0.0,0.0,0.0,0.0,0.0,0.0,0.0,0.0,0.0,0.0,-2.0653,0.0,0.0,0.0,0.0,0.0,0.0,0.0,0.0,0.0,0.0,0.0,0.0,0.0,0.0,-4.9436,-4.9499,-5.0661,-5.1598,0.0,0.0,-4.8495,-4.822,-4.993,-4.9159,0.0,0.0,0.0,0.0,0.0,0.0,0.0,0.0,0.0,0.0,0.0,0.0,0.0,0.0,0.0,0.0,0.0,0.0,0.0,0.0,0.0,0.0,0.0,0.0,0.0,0.0,0.0,0.0,0.0,0.0,0.0,0.0,0.0,0.0,0.0,0.0,0.0,0.0,0.0,0.0,0.0,0.0,0.0,0.0,0.0,0.0,0.0,0.0,0.0,0.0,0.0,0.0,0.0,0.0,0.0,-3.0934,-3.3945,-3.6158,-3.7505,-3.9223,-3.9838,-3.9184,-3.7764,-3.5777,0.0,0.0,0.0,0.0,0.0,0.0,0.0,0.0,0.0,0.0,0.0,0.0,0.0,0.0,0.0,0.0,0.0,0.0,0.0,0.0,0.0,0.0,0.0,0.0,0.0,0.0,0.0,0.0,0.0,0.0,0.0,0.0,0.0,0.0,0.0,0.0,0.0,0.0,0.0,0.0,0.0,-4.8103,-4.8637,-5.0275,-5.2411,0.0,0.0,-5.2182,-5.4105,-5.6009,-5.431,-4.5585,0.0,0.0,0.0,0.0,0.0,0.0,0.0,0.0,0.0,0.0,0.0,0.0,0.0,0.0,0.0,0.0,0.0,0.0,0.0,0.0,0.0,0.0,0.0,0.0,0.0,0.0,0.0,0.0,0.0,0.0,0.0,0.0,0.0,0.0,0.0,0.0,0.0,0.0,0.0,0.0,0.0,0.0,0.0,0.0,0.0,0.0,0.0,0.0,0.0,0.0,0.0,0.0,0.0,-2.8798,-3.1075,-3.3335,-3.5199,-3.6656,-3.8179,-3.8574,-3.7549,-3.6975,-3.5122,0.0,0.0,0.0,0.0,0.0,0.0,0.0,0.0,0.0,0.0,0.0,0.0,0.0,0.0,0.0,0.0,0.0,0.0,0.0,0.0,0.0,0.0,0.0,0.0,0.0,0.0,0.0,0.0,-2.71,-2.8228,-2.8686,0.0,0.0,0.0,0.0,0.0,0.0,0.0,0.0,0.0,0.0,-4.7286,-4.9768,-5.2188,0.0,0.0,-5.4583,-5.2984,-5.3105,-5.2516,-4.9823,-4.3019,-3.9328,0.0,0.0,0.0,0.0,0.0,0.0,0.0,0.0,0.0,0.0,0.0,0.0,0.0,0.0,0.0,0.0,0.0,0.0,0.0,0.0,0.0,0.0,0.0,0.0,0.0,0.0,0.0,0.0,0.0,0.0,0.0,0.0,0.0,0.0,0.0,0.0,0.0,0.0,0.0,0.0,0.0,0.0,0.0,0.0,0.0,0.0,0.0,0.0,0.0,0.0,0.0,0.0,-2.8576,-3.1021,-3.2887,-3.4525,-3.5913,-3.7268,-3.7422,-3.6404,-3.6012,-3.4255,0.0,0.0,0.0,0.0,0.0,0.0,0.0,0.0,0.0,0.0,0.0,0.0,0.0,0.0,0.0,0.0,0.0,0.0,0.0,0.0,0.0,0.0,0.0,0.0,0.0,0.0,0.0,0.0,-2.8785,-2.977,-2.9733,0.0,0.0,0.0,0.0,0.0,0.0,0.0,0.0,0.0,0.0,-4.6642,-4.935,-5.1571,-5.3418,-5.4527,-5.2621,-5.089,-5.0534,-4.8974,-4.6076,-4.1071,0.0,0.0,0.0,0.0,0.0,0.0,0.0,0.0,0.0,0.0,0.0,0.0,0.0,0.0,0.0,0.0,0.0,0.0,0.0,0.0,0.0,0.0,0.0,0.0,0.0,0.0,0.0,0.0,0.0,0.0,0.0,0.0,0.0,0.0,0.0,0.0,0.0,0.0,0.0,0.0,0.0,0.0,0.0,0.0,0.0,0.0,0.0,0.0,0.0,0.0,0.0,0.0,0.0,-2.8355,-3.0594,-3.2571,-3.4095,-3.5305,-3.6397,-3.6585,-3.5891,-3.4596,-3.2996,-3.0909,0.0,0.0,0.0,0.0,0.0,0.0,0.0,0.0,0.0,0.0,0.0,0.0,0.0,0.0,0.0,0.0,0.0,0.0,0.0,0.0,0.0,0.0,0.0,0.0,0.0,0.0,-2.7133,-2.801,-2.8545,0.0,0.0,0.0,0.0,0.0,0.0,0.0,0.0,0.0,0.0,-4.1723,-4.6078,-4.6485,-4.7519,-4.8757,-4.9471,-4.7043,-4.5536,-4.7104,-4.6567,-4.4655,0.0,0.0,0.0,0.0,0.0,0.0,0.0,0.0,0.0,0.0,0.0,0.0,0.0,0.0,0.0,0.0,0.0,0.0,0.0,0.0,0.0,0.0,0.0,0.0,0.0,0.0,0.0,-3.2989,-3.2926,0.0,0.0,0.0,0.0,0.0,0.0,0.0,0.0,0.0,0.0,0.0,-3.3966,-3.3826,0.0,0.0,0.0,0.0,0.0,0.0,0.0,0.0,0.0,0.0,0.0,0.0,-2.8388,-3.0254,-3.1785,-3.3141,-3.4236,-3.5142,-3.4914,-3.3449,-3.3432,-3.2346,-2.9818,0.0,0.0,0.0,0.0,0.0,0.0,0.0,0.0,0.0,0.0,0.0,0.0,0.0,0.0,0.0,0.0,0.0,0.0,0.0,0.0,0.0,0.0,0.0,0.0,0.0,-2.8972,0.0,0.0,0.0,0.0,0.0,0.0,0.0,0.0,0.0,0.0,0.0,-3.409,-3.7203,-4.0293,-4.2903,-4.495,-4.6941,-4.9046,0.0,0.0,0.0,0.0,0.0,0.0,0.0,0.0,0.0,0.0,0.0,0.0,0.0,0.0,-4.2438,-3.6456,-3.5361,-3.5201,-3.4699,0.0,0.0,0.0,0.0,0.0,0.0,0.0,0.0,0.0,0.0,0.0,0.0,0.0,0.0,0.0,0.0,-3.4677,0.0,0.0,0.0,0.0,0.0,0.0,0.0,0.0,-3.459,-3.501,-3.5452,-3.4955,-3.419,0.0,-3.3051,-3.1405,0.0,0.0,0.0,0.0,0.0,0.0,0.0,0.0,-2.8315,-2.996,-3.1159,-3.2235,-3.3283,-3.3779,-3.3509,-3.2448,-3.2605,-3.1785,-2.9555,-2.8012,-2.6665,0.0,0.0,0.0,0.0,0.0,0.0,0.0,0.0,0.0,0.0,0.0,0.0,0.0,0.0,0.0,0.0,0.0,0.0,0.0,0.0,0.0,0.0,0.0,-2.982,0.0,0.0,0.0,0.0,0.0,0.0,0.0,0.0,0.0,-3.237,-3.3479,-3.5418,-3.8504,-3.9931,-4.1334,-4.303,0.0,0.0,0.0,0.0,0.0,0.0,0.0,-3.9993,-3.8414,-3.7857,-3.8133,-3.9469,-4.2138,-4.4124,-4.4234,0.0,0.0,-3.9829,-3.8728,-3.8387,-3.7456,-3.6469,-3.5802,-3.5562,-3.569,-3.5416,0.0,0.0,0.0,0.0,0.0,0.0,0.0,0.0,-3.6182,-3.6314,0.0,-3.6098,0.0,0.0,0.0,0.0,0.0,0.0,0.0,0.0,-3.7634,-3.7868,-3.6522,-3.5614,-3.4513,-3.3318,-3.3771,-3.2805,-3.0763,-2.9589,0.0,0.0,0.0,0.0,0.0,0.0,-2.8122,-2.9741,-3.0489,-3.1445,-3.2485,-3.2248,-3.2303,-3.279,-3.2166,-3.1296,-3.0138,-2.8837,-2.767,-2.6565,-2.5784,0.0,0.0,0.0,0.0,0.0,0.0,0.0,0.0,0.0,0.0,0.0,0.0,0.0,0.0,0.0,0.0,0.0,0.0,0.0,0.0,-2.9428,0.0,0.0,0.0,0.0,0.0,0.0,0.0,0.0,0.0,0.0,-3.2605,-3.5068,-3.7562,-3.9297,0.0,0.0,0.0,0.0,-4.1066,-4.0527,-3.9501,-3.9334,-4.0243,-4.1366,-4.1696,-4.0412,0.0,0.0,-4.4579,-4.4827,-4.4972,-4.4037,-4.6454,-4.7615,-4.4865,-4.3458,-4.1996,-3.9537,-3.8863,-3.816,-3.6949,-3.7443,-3.7443,-4.2553,0.0,0.0,0.0,0.0,-3.6895,-3.8076,-4.0217,-3.9557,-3.9264,-3.9229,-3.8208,0.0,0.0,0.0,0.0,0.0,0.0,-3.4113,-3.5418,-3.5728,-3.6168,-3.67,-3.6251,-3.5831,-3.5429,-3.519,-3.4349,-3.2955,-3.2243,-3.0451,-2.7742,0.0,0.0,0.0,0.0,-2.835,-2.9741,-3.041,-3.1027,-3.1694,-3.1637,-3.1706,-3.1789,-3.1637,-3.1153,-3.0473,-3.0068,-2.9126,-2.7503,-2.6822,0.0,0.0,0.0,0.0,0.0,0.0,0.0,0.0,0.0,0.0,0.0,0.0,0.0,0.0,0.0,0.0,0.0,0.0,0.0,-2.9464,-3.0058,-3.0224,0.0,0.0,0.0,0.0,0.0,0.0,0.0,0.0,0.0,-3.3819,-3.4023,-3.4994,0.0,0.0,-3.7521,-3.8067,-3.9203,-4.1276,-4.4654,0.0,0.0,0.0,-4.418,-4.2608,-4.1776,-4.4511,-4.7058,-4.7869,-4.8726,-4.9266,-4.8925,-4.8808,-4.8071,-4.5981,-4.5029,-4.4081,-4.2852,-4.1635,-4.0697,-4.0357,-4.0728,-4.0666,-4.6033,-4.3196,-4.0219,-3.9291,-3.9685,-3.9378,-4.0408,-4.2451,-4.1857,-4.1294,-4.08,-3.9873,-3.787,-3.5031,-3.3492,0.0,0.0,0.0,-3.4631,-3.6381,-3.583,-3.6132,-3.7079,-3.665,-3.637,-3.632,-3.5579,-3.4876,-3.4211,-3.3058,-3.136,-2.9151,0.0,0.0,-2.756,-2.8,-2.8725,-2.9767,-3.0118,-3.0545,-3.1072,-3.1085,-3.1185,-3.1373,-3.1386,-3.1235,-3.0934,-3.0641,-2.9786,-2.8213,-2.7668,-2.638,0.0,0.0,0.0,0.0,0.0,0.0,0.0,0.0,0.0,0.0,0.0,-2.4619,-2.5387,0.0,0.0,0.0,-2.6981,-2.8257,-2.9358,-2.9902,0.0,0.0,0.0,0.0,0.0,0.0,0.0,-3.0221,-3.2447,-3.3872,-3.3342,-3.2984,-3.3964,-3.714,-3.7099,-3.7137,-3.8495,0.0,-4.1821,-4.5675,-4.5349,-4.5212,-4.6571,-4.5757,-4.4827,-4.4572,-4.5706,-4.7458,-4.9363,-5.0015,-5.0318,-5.0473,-4.9741,-4.8177,-4.5692,-4.499,-4.4417,-4.3367,-4.2523,-4.1747,-4.0927,-4.1085,-4.1207,-4.8293,-4.7031,-4.282,-4.1077,-4.1252,-4.1829,-4.2476,-4.321,-4.335,-4.2668,-4.1471,-4.1099,-3.8934,-3.5371,-3.3065,0.0,0.0,-3.4399,-3.5713,-3.8048,-3.7164,-3.7092,-3.7612,-3.6896,-3.6427,-3.6364,-3.5265,-3.4751,-3.4575,-3.2661,-3.1323,-3.0541,-3.0055,-2.9062,-2.7878,-2.845,-2.9063,-2.9716,-2.9716,-2.9993,-3.0532,-3.0595,-3.0846,-3.1311,-3.1373,-3.1361,-3.1311,-3.0686,-2.9779,-2.8659,-2.8206,-2.7247,-2.5764,0.0,0.0,0.0,0.0,0.0,0.0,0.0,0.0,0.0,0.0,0.0,0.0,0.0,0.0,0.0,-2.7545,0.0,-2.8749,-2.9406,0.0,0.0,0.0,-3.0395,-3.124,-3.1585,-3.1896,-3.1971,0.0,0.0,-3.2026,0.0,-3.4113,-3.9043,-3.8668,-3.8697,-4.0851,-4.1406,-4.2515,-4.4685,-4.4849,-4.4935,-4.5491,-4.6266,-4.6909,-4.704,-4.6639,-4.6853,-4.8993,-4.9235,-4.9094,-4.9467,-4.9083,-4.7643,-4.4622,-4.3826,-4.3254,-4.1469,-4.1671,-4.1555,-3.9657,-3.9571,-3.9812,-4.7548,-4.6914,-4.5302,-4.4676,-4.4617,-4.4284,-4.4589,-4.514,-4.4749,-4.3806,-4.2581,-4.154,-3.9839,-3.7637,-3.6343,-3.5996,-3.6507,-3.6045,-3.5915,-3.6213,-3.6599,-3.6501,-3.6156,-3.7083,-3.6944,-3.5995,-3.5729,-3.516,-3.425,-3.291,-3.1501,-3.0165,-2.9559,-2.8808,-2.7841,-2.7841,-2.8188,-2.8987,-2.8987,-2.9262,-2.998,-3.0394,-3.067,-3.0796,-3.1185,-3.1117,-3.0555,-3.0431,-2.9794,-2.879,-2.7907,-2.6954,-2.6009,-2.4662,0.0,0.0,0.0,0.0,0.0,0.0,0.0,0.0,0.0,-2.4643,-2.5156,0.0,-2.5414,0.0,-2.7074,-2.8943,-3.1135,-3.0732,0.0,0.0,-3.112,-3.0833,-3.1491,-3.2315,-3.2462,-3.1448,-3.2771,-3.3578,-3.2933,-3.3242,-3.4632,-3.7506,-3.6669,-3.6782,-3.9358,-4.0366,-4.2111,-4.5507,-4.6729,-4.7325,-4.7502,-4.6372,-4.5387,-4.5492,-4.5655,-4.6273,-4.7411,-4.7489,-4.7273,-4.6922,-4.626,-4.4824,-4.247,-4.1986,-4.0864,-3.8488,-3.9027,-3.9938,-3.9032,-3.9239,-3.9513,-4.626,-4.5947,-4.5608,-4.5285,-4.5053,-4.5242,-4.5547,-4.5808,-4.4893,-4.3733,-4.2267,-4.0306,-3.8574,-3.7208,-3.6505,-3.6207,-3.6067,-3.5644,-3.5458,-3.5608,-3.5991,-3.6168,-3.6061,-3.6375,-3.6269,-3.5872,-3.5027,-3.4397,-3.3695,-3.2463,-3.1344,-3.0335,-2.9689,-2.8856,-2.7889,-2.7594,-2.7829,-2.8484,-2.8872,-2.9312,-2.9792,-3.0331,-3.0415,-3.0099,-3.0428,-3.0169,-2.9477,-2.9398,-2.8971,-2.811,-2.7451,-2.6745,-2.6105,-2.4831,-2.3857,0.0,0.0,0.0,0.0,0.0,0.0,0.0,0.0,0.0,0.0,0.0,-2.6005,0.0,-2.754,0.0,-3.1059,-3.0776,-3.0971,-3.1919,-3.1701,-3.1744,-3.245,-3.2904,-3.2885,-3.2236,-3.316,-3.3551,-3.2827,-3.3181,-3.413,-3.5659,-3.5192,-3.5976,-3.9386,-4.0442,-4.1838,-4.5062,-4.6125,-4.665,-4.7002,-4.4723,-4.3211,-4.4018,-4.3878,-4.3975,-4.5176,-4.4927,-4.4455,-4.43,-4.3703,-4.2606,-4.055,-3.9978,-3.8973,-3.6835,-3.6606,-3.7231,-3.7382,-3.7887,-3.828,-4.4843,-4.4763,-4.4777,-4.4458,-4.4081,-4.5082,-4.5414,-4.5252,-4.4342,-4.2941,-4.1268,-3.8388,-3.6636,-3.5752,-3.5237,-3.5005,-3.4797,-3.4527,-3.4808,-3.5596,-3.5704,-3.6073,-3.659,-3.5606,-3.5306,-3.5641,-3.4028,-3.3214,-3.2941,-3.1674,-3.0894,-3.0486,-2.9748,-2.8925,-2.8025,-2.7604,-2.7642,-2.8209,-2.8994,-2.9434,-2.9691,-3.0002,-2.9899,-2.9257,-2.917,-2.8857,-2.8309,-2.8008,-2.7648,-2.716,-2.6926,-2.6671,-2.6298,-2.5252,-2.4687,0.0,-2.3857,0.0,0.0,0.0,0.0,0.0,0.0,0.0,0.0,-2.7078,-2.7114,-2.7853,-2.85,-2.9214,-2.993,-3.0369,-3.0896,-3.1537,-3.1964,-3.2536,-3.3183,-3.3148,-3.3068,-3.3213,-3.3046,-3.2667,-3.2131,-3.2469,-3.3,-3.3656,-3.3655,-3.5083,-3.9135,-4.0188,-4.1214,-4.3221,-4.4087,-4.4658,-4.4367,-4.2382,-4.1244,-4.2604,-4.1762,-4.1151,-4.2832,-4.2189,-4.1466,-4.1821,-4.1498,-4.0515,-3.8635,-3.8172,-3.7241,-3.5064,-3.4596,-3.4733,-3.5237,-3.5939,-3.6128,-4.421,-4.4168,-4.4153,-4.4095,-4.3979,-4.3674,-4.3185,-4.2533,-4.3012,-4.214,-4.0233,-3.7462,-3.6416,-3.652,-3.4686,-3.4304,-3.5053,-3.4408,-3.47,-3.5966,-3.6521,-3.6615,-3.6213,-3.6689,-3.6109,-3.4657,-3.3841,-3.3059,-3.2164,-3.0955,-2.9832,-2.8891,-2.8349,-2.7999,-2.7693,0.0,0.0,0.0,-2.8184,-2.8632,-2.8861,-2.8349,-2.8039,-2.7866,-2.7533,0.0,-2.7395,-2.6943,-2.6796,-2.6962,-2.6502,0.0,0.0,0.0,0.0,0.0,0.0,0.0,0.0,0.0,0.0,0.0,-2.6659,-2.6673,-2.7162,-2.7311,-2.7706,-2.8425,-2.8649,-2.9374,-3.0934,-3.0796,-3.1185,-3.2554,-3.2428,-3.2286,-3.2465,-3.2399,-3.2248,-3.1858,-3.1567,-3.1452,-3.1365,-3.1249,-3.1547,-3.226,-3.2042,-3.2711,-3.5232,-3.739,-3.9379,-4.1303,-4.2607,-4.3346,-4.31,-4.1555,-4.0334,-4.0356,-4.0087,-3.9835,-4.0119,-4.004,-3.9675,-3.9802,-3.9626,-3.8978,-3.7248,-3.6828,-3.587,-3.3165,-3.3018,-3.3483,-3.39,-3.4163,-3.419,-4.304,0.0,-4.35,-4.334,0.0,-4.2702,-4.1748,-4.0379,-4.1227,-4.0575,-3.8744,-3.7046,-3.6141,-3.5762,-3.4097,-3.3781,-3.4391,-3.3845,-3.428,-3.5391,-3.5763,-3.5804,-3.5637,-3.5458,-3.4916,-3.3928,-3.3116,-3.2386,-3.1736,-3.0628,-2.9809,-2.928,-2.8498,-2.8114,-2.8102,-2.7849,-2.7726,-2.7901,-2.8442,-2.8879,-2.9212,-2.9098,-2.8748,-2.8151,0.0,0.0,0.0,0.0,0.0,0.0,0.0,0.0,0.0,0.0,0.0,-2.6851,-2.6154,-2.6057,-2.6815,-2.6899,-2.714,-2.7657,-2.7782,-2.7738,-2.7612,-2.7983,-2.8482,-2.8855,-2.9282,-2.9858,-3.0723,-3.0904,-3.1323,-3.2114,-3.1976,-3.18,-3.1788,-3.1574,-3.1229,-3.091,-3.0767,-3.0686,-3.0535,-3.077,-3.0881,-3.116,-3.1032,-3.1161,-3.2292,-3.4492,-3.6939,-3.9164,-4.0467,-4.1146,-4.0911,-4.0036,-3.9325,-3.9188,-3.8717,-3.845,-3.8639,-3.8357,-3.8075,-3.7903,-3.7619,-3.6995,-3.6172,-3.5186,-3.3928,-3.2529,-3.1879,-3.1358,-3.0894,-3.1535,-3.2243,-4.1949,-4.2734,-4.2847,-4.2484,-4.1918,-4.1787,-4.0584,-3.8738,0.0,0.0,0.0,-3.6702,-3.5709,-3.4568,-3.3661,-3.3308,-3.338,-3.3232,-3.3751,-3.4727,-3.4739,-3.4878,-3.4984,-3.3924,-3.3357,-3.3341,-3.2269,-3.1613,-3.1492,-3.0555,-3.0037,-2.9857,-2.8991,-2.851,-2.851,-2.8498,-2.853,-2.8427,-2.8799,-2.9229,-2.9576,-2.9914,-2.9561,-2.8499,-2.84,-2.8089,-2.7484,-2.725,-2.7101,-2.7198,-2.6998,-2.6971,-2.698,-2.6635,-2.6635,-2.714,-2.6779,-2.6911,-2.7789,-2.7873,-2.8041,-2.8474,-2.8657,-2.8609,-2.8171,-2.8717,-2.9143,-2.9143,-2.9695,-3.0152,-3.0263,-3.071,-3.1104,-3.1267,-3.1229,-3.1179,-3.1154,-3.0816,-3.0461,-3.0164,-3.0047,-2.9967,-2.9843,-3.0082,-3.0281,-3.0138,-3.0084,-3.0261,-3.0565,-3.2739,-3.5336,-3.7654,-3.8784,-3.8966,-3.8793,-3.8215,-3.7965,-3.8228,-3.7374,-3.6909,-3.7281,-3.7095,-3.677,-3.6847,-3.6054,-3.5559,-3.5059,-3.3492,-3.1992,-3.1642,-3.0543,-2.9142,-2.7741,-2.8435,-2.9389,-4.1523,-4.1693,-4.2056,-4.1845,-4.1192,-4.0626,-3.9419,-3.7741,-3.7139,-3.7119,-3.7534,-3.6136,-3.5047,-3.4306,-3.3275,-3.2707,-3.269,-3.2611,-3.329,0.0,-3.447,-3.4525,-3.4516,-3.3891,-3.326,-3.2635,-3.2026,-3.1432,-3.0963,-3.0386,-2.9869,-2.9388,-2.8799,-2.851,-2.851,-2.8657,-2.8846,-2.8929,-2.846,-2.8353,-2.8824,-2.8263,-2.7829,-2.7656,-2.7347,-2.7188,-2.7447,-2.6932,-2.6724,-2.7174,-2.6998,-2.714,-2.7572,-2.7536,-2.7729,-2.8234,-2.8222,-2.8246,-2.8378,-2.839,-2.8438,-2.8498,-2.851,-2.8621,-2.8706,-2.8924,-2.9143,-2.9143,-2.9374,-2.9675,-2.9948,-2.9849,-3.0077,-3.0684,-3.0498,-3.017,-3.0239,-3.0165,-2.9862,-2.9431,-2.915,-2.9096,-2.9065,-2.8979,-2.8996,-2.8831,-2.9015,-2.9187,-3.0394,-3.2636,-3.5121,-3.7128,-3.7824,-3.7932,-3.7871,-3.703,-3.6438,-3.6298,-3.5759,-3.5415,-3.5952,-3.594,-3.5913,-3.6414,-3.5721,-3.4868,-3.3858,-3.2341,-3.055,-2.9142,-2.7885,-2.6909,-2.5909,-2.542,-2.505,-4.2005,-4.1922,-4.2295,-4.2078,-4.1483,-3.9938,-3.8531,-3.724,-3.6587,-3.6587,-3.6836,-3.5816,-3.4992,-3.4428,-3.3288,-3.2834,-3.3008,-3.2672,-3.295,-3.3802,-3.3814,-3.3656,-3.3387,-3.3118,-3.2682,-3.2046,-3.1793,-3.1396,-3.0867,-3.0338,-2.9821,-2.9292,-2.8775,-2.851,-2.851,-2.8578,-2.8816,-2.9118,-2.8872,-2.8904,-2.9249,-2.8911,-2.8761,-2.8774,-2.8525,-2.8425,-2.8496,-2.8059,-2.7895,-2.8062,-2.7854,-2.7897,-2.8138,-2.8162,-2.8258,-2.8486,-2.851,-2.851,-2.851,-2.851,-2.851,-2.851,-2.851,-2.851,-2.8657,-2.8736,-2.8736,-2.8816,-2.8961,-2.9138,-2.9316,-2.9278,-2.9394,-2.9807,-2.9647,-2.9524,-2.9512,-2.9524,-2.9334,-2.9022,-2.8882,-2.8724,-2.8657,-2.859,-2.851,-2.851,-2.851,-2.8882,-2.9704,-3.1487,-3.3479,-3.5395,-3.616,-3.6478,-3.656,-3.6076,-3.5529,-3.5109,-3.478,-3.4633,-3.4912,-3.4898,-3.5044,-3.519,-3.4485,-3.3251,-3.1969,-2.9992,-2.8198,-2.6588,-2.5337,-2.4398,-2.3378,-2.2235,-2.2146,-4.2548,-4.2467,-4.2673,-4.2216,-4.1298,-3.926,-3.7834,-3.6864,-3.6549,-3.6312,-3.6138,-3.5588,-3.5019,-3.4371,-3.3386,-3.3021,-3.3054,-3.2747,-3.2708,-3.2887,-3.3107,-3.2889,-3.2346,-3.231,-3.2094,-3.1685,-3.1553,-3.1276,-3.0843,-3.023,-2.9641,-2.9136,-2.8703,-2.851,-2.851,-2.8578,-2.8736,-2.9052,-2.9184,-2.9521,-2.9779,-2.9779,-2.9779,-2.9779,-2.9702,-2.9599,-2.9419,-2.9197,-2.8961,-2.8803,-2.8578,-2.851,-2.851,-2.851,-2.851,-2.851,-2.851,-2.851,-2.851,-2.851,-2.851,-2.851,-2.851,-2.851,-2.851,-2.851,-2.851,-2.851,-2.8736,-2.8803,-2.884,-2.8895,-2.9052,-2.8973,-2.8973,-2.901,-2.8986,-2.8973,-2.8907,-2.8736,-2.8724,-2.8657,-2.8498,-2.851,-2.851,-2.851,-2.8414,-2.8555,-2.922,-3.0149,-3.1441,-3.3099,-3.453,-3.5429,-3.54,-3.527,-3.4927,-3.438,-3.3973,-3.3905,-3.3959,-3.4027,-3.3994,-3.384,-3.2821,-3.145,-2.9882,-2.7541,-2.5594,-2.4349,-2.3163,-2.1755,-2.0421,-1.9415,-1.9553,-4.2695,-4.2776,-4.2739,-4.1551,-3.9722,-3.8239,-3.7219,-3.647,-3.6391,-3.6138,-3.579,-3.571,-3.4964,-3.3882,-3.3628,-3.2995,-3.2022,-3.2449,-3.2399,-3.2007,-3.2511,-3.2399,-3.1834,-3.1721,-3.1721,-3.1589,-3.1168,-3.0891,-3.0735,-2.9845,-2.91,-2.8643,-2.8522,-2.851,-2.851,-2.8657,-2.8803,-2.8803,-2.904,-2.9378,-2.9792,-2.9779,-2.9779,-2.9779,-2.9586,-2.9431,-2.9341,-2.904,-2.8791,-2.8791,-2.8578,-2.851,-2.851,-2.851,-2.851,-2.851,-2.851,-2.851,-2.851,-2.851,-2.851,-2.851,-2.851,-2.851,-2.851,-2.851,-2.851,-2.851,-2.8657,-2.8724,-2.859,-2.8724,-2.8736,-2.8669,-2.8554,-2.851,-2.859,-2.859,-2.859,-2.851,-2.853,-2.8486,-2.8402,-2.8378,-2.8426,-2.8342,-2.8005,-2.7932,-2.8457,-2.8812,-2.9436,-3.106,-3.3268,-3.502,-3.508,-3.478,-3.438,-3.4109,-3.3171,-3.2832,-3.3087,-3.3171,-3.3212,-3.2542,-3.1389,-2.9882,-2.7828,-2.5467,-2.3154,-2.2212,-2.097,-1.9521,-1.8026,-1.7072,-1.7462,-4.3359,-4.2731,-4.2991,-4.1507,-3.914,-3.7749,-3.6744,-3.6058,-3.5978,-3.5884,-3.571,-3.571,-3.5127,-3.4314,-3.3882,-3.3215,-3.2276,-3.2189,-3.1843,-3.1303,-3.1539,-3.1465,-3.1267,-3.0867,-3.0879,-3.1144,-3.0663,-3.0242,-2.9869,-2.9184,-2.8715,-2.8534,-2.851,-2.851,-2.851,-2.8578,-2.8645,-2.8803,-2.8882,-2.9052,-2.9378,-2.9378,-2.9378,-2.9378,-2.9287,-2.9197,-2.9028,-2.887,-2.8724,-2.8657,-2.851,-2.851,-2.851,-2.851,-2.851,-2.851,-2.851,-2.851,-2.851,-2.851,-2.851,-2.851,-2.851,-2.851,-2.851,-2.851,-2.851,-2.851,-2.8566,-2.859,-2.851,-2.8578,-2.8578,-2.8474,-2.8234,-2.8162,-2.8486,-2.8222,-2.8041,-2.8041,-2.8041,-2.7909,-2.7657,-2.7572,-2.7572,-2.756,-2.7356,-2.7412,-2.7614,-2.7903,-2.8324,-2.9031,-3.0798,-3.237,-3.3331,-3.3671,-3.3492,-3.3101,-3.2574,-3.2359,-3.1955,-3.2001,-3.1879,-3.1294,-2.9632,-2.7828,-2.5902,-2.344,-2.1151,-1.9965,-1.8394,-1.6887,-1.6469,-1.6055,-1.6392,-4.3776,-4.2986,-4.2617,-4.1002,-3.871,-3.7377,-3.6443,-3.579,-3.571,-3.571,-3.571,-3.571,-3.5304,-3.4716,-3.4134,-3.3479,-3.2487,-3.2302,-3.1835,-3.1271,-3.1149,-3.1138,-3.104,-3.0423,-3.0362,-3.0699,-3.0194,-2.9593,-2.9088,-2.8715,-2.851,-2.851,-2.851,-2.851,-2.851,-2.851,-2.859,-2.8724,-2.8712,-2.8816,-2.8895,-2.8895,-2.8973,-2.9052,-2.904,-2.8973,-2.8803,-2.8724,-2.8657,-2.851,-2.851,-2.851,-2.851,-2.851,-2.851,-2.851,-2.851,-2.851,-2.851,-2.851,-2.851,-2.851,-2.851,-2.851,-2.851,-2.851,-2.851,-2.8498,-2.8378,-2.8318,-2.8498,-2.851,-2.851,-2.8474,-2.8041,-2.7909,-2.8198,-2.7825,-2.7512,-2.7512,-2.75,-2.738,-2.7043,-2.6971,-2.7007,-2.6995,-2.6827,-2.6707,-2.6707,-2.7066,-2.7336,-2.7421,-2.8472,-3.0047,-3.1558,-3.2233,-3.2286,-3.2331,-3.1996,-3.1556,-3.0921,-3.0745,-2.9732,-2.8647,-2.7263,-2.5397,-2.3203,-2.091,-1.9274,-1.7517,-1.6226,-1.5548,-1.5685,-1.5516,-1.5376,-4.375,-4.3476,-4.1279,-3.966,-3.8418,-3.7037,-3.6138,-3.571,-3.571,-3.571,-3.571,-3.571,-3.5291,-3.4716,-3.4647,-3.3656,-3.2231,-3.3039,-3.292,-3.1932,-3.1805,-3.1827,-3.172,-3.0676,-3.0338,-3.0627,-2.9785,-2.9076,-2.8595,-2.8534,-2.851,-2.851,-2.851,-2.851,-2.851,-2.851,-2.851,-2.851,-2.8498,-2.851,-2.851,-2.851,-2.8749,-2.8973,-2.8882,-2.8803,-2.8803,-2.8578,-2.851,-2.851,-2.851,-2.851,-2.851,-2.851,-2.851,-2.851,-2.851,-2.851,-2.851,-2.851,-2.851,-2.851,-2.851,-2.851,-2.851,-2.851,-2.851,-2.851,-2.8089,-2.7993,-2.8366,-2.8354,-2.8378,-2.8354,-2.7969,-2.7705,-2.7729,-2.7284,-2.6995,-2.6959,-2.6923,-2.6827,-2.6851,-2.6923,-2.6815,-2.6719,-2.6442,-2.6142,-2.6142,-2.6202,-2.6287,-2.6518,-2.7356,-2.8779,-3.0495,-3.1023,-3.1351,-3.1446,-3.1122,-3.0683,-3.0114,-2.9245,-2.7656,-2.5961,-2.4315,-2.2524,-2.0333,-1.8715,-1.7383,-1.6275,-1.591,-1.5531,-1.5613,-1.4854,-1.4903,-4.3236,-4.2493,-4.0731,-3.9431,-3.841,-3.7544,-3.6587,-3.571,-3.571,-3.571,-3.571,-3.571,-3.5291,-3.4716,-3.5127,-3.4515,-3.3127,-3.3104,-3.2903,-3.2388,-3.1415,-3.1054,-3.1208,-2.9813,-2.9352,-2.9689,-2.9148,-2.8703,-2.8546,-2.851,-2.851,-2.851,-2.851,-2.851,-2.851,-2.851,-2.851,-2.851,-2.851,-2.851,-2.851,-2.851,-2.859,-2.8657,-2.8657,-2.8578,-2.8578,-2.851,-2.851,-2.851,-2.851,-2.851,-2.851,-2.851,-2.851,-2.851,-2.851,-2.851,-2.851,-2.851,-2.851,-2.851,-2.851,-2.851,-2.851,-2.851,-2.851,-2.8426,-2.8029,-2.7861,-2.7861,-2.7717,-2.75,-2.744,-2.7119,-2.695,-2.7019,-2.6829,-2.6553,-2.6358,-2.6129,-2.5889,-2.5961,-2.5901,-2.5901,-2.5877,-2.5721,-2.5636,-2.56,-2.5588,-2.5672,-2.5826,-2.6186,-2.6921,-2.815,-2.9358,-3.0011,-3.023,-3.0151,-2.9581,-2.8941,-2.7437,-2.5861,-2.4168,-2.2296,-2.0168,-1.8153,-1.6802,-1.5631,-1.5921,-1.5567,-1.585,-1.5817,-1.5777,-1.5945,-4.2364,-4.1355,-4.0273,-3.9239,-3.8328,-3.7662,-3.673,-3.579,-3.571,-3.571,-3.571,-3.5723,-3.5467,-3.5141,-3.5467,-3.5209,-3.4293,-3.3519,-3.3156,-3.2815,-3.1251,-3.0716,-3.0803,-2.9548,-2.8947,-2.9148,-2.8763,-2.851,-2.851,-2.851,-2.851,-2.851,-2.851,-2.851,-2.851,-2.851,-2.851,-2.851,-2.851,-2.851,-2.851,-2.851,-2.851,-2.851,-2.851,-2.851,-2.851,-2.851,-2.851,-2.851,-2.851,-2.851,-2.851,-2.851,-2.851,-2.851,-2.851,-2.851,-2.851,-2.851,-2.851,-2.851,-2.851,-2.851,-2.851,-2.851,-2.851,-2.839,-2.7849,-2.7476,-2.732,-2.6827,-2.655,-2.6755,-2.6516,-2.6408,-2.6574,-2.6251,-2.5973,-2.5805,-2.5588,-2.5372,-2.5312,-2.5336,-2.5348,-2.5312,-2.5312,-2.5276,-2.5095,-2.5129,-2.5211,-2.5281,-2.5501,-2.6005,-2.6834,-2.78,-2.8336,-2.8566,-2.8646,-2.8172,-2.7093,-2.5495,-2.3856,-2.2244,-2.0312,-1.8112,-1.6379,-1.5007,-1.4986,-1.5405,-1.6043,-1.6428,-1.6771,-1.7313,-1.7384,-4.1232,-4.0523,-3.9692,-3.8942,-3.8098,-3.74,-3.648,-3.579,-3.571,-3.571,-3.571,-3.571,-3.5629,-3.5615,-3.5561,-3.5575,-3.5278,-3.4227,-3.3567,-3.3122,-3.1805,-3.1161,-3.1097,-2.9939,-2.9193,-2.9184,-2.8751,-2.8522,-2.851,-2.851,-2.851,-2.851,-2.851,-2.851,-2.851,-2.851,-2.851,-2.851,-2.851,-2.851,-2.851,-2.851,-2.851,-2.851,-2.851,-2.851,-2.851,-2.851,-2.851,-2.851,-2.851,-2.851,-2.851,-2.851,-2.851,-2.851,-2.851,-2.851,-2.851,-2.851,-2.851,-2.851,-2.851,-2.851,-2.851,-2.851,-2.851,-2.8378,-2.7681,-2.7031,-2.6863,-2.6142,-2.5865,-2.6635,-2.6359,-2.6118,-2.5985,-2.5648,-2.5324,-2.5348,-2.5276,-2.53,-2.53,-2.5228,-2.5216,-2.5288,-2.5312,-2.5214,-2.4828,-2.4869,-2.4864,-2.4871,-2.5031,-2.5432,-2.589,-2.6389,-2.6609,-2.6822,-2.6809,-2.6479,-2.496,-2.3419,-2.1511,-1.9797,-1.7324,-1.5198,-1.4892,-1.3866,-1.4464,-1.5085,-1.6,-1.7295,-1.7937,-1.8522,-1.8832,-4.1186,-4.0486,-4.0231,-3.9305,-3.8161,-3.78,-3.6986,-3.579,-3.571,-3.571,-3.571,-3.571,-3.571,-3.5534,-3.5156,-3.4967,-3.4925,-3.3792,-3.3522,-3.3752,-3.2168,-3.1448,-3.1408,-3.0123,-2.9204,-2.8783,-2.8595,-2.851,-2.851,-2.851,-2.851,-2.851,-2.851,-2.851,-2.851,-2.851,-2.851,-2.851,-2.851,-2.851,-2.851,-2.851,-2.851,-2.851,-2.851,-2.851,-2.851,-2.851,-2.851,-2.851,-2.851,-2.851,-2.851,-2.851,-2.851,-2.851,-2.851,-2.851,-2.851,-2.851,-2.851,-2.851,-2.851,-2.851,-2.851,-2.851,-2.851,-2.8462,-2.7873,-2.7356,-2.6899,-2.6298,-2.5877,-2.5829,-2.5804,-2.5731,-2.56,-2.542,-2.5336,-2.5252,-2.4987,-2.4939,-2.5143,-2.5095,-2.5069,-2.5475,-2.5523,-2.5329,-2.503,-2.4915,-2.4835,-2.4711,-2.4855,-2.4983,-2.5503,-2.5652,-2.5648,-2.5523,-2.5326,-2.4811,-2.3252,-2.1499,-1.9555,-1.7392,-1.4953,-1.3545,-1.3173,-1.3423,-1.4142,-1.5521,-1.7048,-1.8207,-1.9172,-1.9663,-2.0024,-4.0815,-4.0347,-4.0401,-3.9707,-3.8502,-3.8264,-3.7357,-3.6177,-3.579,-3.571,-3.571,-3.5629,-3.5548,-3.548,-3.5009,-3.4647,-3.451,-3.3426,-3.3356,-3.3779,-3.2474,-3.1694,-3.157,-3.0125,-2.9263,-2.8882,-2.8578,-2.851,-2.851,-2.8351,-2.8271,-2.8271,-2.8271,-2.8283,-2.8283,-2.8431,-2.851,-2.851,-2.851,-2.851,-2.851,-2.851,-2.851,-2.851,-2.851,-2.851,-2.851,-2.851,-2.851,-2.851,-2.851,-2.851,-2.851,-2.851,-2.851,-2.851,-2.851,-2.851,-2.851,-2.851,-2.851,-2.851,-2.851,-2.851,-2.851,-2.851,-2.851,-2.845,-2.7825,-2.722,-2.6911,-2.6214,-2.5685,-2.5372,-2.5419,-2.5465,-2.5312,-2.5312,-2.5312,-2.5252,-2.5117,-2.5105,-2.5189,-2.5177,-2.5078,-2.5615,-2.5676,-2.5493,-2.5166,-2.4915,-2.474,-2.4561,-2.4464,-2.4716,-2.5106,-2.5069,-2.4738,-2.4378,-2.4032,-2.3205,-2.204,-2.0312,-1.8439,-1.645,-1.4128,-1.3316,-1.2958,-1.3438,-1.4172,-1.6071,-1.778,-1.8813,-1.9722,-2.0712,-2.1063,-4.0137,-4.0011,-4.0207,-3.9824,-3.9017,-3.8354,-3.7587,-3.6766,-3.6017,-3.5642,-3.5629,-3.548,-3.5399,-3.5304,-3.4901,-3.4486,-3.414,-3.3301,-3.2884,-3.2804,-3.226,-3.177,-3.1149,-3.0126,-2.9419,-2.9184,-2.8657,-2.8431,-2.8259,-2.795,-2.7881,-2.7881,-2.7881,-2.7893,-2.7962,-2.8271,-2.8443,-2.851,-2.851,-2.851,-2.8431,-2.8431,-2.8431,-2.8339,-2.8351,-2.8351,-2.8271,-2.8259,-2.8351,-2.851,-2.851,-2.851,-2.851,-2.851,-2.851,-2.8431,-2.8431,-2.8351,-2.8419,-2.8351,-2.8431,-2.8351,-2.8431,-2.851,-2.851,-2.851,-2.851,-2.8462,-2.7669,-2.7043,-2.6791,-2.6081,-2.5504,-2.5324,-2.5382,-2.5312,-2.5312,-2.5312,-2.5312,-2.53,-2.5441,-2.5581,-2.5475,-2.5451,-2.5566,-2.5816,-2.5746,-2.5583,-2.5253,-2.4979,-2.4648,-2.4389,-2.4116,-2.4267,-2.4607,-2.4291,-2.4014,-2.3916,-2.3382,-2.2366,-2.1158,-1.944,-1.7789,-1.5792,-1.4256,-1.3484,-1.3259,-1.4015,-1.4822,-1.6324,-1.7856,-1.9071,-2.0311,-2.147,-2.1683,-4.0081,-4.0011,-4.0081,-3.9696,-3.9031,-3.8248,-3.7462,-3.6624,-3.5857,-3.548,-3.5318,-3.5236,-3.5154,-3.5074,-3.4033,-3.3741,-3.3701,-3.2588,-3.2173,-3.2404,-3.2011,-3.1582,-3.1158,-3.0469,-2.9651,-2.9028,-2.8498,-2.7869,-2.7603,-2.7441,-2.736,-2.736,-2.7371,-2.7545,-2.7881,-2.7962,-2.8191,-2.8431,-2.851,-2.8351,-2.8122,-2.8042,-2.7857,-2.7592,-2.7592,-2.7592,-2.7522,-2.751,-2.7846,-2.8431,-2.851,-2.851,-2.851,-2.8431,-2.8351,-2.8122,-2.8042,-2.7869,-2.7684,-2.7869,-2.8042,-2.8042,-2.8351,-2.851,-2.851,-2.851,-2.851,-2.8402,-2.7885,-2.7408,-2.7061,-2.6481,-2.5984,-2.5608,-2.5394,-2.5312,-2.5312,-2.5312,-2.5312,-2.5288,-2.5057,-2.5151,-2.5448,-2.535,-2.5391,-2.5881,-2.6013,-2.5901,-2.553,-2.5074,-2.4778,-2.4091,-2.3791,-2.3891,-2.3891,-2.3567,-2.343,-2.3541,-2.2931,-2.195,-2.0672,-1.9199,-1.7585,-1.5813,-1.4932,-1.413,-1.4486,-1.5016,-1.6024,-1.6926,-1.8556,-2.0148,-2.1226,-2.2285,-2.2105,-3.9854,-3.9798,-3.9854,-3.9696,-3.9322,-3.8649,-3.8113,-3.74,-3.6387,-3.5777,-3.5535,-3.5154,-3.487,-3.451,-3.3938,-3.337,-3.3067,-3.2277,-3.1959,-3.1845,-3.1995,-3.1748,-3.1325,-3.0735,-3.0126,-2.9586,-2.8578,-2.8087,-2.7661,-2.7255,-2.694,-2.694,-2.694,-2.7033,-2.729,-2.7545,-2.7696,-2.7926,-2.7938,-2.7846,-2.7615,-2.7626,-2.7522,-2.7267,-2.7174,-2.7174,-2.7174,-2.7174,-2.7429,-2.7846,-2.7926,-2.8018,-2.8203,-2.8018,-2.795,-2.7881,-2.7708,-2.7441,-2.736,-2.7626,-2.7881,-2.7962,-2.8283,-2.8431,-2.851,-2.851,-2.851,-2.8462,-2.8083,-2.7642,-2.7073,-2.6384,-2.5949,-2.5804,-2.5515,-2.5324,-2.5312,-2.5312,-2.5312,-2.5228,-2.5141,-2.516,-2.5652,-2.5383,-2.5628,-2.6089,-2.6201,-2.6096,-2.5958,-2.546,-2.4831,-2.4205,-2.3617,-2.3604,-2.343,-2.3108,-2.2997,-2.3071,-2.2645,-2.1672,-2.0675,-1.9334,-1.8285,-1.6988,-1.5904,-1.5211,-1.5658,-1.6141,-1.6826,-1.795,-1.9637,-2.0721,-2.1637,-2.2064,-2.1919,-3.9553,-3.9409,-3.961,-3.9681,-3.961,-3.925,-3.8782,-3.8457,-3.7218,-3.6452,-3.599,-3.5304,-3.4696,-3.3936,-3.3878,-3.343,-3.2267,-3.2319,-3.1964,-3.1827,-3.1876,-3.2004,-3.1598,-3.1276,-3.0894,-3.0534,-2.9332,-2.8754,-2.8274,-2.7254,-2.6693,-2.6693,-2.661,-2.6528,-2.6693,-2.694,-2.7092,-2.7255,-2.7336,-2.7267,-2.7185,-2.7103,-2.7021,-2.694,-2.694,-2.694,-2.694,-2.7021,-2.7021,-2.7033,-2.7185,-2.7441,-2.7719,-2.7441,-2.736,-2.7534,-2.7278,-2.7103,-2.7092,-2.7371,-2.7708,-2.78,-2.8191,-2.851,-2.851,-2.851,-2.851,-2.851,-2.8161,-2.7642,-2.6986,-2.6094,-2.5817,-2.5925,-2.5612,-2.5348,-2.5312,-2.5312,-2.5312,-2.5312,-2.5453,-2.5618,-2.5828,-2.591,-2.5968,-2.6139,-2.6245,-2.6083,-2.584,-2.5382,-2.4841,-2.4238,-2.3715,-2.3319,-2.3059,-2.2714,-2.2653,-2.2665,-2.2318,-2.1637,-2.1086,-2.0056,-1.933,-1.8439,-1.7588,-1.7013,-1.6902,-1.7403,-1.7852,-1.8552,-1.991,-2.0564,-2.1142,-2.1246,-2.1242,-3.9409,-3.9424,-3.9424,-3.9553,-3.9553,-3.8958,-3.856,-3.8442,-3.751,-3.666,-3.5896,-3.5602,-3.5034,-3.4219,-3.3548,-3.326,-3.3273,-3.2254,-3.1468,-3.1744,-3.1821,-3.1874,-3.1847,-3.1902,-3.177,-3.1194,-3.0164,-2.9455,-2.8886,-2.7743,-2.7092,-2.7021,-2.6456,-2.6218,-2.6528,-2.661,-2.6846,-2.7092,-2.7185,-2.694,-2.6693,-2.661,-2.6539,-2.6302,-2.6218,-2.6218,-2.6229,-2.6229,-2.6146,-2.6302,-2.6787,-2.7196,-2.7278,-2.7185,-2.7103,-2.6869,-2.6787,-2.6539,-2.6385,-2.6622,-2.694,-2.7452,-2.7869,-2.8122,-2.851,-2.851,-2.851,-2.8426,-2.8029,-2.7714,-2.7281,-2.659,-2.6287,-2.6154,-2.5744,-2.5312,-2.5312,-2.5312,-2.5312,-2.5312,-2.5382,-2.5465,-2.5606,-2.5688,-2.5828,-2.6201,-2.6195,-2.6058,-2.5672,-2.5224,-2.4685,-2.4122,-2.3601,-2.3108,-2.28,-2.2555,-2.2494,-2.2432,-2.2111,-2.1835,-2.1305,-2.0806,-2.0133,-1.9833,-1.9499,-1.8924,-1.8199,-1.8447,-1.8873,-1.9565,-2.0097,-2.0572,-2.0904,-2.0827,-2.0392,-3.9424,-3.9424,-3.9424,-3.9481,-3.9481,-3.9177,-3.9017,-3.8752,-3.813,-3.719,-3.636,-3.5896,-3.5049,-3.3992,-3.3404,-3.326,-3.2921,-3.2071,-3.1705,-3.2136,-3.2267,-3.2398,-3.2568,-3.2476,-3.2147,-3.1304,-2.9873,-2.9272,-2.8923,-2.7836,-2.6928,-2.7568,-2.6528,-2.6373,-2.661,-2.6456,-2.6385,-2.6456,-2.6622,-2.6467,-2.6302,-2.6207,-2.6135,-2.5979,-2.5895,-2.5895,-2.5895,-2.5895,-2.5895,-2.599,-2.6385,-2.6693,-2.6775,-2.6704,-2.6539,-2.6528,-2.629,-2.6135,-2.6063,-2.6456,-2.694,-2.7185,-2.7777,-2.8191,-2.8431,-2.851,-2.851,-2.8462,-2.8325,-2.8167,-2.7916,-2.6796,-2.6444,-2.6444,-2.5853,-2.5348,-2.5324,-2.5312,-2.5312,-2.5312,-2.5312,-2.5394,-2.5535,-2.5535,-2.5688,-2.598,-2.6037,-2.5901,-2.5494,-2.5036,-2.4402,-2.3818,-2.3301,-2.2872,-2.2566,-2.2371,-2.2309,-2.2309,-2.2185,-2.2097,-2.1806,-2.1433,-2.1065,-2.061,-2.0159,-1.9786,-1.9221,-1.9582,-1.9729,-2.0139,-2.0497,-2.0701,-2.0771,-2.063,-2.0039,-3.9424,-3.9424,-3.9424,-3.9424,-3.9424,-3.9553,-3.9481,-3.9322,-3.8826,-3.7803,-3.6831,-3.5998,-3.4995,-3.3789,-3.3287,-3.2646,-3.2019,-3.1914,-3.2006,-3.2319,-3.2359,-3.2568,-3.2816,-3.2555,-3.1941,-3.0914,-2.9917,-2.9617,-2.9357,-2.7765,-2.7487,-2.8119,-2.6682,-2.6373,-2.6775,-2.6385,-2.5979,-2.6063,-2.6063,-2.5979,-2.5979,-2.5979,-2.5895,-2.5895,-2.5895,-2.5895,-2.5895,-2.5895,-2.5895,-2.5895,-2.5895,-2.6052,-2.6218,-2.6135,-2.6052,-2.6362,-2.6052,-2.6063,-2.6135,-2.661,-2.7103,-2.7278,-2.7938,-2.8339,-2.8431,-2.851,-2.851,-2.859,-2.8573,-2.8639,-2.8603,-2.7496,-2.6779,-2.6731,-2.6081,-2.5516,-2.542,-2.5384,-2.5312,-2.5312,-2.5312,-2.5382,-2.5465,-2.5535,-2.5688,-2.5758,-2.5816,-2.562,-2.5191,-2.4749,-2.4096,-2.3433,-2.2894,-2.2662,-2.2382,-2.2321,-2.2247,-2.2185,-2.2197,-2.2159,-2.2195,-2.1883,-2.1475,-2.1012,-2.0578,-2.0245,-2.0044,-1.9991,-2.0178,-2.0575,-2.0875,-2.105,-2.0884,-2.0511,-1.9878,-3.9424,-3.9424,-3.9424,-3.9424,-3.9424,-3.9409,-3.9394,-3.9424,-3.919,-3.8091,-3.6344,-3.6087,-3.5039,-3.3661,-3.2489,-3.1771,-3.1341,-3.1537,-3.1901,-3.2045,-3.2045,-3.2202,-3.2228,-3.2097,-3.1601,-3.1224,-3.0855,-3.0984,-3.0649,-2.9327,-2.8371,-2.8755,-2.7174,-2.6539,-2.6775,-2.6373,-2.5979,-2.5895,-2.5895,-2.5895,-2.5895,-2.5895,-2.5895,-2.5895,-2.5895,-2.5906,-2.5906,-2.5906,-2.5895,-2.5895,-2.5895,-2.599,-2.5979,-2.5979,-2.5979,-2.5979,-2.6052,-2.6063,-2.6373,-2.6528,-2.7033,-2.7545,-2.795,-2.8191,-2.8431,-2.851,-2.851,-2.851,-2.851,-2.8578,-2.8486,-2.7717,-2.7512,-2.7308,-2.6635,-2.5925,-2.5841,-2.5588,-2.5336,-2.5312,-2.5312,-2.53,-2.5453,-2.5535,-2.5606,-2.5688,-2.5676,-2.52,-2.4554,-2.4122,-2.3709,-2.2998,-2.2368,-2.2308,-2.2197,-2.2197,-2.2197,-2.2197,-2.2197,-2.2197,-2.2147,-2.2209,-2.1883,-2.1179,-2.0958,-2.0895,-2.0719,-2.0566,-2.0665,-2.1063,-2.1235,-2.1446,-2.1296,-2.113,-2.014,-3.9424,-3.9424,-3.9424,-3.9424,-3.9424,-3.9424,-3.92,-3.8916,-3.8871,-3.7609,-3.606,-3.547,-3.4635,-3.3186,-3.2098,-3.1369,-3.1109,-3.1498,-3.1746,-3.1759,-3.1759,-3.1759,-3.168,-3.1561,-3.1274,-3.1104,-3.1198,-3.1355,-3.1137,-2.9361,-2.9003,-2.9147,-2.7959,-2.7244,-2.7103,-2.6869,-2.6302,-2.6063,-2.5895,-2.5895,-2.5895,-2.5895,-2.5906,-2.5895,-2.5812,-2.5728,-2.5738,-2.5738,-2.5738,-2.5738,-2.5822,-2.5906,-2.5895,-2.5895,-2.5895,-2.5979,-2.6052,-2.629,-2.6622,-2.6869,-2.7452,-2.7788,-2.8042,-2.8283,-2.8431,-2.851,-2.851,-2.851,-2.851,-2.851,-2.8498,-2.8108,-2.792,-2.7678,-2.7003,-2.6445,-2.613,-2.5743,-2.5562,-2.5465,-2.5465,-2.5523,-2.5453,-2.5535,-2.5606,-2.5606,-2.5606,-2.4905,-2.4014,-2.3748,-2.3518,-2.2766,-2.2197,-2.2135,-2.2123,-2.2123,-2.2123,-2.2123,-2.2123,-2.2123,-2.1999,-2.1925,-2.1526,-2.0978,-2.1005,-2.1118,-2.1621,-2.1515,-2.1585,-2.153,-2.1795,-2.1969,-2.1973,-2.1539,-2.0792,-3.9424,-3.9409,-3.9275,-3.9215,-3.9185,-3.9065,-3.8676,-3.8272,-3.8197,-3.695,-3.5102,-3.4826,-3.4005,-3.2697,-3.1876,-3.1305,-3.0838,-3.142,-3.1524,-3.1537,-3.1537,-3.1576,-3.1446,-3.1211,-3.0849,-3.0786,-3.0724,-3.0773,-3.0661,-2.9406,-2.9287,-2.953,-2.9022,-2.8203,-2.7743,-2.7347,-2.6738,-2.6135,-2.5895,-2.5895,-2.5895,-2.5812,-2.5812,-2.5812,-2.5644,-2.5549,-2.5644,-2.5654,-2.5644,-2.5728,-2.5822,-2.5979,-2.5979,-2.6063,-2.6063,-2.6218,-2.6362,-2.6528,-2.6951,-2.7383,-2.7788,-2.8042,-2.8351,-2.8431,-2.851,-2.851,-2.851,-2.851,-2.851,-2.851,-2.853,-2.8282,-2.8082,-2.7831,-2.7297,-2.6602,-2.6227,-2.5923,-2.5608,-2.5606,-2.5688,-2.5688,-2.5688,-2.5676,-2.5688,-2.5606,-2.5594,-2.4953,-2.4171,-2.3875,-2.3513,-2.2642,-2.2197,-2.2135,-2.2061,-2.1999,-2.1987,-2.1987,-2.1925,-2.1925,-2.1726,-2.1526,-2.1071,-2.073,-2.0752,-2.0975,-2.172,-2.217,-2.1835,-2.1717,-2.23,-2.2551,-2.2416,-2.24,-2.1987,-3.9424,-3.9364,-3.8766,-3.8512,-3.8437,-3.7943,-3.7629,-3.7539,-3.7524,-3.6277,-3.4397,-3.4239,-3.3389,-3.2196,-3.1798,-3.1407,-3.1107,-3.1104,-3.1196,-3.1209,-3.1044,-3.0968,-3.0827,-3.0598,-3.052,-3.052,-3.0444,-3.0533,-3.0444,-2.9561,-2.9786,-3.039,-2.9357,-2.831,-2.8536,-2.7801,-2.6798,-2.6063,-2.5895,-2.5895,-2.5895,-2.5728,-2.5644,-2.5559,-2.5464,-2.5369,-2.5559,-2.557,-2.5654,-2.5822,-2.5906,-2.6052,-2.6362,-2.6445,-2.6693,-2.6775,-2.6857,-2.6869,-2.7545,-2.7881,-2.8122,-2.8271,-2.8431,-2.851,-2.851,-2.851,-2.851,-2.851,-2.851,-2.859,-2.8645,-2.8481,-2.8294,-2.7888,-2.7269,-2.6638,-2.6226,-2.5887,-2.5654,-2.5758,-2.577,-2.591,-2.591,-2.591,-2.584,-2.5688,-2.5472,-2.4832,-2.4128,-2.3701,-2.3352,-2.2534,-2.1999,-2.1874,-2.1987,-2.1862,-2.1851,-2.1851,-2.1851,-2.1788,-2.1463,-2.1135,-2.0677,-2.0409,-2.042,-2.0499,-2.0975,-2.1285,-2.1487,-2.1981,-2.2642,-2.2865,-2.2935,-2.2923,-2.2926,-3.7957,-3.8192,-3.8355,-3.7942,-3.7234,-3.7302,-3.7195,-3.6941,-3.6866,-3.5922,-3.4407,-3.3762,-3.2686,-3.1454,-3.1289,-3.1159,-3.095,-3.0986,-3.0986,-3.0986,-3.0773,-3.0698,-3.0711,-3.0533,-3.0368,-3.0368,-3.0292,-3.0368,-3.0292,-3.0228,-3.0292,-3.0173,-2.9957,-2.93,-2.8952,-2.8182,-2.7429,-2.6775,-2.6218,-2.5812,-2.5738,-2.5644,-2.5559,-2.538,-2.5285,-2.5285,-2.538,-2.5559,-2.5654,-2.5822,-2.5968,-2.629,-2.6528,-2.6775,-2.7103,-2.7534,-2.7452,-2.7545,-2.78,-2.8122,-2.8271,-2.8431,-2.851,-2.859,-2.8657,-2.8657,-2.8657,-2.8657,-2.8578,-2.8578,-2.8573,-2.8367,-2.8215,-2.7815,-2.7245,-2.6796,-2.6251,-2.5875,-2.5606,-2.577,-2.5923,-2.5992,-2.6062,-2.6119,-2.5968,-2.5791,-2.5383,-2.4742,-2.3827,-2.2905,-2.2623,-2.2342,-2.1874,-2.1612,-2.1726,-2.1776,-2.1726,-2.1788,-2.1987,-2.1788,-2.121,-2.0816,-2.0335,-1.9671,-1.9253,-1.954,-2.0147,-2.0764,-2.1342,-2.2163,-2.2967,-2.3216,-2.3377,-2.3423,-2.3225,-3.6739,-3.6836,-3.7201,-3.695,-3.6362,-3.6576,-3.6507,-3.6267,-3.6023,-3.5213,-3.402,-3.303,-3.1909,-3.1048,-3.095,-3.095,-3.0773,-3.0898,-3.0986,-3.0911,-3.0761,-3.0609,-3.0533,-3.0368,-3.0228,-3.0305,-3.0088,-3.0152,-3.0292,-3.0394,-3.0292,-2.9917,-3.0276,-2.9902,-2.8974,-2.8277,-2.7696,-2.6704,-2.6052,-2.5728,-2.5644,-2.5475,-2.538,-2.52,-2.52,-2.52,-2.5295,-2.5475,-2.557,-2.5968,-2.6207,-2.6528,-2.6951,-2.7278,-2.7615,-2.795,-2.795,-2.795,-2.8122,-2.8283,-2.8431,-2.851,-2.859,-2.8657,-2.8724,-2.8803,-2.8803,-2.8803,-2.8578,-2.859,-2.8481,-2.8198,-2.8045,-2.7697,-2.7113,-2.6712,-2.6311,-2.5885,-2.5618,-2.5688,-2.584,-2.605,-2.6119,-2.6258,-2.6164,-2.5894,-2.535,-2.464,-2.3622,-2.2496,-2.2123,-2.1999,-2.1675,-2.1348,-2.1273,-2.14,-2.1463,-2.1651,-2.1851,-2.1588,-2.088,-2.0466,-2.004,-1.9266,-1.8484,-1.8913,-1.9735,-2.0517,-2.1308,-2.2104,-2.2905,-2.3506,-2.3786,-2.3833,-2.3634,-3.6576,-3.5412,-3.4845,-3.5398,-3.6291,-3.5058,-3.4971,-3.5574,-3.4875,-3.421,-3.3311,-3.1955,-3.1334,-3.0973,-3.0986,-3.0986,-3.0986,-3.0986,-3.0986,-3.0836,-3.0672,-3.0444,-3.0292,-3.0075,-2.9856,-2.9856,-2.9856,-3.0011,-3.0152,-3.0368,-3.074,-3.1177,-3.0662,-2.996,-2.9133,-2.8327,-2.7295,-2.6368,-2.5812,-2.5728,-2.5475,-2.5295,-2.5126,-2.52,-2.5115,-2.5115,-2.5559,-2.5644,-2.5884,-2.629,-2.661,-2.7021,-2.7534,-2.7777,-2.8111,-2.8351,-2.8351,-2.8351,-2.8431,-2.8431,-2.851,-2.859,-2.8657,-2.8724,-2.8803,-2.8803,-2.8803,-2.8767,-2.8493,-2.8481,-2.844,-2.8186,-2.7642,-2.7267,-2.6772,-2.6287,-2.5949,-2.579,-2.556,-2.5618,-2.5758,-2.5898,-2.5968,-2.6037,-2.6037,-2.5779,-2.4993,-2.4274,-2.3287,-2.2313,-2.1926,-2.1663,-2.1348,-2.1094,-2.0828,-2.0892,-2.121,-2.1273,-2.1463,-2.0944,-2.0291,-1.9965,-1.9663,-1.9046,-1.8449,-1.8872,-1.9412,-2.0525,-2.1498,-2.2163,-2.284,-2.3634,-2.3996,-2.3983,-2.3899,-3.5314,-3.4771,-3.4061,-3.4257,-3.5177,-3.509,-3.5198,-3.5424,-3.5133,-3.4341,-3.3157,-3.216,-3.1394,-3.1123,-3.0986,-3.0986,-3.0986,-3.0986,-3.0911,-3.0761,-3.0533,-3.0368,-3.0152,-3.0011,-2.9779,-2.9792,-2.9792,-3.0011,-3.0292,-3.0368,-3.0674,-3.0867,-3.0714,-3.0251,-2.9468,-2.8175,-2.6967,-2.6234,-2.5812,-2.5728,-2.5559,-2.5475,-2.5295,-2.52,-2.538,-2.538,-2.5644,-2.5968,-2.6279,-2.661,-2.7185,-2.7684,-2.8018,-2.8259,-2.8498,-2.8657,-2.8578,-2.851,-2.851,-2.851,-2.851,-2.851,-2.8657,-2.8779,-2.8755,-2.8791,-2.8791,-2.8639,-2.8313,-2.8252,-2.8047,-2.736,-2.661,-2.6576,-2.6347,-2.5877,-2.5636,-2.561,-2.5489,-2.5535,-2.5618,-2.5758,-2.5758,-2.5816,-2.5758,-2.5627,-2.4747,-2.3821,-2.2965,-2.2145,-2.1794,-2.1412,-2.1103,-2.1084,-2.0837,-2.0888,-2.1065,-2.1088,-2.1111,-2.0509,-1.9943,-1.9452,-1.9168,-1.8616,-1.8545,-1.8877,-1.9645,-2.0889,-2.1629,-2.1969,-2.2849,-2.3887,-2.408,-2.4218,-2.4097,-3.4786,-3.4707,-3.4257,-3.4296,-3.4662,-3.4986,-3.5294,-3.5424,-3.5213,-3.4274,-3.2875,-3.2304,-3.1663,-3.1185,-3.0986,-3.0986,-3.0986,-3.0986,-3.0911,-3.0761,-3.0533,-3.0368,-3.0152,-2.9934,-2.9779,-2.9792,-2.9946,-3.0088,-3.0368,-3.0444,-3.047,-3.0546,-3.0508,-2.9973,-2.9028,-2.773,-2.6467,-2.6063,-2.5812,-2.5738,-2.557,-2.5475,-2.5475,-2.5295,-2.5475,-2.5717,-2.5968,-2.629,-2.6682,-2.7185,-2.7684,-2.8167,-2.8498,-2.8657,-2.8803,-2.8724,-2.8657,-2.851,-2.851,-2.851,-2.851,-2.851,-2.8736,-2.8718,-2.8633,-2.8682,-2.8755,-2.8499,-2.8161,-2.7921,-2.7873,-2.7356,-2.6959,-2.6995,-2.6238,-2.5817,-2.5685,-2.5599,-2.5479,-2.5465,-2.5535,-2.5548,-2.5535,-2.5511,-2.5366,-2.5305,-2.48,-2.385,-2.2781,-2.2133,-2.1647,-2.1255,-2.0928,-2.0984,-2.1029,-2.1152,-2.1319,-2.1329,-2.1163,-2.0379,-1.986,-1.9354,-1.8924,-1.8656,-1.873,-1.9014,-1.9807,-2.0873,-2.1311,-2.1658,-2.2765,-2.408,-2.4623,-2.4711,-2.4398,-3.5444,-3.5474,-3.5379,-3.5394,-3.5279,-3.4677,-3.4824,-3.5359,-3.4758,-3.3616,-3.2434,-3.2146,-3.1663,-3.1123,-3.0986,-3.0986,-3.0986,-3.0986,-3.0911,-3.0836,-3.052,-3.0355,-3.0228,-3.0011,-2.9792,-2.9869,-3.0011,-3.0152,-3.0444,-3.0368,-3.0203,-2.9871,-2.9626,-2.9147,-2.8347,-2.6764,-2.5979,-2.5895,-2.5738,-2.5654,-2.5644,-2.5549,-2.5464,-2.5559,-2.5728,-2.5968,-2.629,-2.6622,-2.7115,-2.7777,-2.8099,-2.8498,-2.8895,-2.8803,-2.8803,-2.8803,-2.8657,-2.851,-2.851,-2.851,-2.851,-2.851,-2.8645,-2.8579,-2.8341,-2.8439,-2.8603,-2.8228,-2.818,-2.8294,-2.821,-2.7921,-2.7536,-2.714,-2.6382,-2.5961,-2.5853,-2.5889,-2.5901,-2.5551,-2.536,-2.5336,-2.5324,-2.5252,-2.5035,-2.4855,-2.4626,-2.3871,-2.2916,-2.2325,-2.197,-2.1695,-2.1375,-2.1252,-2.1453,-2.1515,-2.1545,-2.1616,-2.1169,-2.0211,-1.9687,-1.9336,-1.9013,-1.8762,-1.9023,-1.9404,-2.0078,-2.0803,-2.1625,-2.2517,-2.3235,-2.423,-2.4831,-2.5061,-2.4701,-3.5489,-3.5489,-3.5489,-3.5489,-3.5424,-3.5213,-3.5279,-3.5359,-3.461,-3.3754,-3.2861,-3.2376,-3.1676,-3.1198,-3.0986,-3.0986,-3.0986,-3.0986,-3.0911,-3.0596,-3.0444,-3.0228,-3.0011,-2.9934,-2.9869,-3.0011,-3.0075,-3.0305,-3.0609,-3.0216,-2.996,-2.9549,-2.8597,-2.7879,-2.7418,-2.6467,-2.5979,-2.6218,-2.6052,-2.5884,-2.6124,-2.5874,-2.5728,-2.5822,-2.6052,-2.629,-2.661,-2.7033,-2.7626,-2.8111,-2.8339,-2.8645,-2.8882,-2.8803,-2.8791,-2.8724,-2.8578,-2.851,-2.851,-2.851,-2.851,-2.851,-2.8554,-2.856,-2.8361,-2.8445,-2.8354,-2.804,-2.7932,-2.7901,-2.7537,-2.7311,-2.7064,-2.7091,-2.661,-2.6358,-2.625,-2.6418,-2.6394,-2.5805,-2.5504,-2.5432,-2.5396,-2.5336,-2.5131,-2.4987,-2.4807,-2.4384,-2.3529,-2.312,-2.2733,-2.2465,-2.2207,-2.1935,-2.1862,-2.1767,-2.1325,-2.1066,-2.0544,-1.9748,-1.9371,-1.9304,-1.9222,-1.9043,-1.9434,-1.987,-2.0629,-2.1502,-2.2628,-2.3537,-2.4139,-2.4542,-2.5011,-2.5075,-2.4767,-3.5067,-3.5118,-3.5359,-3.5355,-3.522,-3.54,-3.5489,-3.5344,-3.4677,-3.3905,-3.3157,-3.2448,-3.1676,-3.1198,-3.0986,-3.0986,-3.0986,-3.0911,-3.0836,-3.052,-3.0292,-3.0152,-2.9998,-2.9856,-2.9998,-3.0075,-3.0305,-3.0457,-3.0609,-2.9883,-2.9238,-2.8518,-2.7499,-2.694,-2.6539,-2.6302,-2.6207,-2.6362,-2.6207,-2.6207,-2.629,-2.6135,-2.5979,-2.6135,-2.6373,-2.661,-2.7033,-2.7534,-2.8042,-2.8191,-2.8498,-2.8724,-2.8724,-2.8645,-2.8474,-2.8407,-2.8339,-2.8271,-2.8283,-2.8431,-2.851,-2.851,-2.851,-2.8335,-2.8207,-2.8128,-2.7829,-2.754,-2.749,-2.7387,-2.7191,-2.699,-2.7162,-2.7126,-2.7076,-2.6824,-2.6647,-2.6815,-2.6635,-2.6057,-2.5673,-2.5588,-2.5432,-2.5372,-2.5252,-2.5143,-2.5023,-2.4598,-2.4176,-2.38,-2.3325,-2.304,-2.2822,-2.2495,-2.2122,-2.1865,-2.1345,-2.0624,-2.003,-1.9535,-1.9362,-1.9407,-1.936,-1.9385,-1.9678,-2.0187,-2.1241,-2.2232,-2.3151,-2.4035,-2.4849,-2.5168,-2.5312,-2.511,-2.4885,-3.4298,-3.4351,-3.5103,-3.507,-3.4666,-3.5096,-3.5365,-3.5424,-3.4691,-3.3905,-3.3143,-3.2434,-3.1663,-3.1123,-3.0986,-3.0986,-3.0986,-3.0849,-3.0685,-3.0533,-3.0305,-3.0152,-3.0075,-3.0088,-3.0075,-3.0228,-3.0394,-3.0609,-3.0609,-2.9716,-2.8676,-2.7406,-2.6539,-2.6218,-2.6135,-2.629,-2.6362,-2.6445,-2.6445,-2.6445,-2.6362,-2.6135,-2.6052,-2.6207,-2.6528,-2.6857,-2.729,-2.7719,-2.8111,-2.8327,-2.8633,-2.8566,-2.8419,-2.8259,-2.7926,-2.7684,-2.7788,-2.7788,-2.7881,-2.8191,-2.8271,-2.8259,-2.8351,-2.7973,-2.7652,-2.7761,-2.7428,-2.7129,-2.7048,-2.7117,-2.7128,-2.7358,-2.7505,-2.751,-2.7544,-2.7311,-2.7028,-2.6935,-2.6781,-2.6407,-2.5985,-2.5745,-2.5503,-2.5394,-2.5312,-2.5334,-2.5155,-2.4895,-2.4576,-2.4412,-2.399,-2.349,-2.3217,-2.2861,-2.2524,-2.1956,-2.1435,-2.0787,-2.0173,-1.9698,-1.9609,-1.9512,-1.9482,-1.9561,-1.9824,-2.0466,-2.1515,-2.2467,-2.343,-2.4288,-2.4886,-2.5241,-2.5253,-2.5312,-2.5193,-3.4051,-3.3754,-3.45,-3.4651,-3.4454,-3.4233,-3.4573,-3.5329,-3.4677,-3.3891,-3.3157,-3.2434,-3.1676,-3.1061,-3.0986,-3.0986,-3.0986,-3.0911,-3.0672,-3.0533,-3.0381,-3.0152,-3.0075,-3.0075,-3.0152,-3.0381,-3.0533,-3.0773,-3.052,-2.9614,-2.7959,-2.6467,-2.6146,-2.5979,-2.6052,-2.629,-2.6445,-2.6528,-2.6528,-2.6528,-2.6362,-2.6135,-2.6135,-2.6218,-2.6693,-2.7021,-2.7115,-2.7626,-2.7857,-2.7672,-2.7672,-2.7592,-2.7592,-2.751,-2.7348,-2.7348,-2.736,-2.7441,-2.7452,-2.7788,-2.795,-2.7777,-2.7869,-2.8018,-2.7752,-2.7394,-2.7105,-2.6803,-2.6699,-2.6812,-2.6857,-2.7058,-2.7348,-2.7485,-2.7481,-2.7542,-2.7323,-2.7418,-2.7208,-2.6516,-2.6105,-2.578,-2.555,-2.5312,-2.5312,-2.5382,-2.5334,-2.5097,-2.4955,-2.4789,-2.4366,-2.3858,-2.339,-2.3043,-2.236,-2.1793,-2.139,-2.0921,-2.0348,-1.9922,-1.9717,-1.9609,-1.96,-1.9756,-1.9954,-2.0711,-2.1683,-2.2574,-2.318,-2.3801,-2.4406,-2.4897,-2.5182,-2.5182,-2.5253,-3.2819,-3.2973,-3.351,-3.3824,-3.3829,-3.2846,-3.3057,-3.401,-3.3411,-3.2765,-3.2387,-3.1834,-3.1394,-3.1048,-3.0986,-3.0986,-3.0986,-3.0911,-3.0761,-3.0609,-3.0444,-3.0292,-3.0139,-3.0228,-3.0394,-3.0533,-3.0685,-3.0911,-3.0508,-2.9303,-2.7637,-2.6622,-2.6146,-2.5906,-2.6063,-2.629,-2.6445,-2.6528,-2.6528,-2.6528,-2.6362,-2.6135,-2.6063,-2.6218,-2.6775,-2.6775,-2.6775,-2.7452,-2.736,-2.7115,-2.7115,-2.6951,-2.6775,-2.661,-2.6622,-2.6622,-2.6869,-2.6869,-2.7033,-2.736,-2.736,-2.7278,-2.729,-2.7278,-2.7278,-2.6987,-2.6682,-2.634,-2.6517,-2.6622,-2.661,-2.661,-2.6951,-2.7278,-2.7452,-2.7624,-2.7853,-2.8024,-2.7454,-2.6647,-2.6166,-2.5828,-2.5598,-2.5455,-2.5312,-2.5465,-2.5465,-2.5276,-2.5169,-2.5133,-2.4649,-2.4054,-2.3582,-2.3125,-2.236,-2.1538,-2.1165,-2.0857,-2.0594,-2.0156,-1.9873,-1.9873,-2.0019,-2.0051,-2.0187,-2.0804,-2.1375,-2.2124,-2.2809,-2.3361,-2.3977,-2.458,-2.4895,-2.4909,-2.4981,-3.1143,-3.2075,-3.2392,-3.2864,-3.297,-3.1368,-3.1265,-3.2036,-3.135,-3.1124,-3.1172,-3.1016,-3.0957,-3.096,-3.0986,-3.0986,-3.0986,-3.0836,-3.0773,-3.0698,-3.0533,-3.0368,-3.0368,-3.0546,-3.0622,-3.0773,-3.0836,-3.0823,-3.0343,-2.9225,-2.7959,-2.7174,-2.6302,-2.5895,-2.5979,-2.6207,-2.6362,-2.6373,-2.6445,-2.6528,-2.6528,-2.629,-2.6124,-2.6445,-2.661,-2.6693,-2.6928,-2.7021,-2.7033,-2.688,-2.6727,-2.6467,-2.6124,-2.5874,-2.5895,-2.5979,-2.6302,-2.629,-2.6445,-2.6775,-2.694,-2.6857,-2.6693,-2.661,-2.661,-2.6539,-2.6302,-2.6135,-2.6218,-2.6218,-2.6218,-2.629,-2.6539,-2.6787,-2.6987,-2.729,-2.7626,-2.7749,-2.7466,-2.6808,-2.6612,-2.6275,-2.6105,-2.5985,-2.5708,-2.5646,-2.5465,-2.5324,-2.5182,-2.5182,-2.4671,-2.4059,-2.3537,-2.2883,-2.1832,-2.1165,-2.0876,-2.0624,-2.0508,-2.0342,-2.0019,-2.0185,-2.0411,-2.0314,-2.0198,-2.0391,-2.0914,-2.1593,-2.222,-2.281,-2.3453,-2.4186,-2.4522,-2.4615,-2.4813,-3.0992,-3.096,-3.2035,-3.2326,-3.184,-3.0956,-3.0327,-3.0117,-2.9373,-2.988,-3.0899,-3.0619,-3.0594,-3.0882,-3.0908,-3.0921,-3.0986,-3.0911,-3.0849,-3.0761,-3.0609,-3.0596,-3.0444,-3.0685,-3.0698,-3.0773,-3.0761,-3.0659,-3.0101,-2.9057,-2.8039,-2.7267,-2.6467,-2.6063,-2.5895,-2.6135,-2.6135,-2.6218,-2.6373,-2.6693,-2.6857,-2.694,-2.6857,-2.6775,-2.6693,-2.661,-2.661,-2.6539,-2.629,-2.6063,-2.5979,-2.5812,-2.5644,-2.5728,-2.5728,-2.5738,-2.5833,-2.5801,-2.5779,-2.603,-2.6185,-2.6207,-2.6124,-2.6124,-2.6124,-2.6052,-2.6063,-2.5979,-2.5895,-2.5895,-2.5895,-2.6052,-2.6124,-2.6362,-2.661,-2.694,-2.7278,-2.738,-2.7368,-2.7198,-2.7007,-2.6781,-2.659,-2.6324,-2.6142,-2.5888,-2.5515,-2.5253,-2.4981,-2.4778,-2.4162,-2.3626,-2.3338,-2.2585,-2.1471,-2.0867,-2.0644,-2.0576,-2.0547,-2.0371,-2.0166,-2.012,-2.011,-2.0216,-2.0235,-2.0245,-2.0382,-2.0914,-2.1471,-2.2132,-2.3069,-2.3863,-2.4234,-2.4284,-2.4533,-3.0206,-3.0495,-3.1238,-3.1419,-3.0897,-3.0037,-2.9354,-2.896,-2.8315,-2.8752,-2.9851,-2.9855,-3.0072,-3.0555,-3.0607,-3.0843,-3.0934,-3.0986,-3.0911,-3.0836,-3.0836,-3.0761,-3.0761,-3.0761,-3.0836,-3.0849,-3.0911,-3.0659,-3.0101,-2.9381,-2.8597,-2.7742,-2.694,-2.6218,-2.5979,-2.5895,-2.5979,-2.6218,-2.6373,-2.6693,-2.7092,-2.7103,-2.694,-2.6764,-2.661,-2.6456,-2.6218,-2.6135,-2.5884,-2.5549,-2.538,-2.5679,-2.5764,-2.5773,-2.5806,-2.5838,-2.5732,-2.5475,-2.5369,-2.5359,-2.5527,-2.5622,-2.5728,-2.5801,-2.5884,-2.5812,-2.5979,-2.5895,-2.5895,-2.5895,-2.5895,-2.5979,-2.6052,-2.6135,-2.6207,-2.6456,-2.6857,-2.7128,-2.7205,-2.7155,-2.6913,-2.6647,-2.6304,-2.5722,-2.5557,-2.5488,-2.5193,-2.4849,-2.4634,-2.4273,-2.366,-2.3088,-2.2713,-2.1993,-2.0944,-2.0566,-2.0489,-2.0498,-2.0566,-2.0411,-2.0207,-1.9918,-1.9869,-1.9934,-1.9951,-1.9784,-2.0001,-2.0382,-2.0847,-2.1492,-2.2541,-2.3573,-2.3818,-2.4172,-2.4579,-2.9281,-3.0361,-3.0606,-3.0524,-3.0171,-2.9151,-2.8569,-2.8247,-2.7758,-2.7811,-2.8444,-2.8887,-2.9418,-2.9954,-3.009,-3.0555,-3.083,-3.096,-3.0986,-3.0986,-3.0986,-3.0911,-3.0911,-3.0986,-3.0986,-3.0986,-3.0986,-3.0986,-3.0823,-2.9793,-2.8834,-2.8267,-2.7487,-2.661,-2.6135,-2.5895,-2.5979,-2.6207,-2.6445,-2.6693,-2.694,-2.7174,-2.6928,-2.6682,-2.6445,-2.6279,-2.6052,-2.5812,-2.5633,-2.5464,-2.5221,-2.5551,-2.5808,-2.5914,-2.5861,-2.5904,-2.5776,-2.5434,-2.5158,-2.5031,-2.5115,-2.52,-2.5391,-2.5559,-2.5644,-2.5728,-2.5895,-2.5895,-2.5895,-2.5895,-2.5895,-2.5895,-2.5895,-2.5979,-2.5979,-2.6052,-2.6528,-2.6835,-2.6956,-2.703,-2.6913,-2.6581,-2.6178,-2.5581,-2.5182,-2.5033,-2.4756,-2.4407,-2.3993,-2.3615,-2.3045,-2.2391,-2.1828,-2.1118,-2.042,-2.0255,-2.0264,-2.0333,-2.0333,-2.0333,-2.0235,-1.9915,-1.974,-1.965,-1.9636,-1.9548,-1.9539,-1.9835,-2.0391,-2.0934,-2.2172,-2.3223,-2.3842,-2.4165,-2.4799,-2.9044,-3.0683,-3.1273,-3.0865,-2.9735,-2.9373,-2.878,-2.7987,-2.7655,-2.7668,-2.7919,-2.7983,-2.8621,-3.0064,-3.0064,-3.0451,-3.0908,-3.0986,-3.0986,-3.0986,-3.1061,-3.0986,-3.0986,-3.0986,-3.0986,-3.0986,-3.0986,-3.0986,-3.0823,-2.9549,-2.8585,-2.8347,-2.6846,-2.6218,-2.6063,-2.5895,-2.5979,-2.6135,-2.6279,-2.6528,-2.6693,-2.6775,-2.6857,-2.6693,-2.6528,-2.6207,-2.5979,-2.5895,-2.5738,-2.5559,-2.5486,-2.5572,-2.5818,-2.6055,-2.6001,-2.5787,-2.5669,-2.5305,-2.5018,-2.4817,-2.4786,-2.4956,-2.5211,-2.538,-2.5549,-2.5812,-2.5895,-2.5895,-2.5895,-2.5895,-2.5895,-2.5895,-2.5895,-2.5895,-2.5979,-2.6135,-2.6445,-2.6599,-2.664,-2.6874,-2.6921,-2.6771,-2.6553,-2.5973,-2.534,-2.507,-2.465,-2.4194,-2.3356,-2.2928,-2.2434,-2.1737,-2.1005,-2.085,-2.0528,-2.0096,-2.002,-2.002,-2.002,-2.002,-1.9951,-1.9794,-1.9636,-1.9557,-1.9469,-1.9381,-1.945,-1.9529,-1.9844,-2.0576,-2.182,-2.2848,-2.3545,-2.4352,-2.5033]},{"header":{"parameterUnit":"m.s-1","parameterCategory":1,"la1":31.0,"la2":29.5877,"lo1":-88.7671,"lo2":-86.6584,"dy":0.0162,"dx":0.0185,"nx":115,"ny":88,"refTime":"2023-07-13T06:00:00:Z","depth":0,"parameterNumber":3,"parameterNumberName":"V-component_of_WINDS"},"data":[0.0,0.0,0.0,0.0,0.0,0.0,0.0,0.0,0.0,0.0,0.0,0.0,0.0,0.0,0.0,0.0,0.0,0.0,0.0,0.0,0.0,0.0,0.0,0.0,0.0,0.0,0.0,0.0,0.0,0.0,0.0,0.0,0.0,0.0,0.0,0.0,0.0,0.0,0.0,0.0,0.0,0.0,0.0,0.0,0.0,0.0,0.0,0.0,0.0,0.0,0.0,0.0,0.0,0.0,0.0,0.0,0.0,0.0,0.0,0.0,0.0,0.0,0.0,0.0,0.0,0.0,0.0,0.0,0.0,0.0,0.0,0.0,0.0,0.0,0.0,0.0,0.0,0.0,0.0,0.0,0.0,0.0,0.0,0.0,0.0,0.0,0.0,0.0,0.0,0.0,0.0,0.0,0.0,0.0,0.0,0.0,0.0,0.0,0.0,0.0,0.0,0.0,0.0,0.0,0.0,0.0,0.0,0.0,0.0,0.0,0.0,0.0,0.0,0.0,0.0,0.0,0.0,0.0,0.0,0.0,0.0,0.0,0.0,0.0,0.0,0.0,0.0,0.0,0.0,0.0,0.0,0.0,0.0,0.0,0.0,0.0,0.0,0.0,0.0,0.0,0.0,0.0,0.0,0.0,0.0,0.0,0.0,0.0,0.0,0.0,0.0,0.0,0.0,0.0,0.0,0.0,0.0,0.0,0.0,0.0,0.0,0.0,0.0,0.0,0.0,0.0,0.0,0.0,0.0,0.0,0.0,0.0,0.0,0.0,0.0,0.0,0.0,0.0,0.0,0.0,0.0,0.0,0.0,0.0,0.0,0.0,0.0,0.0,0.0,0.0,0.0,0.0,0.0,0.0,0.0,0.0,0.0,0.0,0.0,0.0,0.0,0.0,0.0,0.0,0.0,0.0,0.0,0.0,0.0,0.0,0.0,0.0,0.0,0.0,0.0,0.0,0.0,0.0,0.0,0.0,0.0,0.0,0.0,0.0,0.0,0.0,0.0,0.0,0.0,0.0,0.0,0.0,0.0,0.0,0.0,0.0,0.0,0.0,0.0,0.0,0.0,0.0,0.0,0.0,0.0,0.0,0.0,0.0,0.0,0.0,0.0,0.0,0.0,0.0,0.0,0.0,0.0,0.0,0.0,0.0,0.0,0.0,0.0,0.0,0.0,0.0,0.0,0.0,0.0,0.0,0.0,0.0,0.0,0.0,0.0,0.0,0.0,0.0,0.0,0.0,0.0,0.0,0.0,0.0,0.0,0.0,0.0,0.0,0.0,0.0,0.0,0.0,0.0,0.0,0.0,0.0,0.0,0.0,0.0,0.0,0.0,0.0,0.0,0.0,0.0,0.0,0.0,0.0,0.0,0.0,0.0,0.0,0.0,0.0,0.0,0.0,0.0,0.0,0.0,0.0,0.0,0.0,0.0,0.0,0.0,0.0,0.0,0.0,0.0,0.0,0.0,0.0,0.0,0.0,0.0,0.0,0.0,0.0,0.0,0.0,0.0,0.0,0.0,0.0,0.0,0.0,0.0,0.0,0.0,0.0,0.0,0.0,0.0,0.0,0.0,0.0,0.0,0.0,0.0,0.0,0.0,0.0,0.0,0.0,0.0,0.0,0.0,0.0,0.0,0.0,0.0,0.0,0.0,0.0,0.0,0.0,0.0,0.0,0.0,0.0,0.0,0.0,0.0,0.0,0.0,0.0,0.0,0.0,0.0,0.0,0.0,0.0,0.0,0.0,0.0,0.0,0.0,0.0,0.0,0.0,0.0,0.0,0.0,0.0,0.0,0.0,0.0,0.0,0.0,0.0,0.0,0.0,0.0,0.0,0.0,0.0,0.0,0.0,0.0,0.0,0.0,0.0,0.0,0.0,0.0,0.0,0.0,0.0,0.0,0.0,0.0,0.0,0.0,0.0,0.0,0.0,0.0,0.0,0.0,0.0,0.0,0.0,0.0,0.0,0.0,0.0,0.0,0.0,0.0,0.0,0.0,0.0,0.0,0.0,0.0,0.0,0.0,0.0,0.0,0.0,0.0,0.0,0.0,0.0,0.0,0.0,0.0,0.0,0.0,0.0,0.0,0.0,0.0,0.0,0.0,0.0,0.0,0.0,0.0,0.0,0.0,0.0,0.0,0.0,0.0,0.0,0.0,0.0,0.0,0.0,0.0,0.0,0.0,0.0,0.0,0.0,0.0,0.0,0.0,0.0,0.0,0.0,0.0,0.0,0.0,0.0,0.0,0.0,0.0,0.0,0.0,0.0,0.0,0.0,0.0,0.0,0.0,0.0,0.0,0.0,0.0,0.0,0.0,0.0,0.0,0.0,0.0,0.0,0.0,0.0,0.0,0.0,0.0,0.0,0.0,0.0,0.0,0.0,0.0,0.0,0.0,0.0,0.0,0.0,0.0,0.0,0.0,0.0,0.0,0.0,0.0,0.0,0.0,0.0,0.0,0.0,0.0,0.0,0.0,0.0,0.0,0.0,0.0,0.0,0.0,0.0,0.0,0.0,0.0,0.0,0.0,0.0,0.0,0.0,0.0,0.0,0.0,0.0,0.0,0.0,0.0,0.0,0.0,0.0,0.0,0.0,0.0,0.0,0.0,0.0,0.0,0.0,0.0,0.0,0.0,0.0,0.0,0.0,0.0,0.0,0.0,0.0,0.0,0.0,0.0,0.0,0.0,0.0,0.0,0.0,0.0,0.0,0.0,0.0,0.0,0.0,0.0,0.0,0.0,0.0,0.0,0.0,0.0,0.0,0.0,0.0,0.0,0.0,0.0,0.0,0.0,0.0,0.0,0.0,0.0,0.0,0.0,0.0,0.0,0.0,0.0,0.0,0.0,0.0,0.0,0.0,0.0,0.0,0.0,0.0,0.0,0.0,0.0,0.0,0.0,0.0,0.0,0.0,0.0,0.0,0.0,0.0,0.0,0.0,0.0,0.0,0.0,0.0,0.0,0.0,0.0,0.0,0.0,0.0,0.0,0.0,0.0,0.0,0.0,0.0,0.0,0.0,0.0,0.0,0.0,0.0,0.0,0.0,0.0,0.0,0.0,0.0,0.0,0.0,0.0,0.0,0.0,0.0,0.0,0.0,0.0,0.0,0.0,0.0,0.0,0.0,0.0,0.0,0.0,0.0,0.0,0.0,0.0,0.0,0.0,0.0,0.0,0.0,0.0,0.0,0.0,0.0,0.0,0.0,0.0,0.0,0.0,0.0,0.0,0.0,0.0,0.0,0.0,0.0,0.0,0.0,0.0,0.0,0.0,0.0,0.0,0.0,0.0,0.0,0.0,0.0,0.0,0.0,0.0,0.0,0.0,0.0,0.0,0.0,0.0,0.0,0.0,0.0,0.0,0.0,0.0,0.0,0.0,0.0,0.0,0.0,0.0,0.0,0.0,0.0,0.0,0.0,0.0,0.0,0.0,0.0,0.0,0.0,0.0,0.0,0.0,0.0,0.0,0.0,0.0,0.0,0.0,0.0,0.0,0.0,0.0,0.0,0.0,0.0,0.0,0.0,0.0,0.0,0.0,0.0,0.0,0.0,0.0,0.0,0.0,0.0,0.0,0.0,0.0,0.0,0.0,0.0,0.0,0.0,0.0,0.0,0.0,0.0,0.0,0.0,0.0,0.0,0.0,0.0,0.0,0.0,0.0,0.0,0.0,0.0,0.0,0.0,0.0,0.0,0.0,0.0,0.0,0.0,0.0,0.0,0.0,0.0,0.0,0.0,0.0,0.0,0.0,0.0,0.0,0.0,0.0,0.0,0.0,0.0,0.0,0.0,0.0,0.0,0.0,0.0,0.0,0.0,0.0,0.0,0.0,0.0,0.0,0.0,0.0,0.0,0.0,0.0,0.0,0.0,0.0,0.0,0.0,0.0,0.0,0.0,0.0,0.0,0.0,0.0,0.0,0.0,0.0,0.0,0.0,0.0,0.0,0.0,0.0,0.0,0.0,0.0,0.0,0.0,0.0,0.0,0.0,0.0,0.0,0.0,0.0,0.0,0.0,0.0,0.0,0.0,0.0,0.0,0.0,0.0,0.0,0.0,0.0,0.0,0.0,0.0,0.0,0.0,0.0,0.0,0.0,0.0,0.0,0.0,0.0,0.0,0.0,0.0,0.0,0.0,0.0,0.0,0.0,0.0,0.0,0.0,0.0,0.0,0.0,0.0,0.0,0.0,0.0,0.0,0.0,0.0,0.0,0.0,0.0,0.0,0.0,0.0,0.0,0.0,0.0,0.0,0.0,0.0,0.0,0.0,0.0,0.0,-0.7655,0.0,0.0,0.0,0.0,0.0,0.0,0.0,0.0,0.0,0.0,0.0,0.0,0.0,0.0,0.0,0.0,0.0,0.0,0.0,0.0,0.0,0.0,0.0,0.0,0.0,0.0,0.0,0.0,0.0,0.0,0.0,0.0,0.0,0.0,0.0,0.0,0.0,0.0,0.0,0.0,0.0,0.0,0.0,0.0,0.0,0.0,0.0,0.0,0.0,0.0,0.0,0.0,0.0,0.0,0.0,0.0,0.0,0.0,0.0,0.0,0.0,0.0,0.0,0.0,0.0,0.0,0.0,0.0,0.0,0.0,0.0,0.0,0.0,0.0,0.0,0.0,0.0,0.0,0.0,0.0,0.0,0.0,0.0,0.0,0.0,0.0,0.0,0.0,0.0,0.0,0.0,0.0,0.0,0.0,0.0,0.0,0.0,0.0,0.0,0.0,0.0,0.0,0.0,0.0,0.0,0.0,0.0,0.0,0.0,0.0,-1.1473,-0.8546,-0.8192,-0.7683,-0.6891,0.0,0.0,0.0,0.0,0.0,0.0,0.0,0.0,0.0,0.0,0.0,0.0,0.0,0.0,0.0,0.0,0.0,0.0,0.0,0.0,0.0,0.0,0.0,0.0,0.0,0.0,0.0,0.0,0.0,0.0,0.0,0.0,0.0,0.0,0.0,0.0,0.0,0.0,0.0,0.0,0.0,0.0,0.0,0.0,0.0,0.0,0.0,0.0,0.0,0.0,0.0,0.0,0.0,0.0,0.0,0.0,0.0,0.0,0.0,0.0,0.0,0.0,0.0,0.0,0.0,0.0,0.0,0.0,0.0,0.0,0.0,0.0,0.0,0.0,0.0,0.0,0.0,0.0,0.0,0.0,0.0,0.0,0.0,0.0,0.0,0.0,0.0,0.0,0.0,0.0,0.0,0.0,0.0,0.0,0.0,0.0,0.0,0.0,0.0,0.0,0.0,0.0,0.0,0.0,0.0,0.0,0.0,0.0,0.0,0.0,0.0,0.0,-0.93,-0.8225,-0.7213,0.0,0.0,0.0,0.0,0.0,0.0,0.0,0.0,0.0,0.0,0.0,0.0,0.0,0.0,0.0,0.0,0.0,0.0,0.0,0.0,0.0,0.0,0.0,0.0,0.0,0.0,0.0,0.0,0.0,0.0,0.0,0.0,0.0,0.0,0.0,0.0,0.0,0.0,0.0,0.0,0.0,0.0,0.0,0.0,0.0,0.0,0.0,0.0,0.0,0.0,0.0,0.0,0.0,0.0,0.0,0.0,0.0,0.0,0.0,0.0,0.0,0.0,0.0,0.0,0.0,0.0,0.0,0.0,0.0,0.0,0.0,0.0,0.0,0.0,0.0,0.0,0.0,0.0,0.0,0.0,0.0,0.0,0.0,0.0,0.0,0.0,0.0,0.0,0.0,0.0,0.0,0.0,0.0,0.0,0.0,0.0,0.0,0.0,0.0,0.0,0.0,0.0,0.0,0.0,0.0,0.0,0.0,0.0,0.0,0.0,-1.3933,-1.388,-1.1288,0.0,-0.9461,0.0,0.0,0.0,0.0,0.0,0.0,0.0,0.0,0.0,0.0,0.0,0.0,0.0,0.0,0.0,0.0,0.0,0.0,0.0,0.0,0.0,0.0,0.0,0.0,0.0,0.0,0.0,0.0,0.0,0.0,0.0,0.0,0.0,0.0,0.0,0.0,0.0,0.0,0.0,0.0,0.0,0.0,0.0,0.0,0.0,0.0,0.0,0.0,0.0,0.0,0.0,0.0,0.0,0.0,0.0,0.0,0.0,0.0,0.0,0.0,0.0,0.0,0.0,0.0,0.0,0.0,0.0,0.0,0.0,0.0,0.0,0.0,0.0,0.0,0.0,0.0,0.0,0.0,0.0,0.0,0.0,0.0,0.0,0.0,0.0,0.0,0.0,0.0,0.0,0.0,0.0,0.0,0.0,0.0,0.0,0.0,0.0,0.0,0.0,0.0,0.0,0.0,0.0,0.0,0.0,0.0,0.0,0.0,0.0,0.0,-1.5735,-1.5219,-1.2147,-1.032,0.0,0.0,0.0,0.0,0.0,0.0,0.0,0.0,0.0,0.0,0.0,0.0,0.0,0.0,0.0,0.0,0.0,0.0,0.0,0.0,0.0,0.0,0.0,0.0,0.0,0.0,0.0,0.0,0.0,0.0,0.0,0.0,0.0,0.0,0.0,0.0,0.0,0.0,0.0,0.0,0.0,0.0,0.0,0.0,0.0,0.0,0.0,0.0,0.0,0.0,0.0,0.0,0.0,0.0,0.0,0.0,0.0,0.0,0.0,0.0,0.0,0.0,0.0,0.0,0.0,0.0,0.0,0.0,0.0,0.0,0.0,0.0,0.0,0.0,0.0,0.0,0.0,0.0,0.0,0.0,0.0,0.0,0.0,0.0,0.0,0.0,0.0,0.0,0.0,0.0,0.0,0.0,0.0,0.0,0.0,0.0,0.0,0.0,0.0,0.0,0.0,0.0,0.0,0.0,0.0,0.0,0.0,0.0,0.0,0.0,-1.9058,-1.7231,-1.5889,-1.2959,-1.1075,-1.0499,0.0,0.0,0.0,0.0,0.0,0.0,0.0,0.0,0.0,0.0,0.0,0.0,0.0,0.0,0.0,0.0,0.0,0.0,0.0,0.0,0.0,0.0,0.0,0.0,0.0,0.0,0.0,0.0,0.0,0.0,0.0,0.0,0.0,0.0,0.0,0.0,0.0,0.0,0.0,0.0,0.0,0.0,0.0,0.0,0.0,0.0,0.0,0.0,0.0,0.0,0.0,0.0,0.0,0.0,0.0,0.0,0.0,0.0,0.0,0.0,0.0,0.0,0.0,0.0,0.0,0.0,0.0,0.0,0.0,0.0,0.0,0.0,0.0,0.0,0.0,0.0,0.0,0.0,0.0,0.0,0.0,0.0,0.0,0.0,0.0,0.0,0.0,0.0,0.0,0.0,0.0,0.0,0.0,0.0,0.0,0.0,0.0,0.0,0.0,0.0,0.0,0.0,0.0,0.0,0.0,0.0,0.0,0.0,-2.523,-2.1167,-1.8161,-1.6497,-1.4074,-1.238,0.0,0.0,0.0,0.0,0.0,0.0,0.0,0.0,0.0,0.0,0.0,0.0,0.0,0.0,0.0,0.0,0.0,0.0,0.0,0.0,0.0,0.0,0.0,0.0,0.0,0.0,0.0,0.0,0.0,0.0,0.0,0.0,0.0,0.0,0.0,0.0,0.0,0.0,0.0,0.0,0.0,0.0,0.0,0.0,0.0,0.0,0.0,0.0,0.0,0.0,0.0,0.0,0.0,0.0,0.0,0.0,0.0,0.0,0.0,0.0,0.0,0.0,0.0,0.0,0.0,0.0,0.0,0.0,0.0,0.0,0.0,0.0,0.0,0.0,0.0,0.0,0.0,0.0,0.0,0.0,0.0,0.0,0.0,0.0,0.0,0.0,0.0,0.0,0.0,0.0,0.0,0.0,0.0,0.0,0.0,0.0,0.0,0.0,0.0,0.0,0.0,0.0,0.0,0.0,0.0,0.0,0.0,0.0,0.0,-2.2065,-1.9778,-1.8212,-1.7504,-1.518,-1.3819,0.0,0.0,0.0,0.0,0.0,0.0,0.0,0.0,0.0,0.0,0.0,0.0,0.0,0.0,0.0,0.0,0.0,0.0,0.0,0.0,0.0,0.0,0.0,0.0,0.0,0.0,0.0,0.0,0.0,0.0,0.0,0.0,0.0,0.0,0.0,0.0,0.0,0.0,0.0,0.0,0.0,0.0,0.0,0.0,0.0,0.0,0.0,0.0,0.0,0.0,0.0,0.0,0.0,0.0,0.0,0.0,0.0,0.0,0.0,0.0,0.0,0.0,0.0,0.0,0.0,0.0,0.0,0.0,0.0,0.0,0.0,0.0,0.0,0.0,0.0,0.0,0.0,0.0,0.0,0.0,0.0,0.0,0.0,0.0,0.0,0.0,0.0,0.0,0.0,0.0,0.0,0.0,0.0,0.0,0.0,0.0,0.0,0.0,0.0,0.0,0.0,0.0,0.0,0.0,0.0,0.0,0.0,0.0,0.0,-2.1023,0.0,-1.9379,-1.8441,-1.5973,-1.4553,0.0,0.0,0.0,0.0,0.0,0.0,0.0,0.0,0.0,0.0,0.0,0.0,0.0,0.0,0.0,0.0,0.0,0.0,0.0,0.0,0.0,0.0,0.0,0.0,0.0,0.0,0.0,0.0,0.0,0.0,0.0,0.0,0.0,0.0,0.0,0.0,0.0,0.0,0.0,0.0,0.0,0.0,0.0,0.0,0.0,0.0,0.0,0.0,0.0,0.0,0.0,0.0,0.0,0.0,0.0,0.0,0.0,0.0,0.0,0.0,0.0,0.0,0.0,0.0,0.0,0.0,0.0,0.0,0.0,0.0,0.0,0.0,0.0,0.0,0.0,0.0,0.0,0.0,0.0,0.0,0.0,0.0,0.0,0.0,0.0,0.0,0.0,0.0,0.0,0.0,0.0,0.0,0.0,0.0,0.0,0.0,0.0,0.0,0.0,0.0,0.0,0.0,0.0,0.0,0.0,0.0,0.0,0.0,-2.182,-2.2874,-2.2708,-2.141,-1.9084,-1.6402,-1.4424,0.0,0.0,0.0,0.0,0.0,0.0,0.0,0.0,0.0,0.0,0.0,0.0,0.0,0.0,0.0,0.0,0.0,0.0,0.0,0.0,0.0,0.0,0.0,0.0,0.0,0.0,0.0,0.0,0.0,0.0,0.0,0.0,0.0,0.0,0.0,0.0,0.0,0.0,0.0,0.0,0.0,0.0,0.0,0.0,0.0,0.0,0.0,0.0,0.0,0.0,0.0,0.0,0.0,0.0,0.0,0.0,0.0,0.0,0.0,0.0,0.0,0.0,0.0,0.0,0.0,0.0,0.0,0.0,0.0,0.0,0.0,0.0,0.0,0.0,0.0,0.0,0.0,0.0,0.0,0.0,0.0,0.0,0.0,0.0,0.0,0.0,0.0,0.0,0.0,0.0,0.0,0.0,0.0,0.0,0.0,0.0,0.0,0.0,0.0,0.0,0.0,0.0,0.0,0.0,0.0,0.0,0.0,0.0,0.0,-2.087,-2.0908,-2.0372,-1.9244,-1.6438,-1.505,0.0,0.0,0.0,0.0,0.0,0.0,0.0,0.0,0.0,0.0,0.0,0.0,0.0,0.0,0.0,0.0,0.0,0.0,0.0,0.0,0.0,0.0,0.0,0.0,0.0,0.0,0.0,0.0,0.0,0.0,0.0,0.0,0.0,0.0,0.0,0.0,0.0,0.0,0.0,0.0,0.0,0.0,0.0,0.0,0.0,0.0,0.0,0.0,0.0,0.0,0.0,0.0,0.0,0.0,0.0,0.0,0.0,0.0,0.0,0.0,0.0,0.0,0.0,0.0,0.0,0.0,0.0,0.0,0.0,0.0,0.0,0.0,0.0,0.0,0.0,0.0,0.0,0.0,0.0,0.0,0.0,0.0,0.0,0.0,0.0,0.0,0.0,0.0,0.0,0.0,0.0,0.0,0.0,0.0,0.0,0.0,0.0,0.0,0.0,0.0,0.0,0.0,0.0,0.0,0.0,0.0,0.0,0.0,0.0,-2.1745,-2.2088,-2.1655,-2.0297,-1.7471,-1.6125,-1.6384,0.0,0.0,0.0,0.0,0.0,0.0,0.0,0.0,0.0,0.0,0.0,0.0,0.0,0.0,0.0,0.0,0.0,0.0,0.0,0.0,0.0,0.0,0.0,0.0,0.0,0.0,0.0,0.0,0.0,0.0,0.0,0.0,0.0,0.0,0.0,0.0,0.0,0.0,0.0,0.0,0.0,0.0,0.0,0.0,0.0,0.0,0.0,0.0,0.0,0.0,0.0,0.0,0.0,0.0,0.0,0.0,0.0,0.0,0.0,0.0,0.0,0.0,0.0,0.0,0.0,0.0,0.0,0.0,0.0,0.0,0.0,0.0,0.0,0.0,0.0,0.0,0.0,0.0,0.0,0.0,0.0,0.0,0.0,0.0,0.0,0.0,0.0,0.0,0.0,0.0,0.0,0.0,0.0,0.0,0.0,0.0,0.0,0.0,0.0,0.0,0.0,0.0,0.0,0.0,0.0,0.0,0.0,0.0,-2.4769,-2.5761,-2.4852,-2.2005,-1.9405,-1.7552,0.0,0.0,0.0,0.0,0.0,0.0,0.0,0.0,0.0,0.0,0.0,0.0,0.0,0.0,0.0,0.0,0.0,0.0,0.0,0.0,0.0,0.0,0.0,0.0,0.0,0.0,0.0,0.0,0.0,0.0,0.0,0.0,0.0,0.0,0.0,0.0,0.0,0.0,0.0,0.0,0.0,0.0,0.0,0.0,0.0,0.0,0.0,0.0,0.0,0.0,0.0,0.0,0.0,0.0,0.0,0.0,0.0,0.0,0.0,0.0,0.0,0.0,0.0,0.0,0.0,0.0,0.0,0.0,0.0,0.0,0.0,0.0,0.0,0.0,0.0,0.0,0.0,0.0,0.0,0.0,0.0,0.0,0.0,0.0,0.0,0.0,0.0,0.0,0.0,0.0,0.0,0.0,0.0,0.0,0.0,0.0,0.0,0.0,0.0,0.0,0.0,0.0,0.0,0.0,0.0,0.0,0.0,0.0,0.0,-2.6129,-2.7761,-2.7122,-2.4003,-2.1587,-1.9751,0.0,0.0,0.0,0.0,0.0,0.0,0.0,0.0,0.0,0.0,0.0,0.0,0.0,0.0,0.0,0.0,0.0,0.0,0.0,0.0,0.0,0.0,0.0,0.0,0.0,0.0,0.0,0.0,0.0,0.0,0.0,0.0,0.0,0.0,0.0,0.0,0.0,0.0,0.0,0.0,0.0,0.0,0.0,0.0,0.0,0.0,0.0,0.0,0.0,0.0,0.0,0.0,0.0,0.0,0.0,0.0,0.0,0.0,0.0,0.0,0.0,0.0,0.0,0.0,0.0,0.0,0.0,0.0,0.0,0.0,0.0,0.0,0.0,0.0,0.0,0.0,0.0,0.0,0.0,0.0,0.0,0.0,0.0,0.0,0.0,0.0,0.0,0.0,0.0,0.0,0.0,0.0,0.0,0.0,0.0,0.0,0.0,0.0,0.0,0.0,0.0,0.0,0.0,0.0,0.0,0.0,0.0,0.0,-2.8064,-2.7272,-2.8892,-2.8697,-2.6234,-2.3999,-2.2034,0.0,0.0,0.0,0.0,0.0,0.0,0.0,0.0,0.0,0.0,0.0,0.0,0.0,0.0,0.0,0.0,0.0,0.0,0.0,0.0,0.0,0.0,0.0,0.0,0.0,0.0,0.0,0.0,0.0,0.0,0.0,0.0,0.0,0.0,0.0,0.0,0.0,0.0,0.0,0.0,0.0,0.0,0.0,0.0,0.0,0.0,0.0,0.0,0.0,0.0,0.0,0.0,0.0,0.0,0.0,0.0,0.0,0.0,0.0,0.0,0.0,0.0,0.0,0.0,0.0,0.0,0.0,0.0,0.0,0.0,0.0,0.0,0.0,0.0,0.0,0.0,0.0,0.0,0.0,0.0,0.0,0.0,0.0,0.0,0.0,0.0,0.0,0.0,0.0,0.0,0.0,0.0,0.0,0.0,0.0,0.0,0.0,0.0,0.0,0.0,0.0,0.0,0.0,0.0,0.0,0.0,0.0,0.0,-2.8586,-2.8399,-2.9511,-2.961,-2.8455,-2.6397,-2.4281,0.0,0.0,0.0,0.0,0.0,0.0,0.0,0.0,0.0,0.0,0.0,0.0,0.0,0.0,0.0,0.0,0.0,0.0,0.0,0.0,0.0,0.0,0.0,0.0,0.0,0.0,0.0,0.0,0.0,0.0,0.0,0.0,0.0,0.0,0.0,0.0,0.0,0.0,0.0,0.0,0.0,0.0,0.0,0.0,0.0,0.0,0.0,0.0,0.0,0.0,0.0,0.0,0.0,0.0,0.0,0.0,0.0,0.0,0.0,0.0,0.0,0.0,0.0,0.0,0.0,0.0,0.0,0.0,0.0,0.0,0.0,0.0,0.0,0.0,0.0,0.0,0.0,0.0,0.0,0.0,0.0,0.0,0.0,0.0,0.0,0.0,0.0,0.0,0.0,0.0,0.0,0.0,0.0,0.0,0.0,0.0,0.0,0.0,0.0,0.0,0.0,0.0,0.0,0.0,0.0,0.0,0.0,0.0,-2.8935,-2.9542,-2.9873,-2.9796,-2.9503,-2.7337,-2.5208,0.0,0.0,0.0,0.0,0.0,0.0,0.0,0.0,0.0,0.0,0.0,0.0,0.0,0.0,0.0,0.0,0.0,0.0,0.0,0.0,0.0,0.0,0.0,0.0,0.0,0.0,0.0,0.0,0.0,0.0,0.0,0.0,0.0,0.0,0.0,0.0,0.0,0.0,0.0,0.0,0.0,0.0,0.0,0.0,0.0,0.0,0.0,0.0,-2.2744,0.0,0.0,0.0,0.0,0.0,0.0,0.0,0.0,0.0,0.0,0.0,0.0,0.0,0.0,0.0,0.0,0.0,0.0,0.0,0.0,0.0,0.0,0.0,0.0,0.0,0.0,0.0,0.0,0.0,0.0,0.0,0.0,0.0,0.0,0.0,0.0,0.0,0.0,0.0,0.0,0.0,0.0,0.0,0.0,0.0,0.0,0.0,0.0,0.0,0.0,0.0,0.0,0.0,0.0,0.0,0.0,0.0,0.0,0.0,-2.9708,-3.0243,-3.0821,-3.057,-2.9559,-2.8522,-2.7039,0.0,0.0,0.0,0.0,0.0,0.0,0.0,0.0,0.0,0.0,0.0,0.0,0.0,0.0,0.0,0.0,0.0,0.0,0.0,0.0,0.0,0.0,0.0,0.0,0.0,0.0,0.0,0.0,0.0,0.0,0.0,0.0,0.0,0.0,0.0,0.0,0.0,0.0,0.0,0.0,0.0,0.0,0.0,0.0,0.0,0.0,0.0,0.0,0.0,0.0,0.0,0.0,0.0,0.0,0.0,0.0,0.0,0.0,0.0,0.0,0.0,0.0,0.0,0.0,0.0,0.0,0.0,0.0,0.0,0.0,0.0,0.0,0.0,0.0,0.0,0.0,0.0,0.0,0.0,0.0,0.0,0.0,0.0,0.0,0.0,0.0,0.0,0.0,0.0,0.0,0.0,0.0,0.0,0.0,0.0,0.0,0.0,0.0,0.0,0.0,0.0,0.0,0.0,0.0,0.0,0.0,0.0,-2.941,-3.0183,-3.0868,-3.1597,-3.1089,-2.9436,-2.9818,-2.9037,-2.6631,0.0,0.0,0.0,0.0,0.0,0.0,0.0,0.0,0.0,0.0,0.0,0.0,0.0,0.0,0.0,0.0,0.0,0.0,0.0,0.0,0.0,0.0,0.0,0.0,0.0,0.0,0.0,0.0,0.0,0.0,0.0,0.0,0.0,0.0,0.0,0.0,0.0,0.0,-1.5851,-1.6974,0.0,0.0,0.0,0.0,0.0,0.0,0.0,0.0,-2.4212,0.0,0.0,0.0,0.0,0.0,0.0,0.0,0.0,0.0,0.0,0.0,0.0,0.0,0.0,0.0,0.0,0.0,0.0,0.0,0.0,0.0,0.0,0.0,0.0,0.0,0.0,0.0,0.0,0.0,0.0,0.0,0.0,0.0,0.0,0.0,0.0,0.0,0.0,0.0,0.0,0.0,0.0,0.0,0.0,0.0,0.0,0.0,0.0,0.0,0.0,0.0,0.0,0.0,0.0,0.0,0.0,-3.0671,-2.9071,-2.9225,-3.1369,-3.0742,-3.0468,-3.0532,-3.0898,-3.0209,-2.8175,0.0,0.0,0.0,0.0,0.0,0.0,0.0,0.0,0.0,0.0,0.0,0.0,0.0,0.0,0.0,0.0,0.0,0.0,0.0,0.0,0.0,0.0,0.0,0.0,0.0,0.0,0.0,0.0,0.0,0.0,0.0,0.0,0.0,0.0,0.0,0.0,0.0,0.0,0.0,-1.8735,-1.9617,0.0,0.0,0.0,0.0,0.0,0.0,0.0,0.0,-2.3466,0.0,0.0,0.0,0.0,0.0,0.0,0.0,0.0,0.0,0.0,0.0,0.0,0.0,0.0,0.0,0.0,0.0,0.0,0.0,0.0,0.0,0.0,0.0,0.0,0.0,0.0,0.0,0.0,0.0,0.0,0.0,0.0,0.0,0.0,0.0,0.0,0.0,0.0,0.0,0.0,0.0,0.0,0.0,0.0,0.0,0.0,0.0,0.0,0.0,0.0,0.0,0.0,0.0,0.0,0.0,-2.9542,-2.9799,-3.0385,-3.1515,-3.1723,-3.1646,-3.1247,-3.1364,-3.0482,0.0,0.0,0.0,0.0,0.0,0.0,0.0,0.0,0.0,0.0,0.0,0.0,0.0,0.0,0.0,0.0,0.0,0.0,0.0,0.0,0.0,0.0,0.0,0.0,0.0,0.0,0.0,0.0,0.0,0.0,0.0,0.0,0.0,0.0,0.0,0.0,0.0,0.0,0.0,0.0,-1.9182,-1.9956,-1.9264,0.0,0.0,0.0,0.0,0.0,0.0,-2.3898,-2.4085,0.0,0.0,0.0,0.0,0.0,0.0,0.0,0.0,0.0,0.0,0.0,0.0,0.0,0.0,0.0,0.0,0.0,0.0,0.0,0.0,0.0,0.0,0.0,0.0,0.0,0.0,0.0,0.0,0.0,0.0,0.0,0.0,0.0,0.0,0.0,0.0,0.0,0.0,0.0,0.0,0.0,0.0,0.0,0.0,0.0,0.0,0.0,0.0,0.0,0.0,0.0,0.0,0.0,0.0,0.0,-2.8304,-3.0368,-3.1401,-3.1392,-3.2613,-3.2739,-3.168,-3.1586,-3.0686,0.0,0.0,0.0,0.0,0.0,0.0,0.0,0.0,0.0,0.0,0.0,0.0,0.0,0.0,0.0,0.0,0.0,0.0,0.0,0.0,0.0,0.0,0.0,0.0,0.0,0.0,0.0,0.0,0.0,0.0,0.0,0.0,0.0,0.0,0.0,0.0,0.0,0.0,0.0,0.0,0.0,-2.0369,-1.9291,-2.1354,0.0,0.0,0.0,0.0,-2.3954,-2.4913,0.0,0.0,0.0,0.0,0.0,0.0,0.0,0.0,0.0,0.0,0.0,0.0,0.0,0.0,0.0,0.0,0.0,0.0,0.0,0.0,0.0,0.0,0.0,0.0,0.0,0.0,0.0,0.0,0.0,0.0,0.0,0.0,0.0,0.0,0.0,0.0,0.0,0.0,0.0,0.0,0.0,0.0,0.0,0.0,0.0,0.0,0.0,0.0,0.0,0.0,0.0,0.0,0.0,0.0,0.0,0.0,-2.862,-2.9831,-3.0593,-3.0851,-3.1537,-3.1841,-3.1663,-3.1663,-3.0985,0.0,0.0,0.0,0.0,0.0,0.0,0.0,0.0,0.0,0.0,0.0,0.0,0.0,0.0,0.0,0.0,0.0,0.0,0.0,0.0,0.0,0.0,0.0,0.0,0.0,0.0,0.0,0.0,0.0,0.0,0.0,0.0,0.0,0.0,0.0,0.0,0.0,0.0,0.0,0.0,0.0,-2.2013,-1.9548,-2.1171,-2.2395,0.0,0.0,-2.4905,-2.5626,-2.6948,0.0,0.0,0.0,0.0,0.0,0.0,0.0,0.0,0.0,0.0,0.0,0.0,0.0,0.0,0.0,0.0,0.0,0.0,0.0,0.0,0.0,0.0,0.0,0.0,0.0,0.0,0.0,0.0,0.0,0.0,0.0,0.0,0.0,0.0,0.0,0.0,0.0,0.0,0.0,0.0,0.0,0.0,0.0,0.0,0.0,0.0,0.0,0.0,0.0,0.0,0.0,0.0,0.0,0.0,0.0,-2.8774,-2.8809,-3.0982,-3.1667,-3.0778,-3.177,-3.2309,-3.213,-3.1339,-3.035,0.0,0.0,0.0,0.0,0.0,0.0,0.0,0.0,0.0,0.0,0.0,0.0,0.0,0.0,0.0,0.0,0.0,0.0,0.0,0.0,0.0,0.0,0.0,0.0,0.0,0.0,0.0,0.0,0.0,0.0,0.0,0.0,0.0,0.0,0.0,0.0,0.0,0.0,0.0,0.0,0.0,0.0,-2.1873,-2.232,0.0,0.0,0.0,-2.5311,-2.5975,0.0,0.0,0.0,0.0,0.0,0.0,0.0,0.0,0.0,0.0,0.0,0.0,0.0,0.0,0.0,0.0,0.0,0.0,0.0,0.0,0.0,0.0,0.0,0.0,0.0,0.0,0.0,0.0,0.0,0.0,0.0,0.0,0.0,0.0,0.0,0.0,0.0,0.0,0.0,0.0,0.0,0.0,0.0,0.0,0.0,0.0,0.0,0.0,0.0,0.0,0.0,0.0,0.0,0.0,0.0,0.0,0.0,-2.9362,-3.1997,-3.2698,-3.1377,-3.2178,-3.2573,-3.2248,-3.1296,0.0,0.0,0.0,0.0,0.0,0.0,0.0,0.0,0.0,0.0,0.0,0.0,0.0,0.0,0.0,0.0,0.0,0.0,0.0,0.0,0.0,0.0,0.0,0.0,0.0,0.0,0.0,-2.5848,0.0,0.0,0.0,0.0,0.0,0.0,0.0,0.0,0.0,0.0,0.0,0.0,0.0,0.0,-2.1881,-2.3478,-2.3624,-2.3924,0.0,0.0,-2.6194,-2.6454,-2.7962,-2.8525,0.0,0.0,0.0,0.0,0.0,0.0,0.0,0.0,0.0,0.0,0.0,0.0,0.0,0.0,0.0,0.0,0.0,0.0,0.0,0.0,0.0,0.0,0.0,0.0,0.0,0.0,0.0,0.0,0.0,0.0,0.0,0.0,0.0,0.0,0.0,0.0,0.0,0.0,0.0,0.0,0.0,0.0,0.0,0.0,0.0,0.0,0.0,0.0,0.0,0.0,0.0,0.0,0.0,0.0,0.0,-3.0799,-3.2496,-3.3278,-3.3036,-3.2621,-3.2117,-3.1589,-3.1687,-3.0828,0.0,0.0,0.0,0.0,0.0,0.0,0.0,0.0,0.0,0.0,0.0,0.0,0.0,0.0,0.0,0.0,0.0,0.0,0.0,0.0,0.0,0.0,0.0,0.0,0.0,0.0,0.0,0.0,0.0,0.0,0.0,0.0,0.0,0.0,0.0,0.0,0.0,0.0,0.0,0.0,0.0,-2.3983,-2.3199,-2.4657,-2.5846,0.0,0.0,-2.8039,-2.7866,-3.0569,-3.1673,-2.8071,0.0,0.0,0.0,0.0,0.0,0.0,0.0,0.0,0.0,0.0,0.0,0.0,0.0,0.0,0.0,0.0,0.0,0.0,0.0,0.0,0.0,0.0,0.0,0.0,0.0,0.0,0.0,0.0,0.0,0.0,0.0,0.0,0.0,0.0,0.0,0.0,0.0,0.0,0.0,0.0,0.0,0.0,0.0,0.0,0.0,0.0,0.0,0.0,0.0,0.0,0.0,0.0,0.0,-3.0882,-3.176,-3.3481,-3.429,-3.4033,-3.363,-3.3237,-3.3075,-3.2426,-3.1073,0.0,0.0,0.0,0.0,0.0,0.0,0.0,0.0,0.0,0.0,0.0,0.0,0.0,0.0,0.0,0.0,0.0,0.0,0.0,0.0,0.0,0.0,0.0,0.0,0.0,0.0,0.0,0.0,-2.5494,-2.5305,-2.5379,0.0,0.0,0.0,0.0,0.0,0.0,0.0,0.0,0.0,0.0,-2.5142,-2.5495,-2.6162,0.0,0.0,-2.7961,-2.8321,-2.9285,-3.0015,-2.9937,-2.8744,-2.9234,0.0,0.0,0.0,0.0,0.0,0.0,0.0,0.0,0.0,0.0,0.0,0.0,0.0,0.0,0.0,0.0,0.0,0.0,0.0,0.0,0.0,0.0,0.0,0.0,0.0,0.0,0.0,0.0,0.0,0.0,0.0,0.0,0.0,0.0,0.0,0.0,0.0,0.0,0.0,0.0,0.0,0.0,0.0,0.0,0.0,0.0,0.0,0.0,0.0,0.0,0.0,0.0,-3.1459,-3.2976,-3.4355,-3.5133,-3.5292,-3.4753,-3.4442,-3.4246,-3.3435,-3.2083,0.0,0.0,0.0,0.0,0.0,0.0,0.0,0.0,0.0,0.0,0.0,0.0,0.0,0.0,0.0,0.0,0.0,0.0,0.0,0.0,0.0,0.0,0.0,0.0,0.0,0.0,0.0,0.0,-2.6261,-2.5651,-2.5394,0.0,0.0,0.0,0.0,0.0,0.0,0.0,0.0,0.0,0.0,-2.7065,-2.7638,-2.7855,-2.8253,-2.9452,-2.8869,-2.8646,-2.9618,-2.9718,-2.9637,-2.9296,0.0,0.0,0.0,0.0,0.0,0.0,0.0,0.0,0.0,0.0,0.0,0.0,0.0,0.0,0.0,0.0,0.0,0.0,0.0,0.0,0.0,0.0,0.0,0.0,0.0,0.0,0.0,0.0,0.0,0.0,0.0,0.0,0.0,0.0,0.0,0.0,0.0,0.0,0.0,0.0,0.0,0.0,0.0,0.0,0.0,0.0,0.0,0.0,0.0,0.0,0.0,0.0,0.0,-3.205,-3.4581,-3.5082,-3.5929,-3.7042,-3.6081,-3.533,-3.4811,-3.4899,-3.4169,-3.2571,0.0,0.0,0.0,0.0,0.0,0.0,0.0,0.0,0.0,0.0,0.0,0.0,0.0,0.0,0.0,0.0,0.0,0.0,0.0,0.0,0.0,0.0,0.0,0.0,0.0,0.0,-2.7611,-2.6465,-2.5478,0.0,0.0,0.0,0.0,0.0,0.0,0.0,0.0,0.0,0.0,-2.881,-3.0066,-2.9614,-2.9549,-2.9586,-2.9725,-2.9682,-2.943,-2.8583,-3.0531,-3.1705,0.0,0.0,0.0,0.0,0.0,0.0,0.0,0.0,0.0,0.0,0.0,0.0,0.0,0.0,0.0,0.0,0.0,0.0,0.0,0.0,0.0,0.0,0.0,0.0,0.0,0.0,0.0,-2.8677,-2.8749,0.0,0.0,0.0,0.0,0.0,0.0,0.0,0.0,0.0,0.0,0.0,-3.3233,-3.4122,0.0,0.0,0.0,0.0,0.0,0.0,0.0,0.0,0.0,0.0,0.0,0.0,-3.28,-3.4957,-3.5926,-3.6968,-3.819,-3.7357,-3.6632,-3.6185,-3.5695,-3.4838,-3.3703,0.0,0.0,0.0,0.0,0.0,0.0,0.0,0.0,0.0,0.0,0.0,0.0,0.0,0.0,0.0,0.0,0.0,0.0,0.0,0.0,0.0,0.0,0.0,0.0,0.0,-2.9226,0.0,0.0,0.0,0.0,0.0,0.0,0.0,0.0,0.0,0.0,0.0,-3.0028,-3.0126,-3.148,-3.2183,-3.1183,-3.1662,-3.1699,0.0,0.0,0.0,0.0,0.0,0.0,0.0,0.0,0.0,0.0,0.0,0.0,0.0,0.0,-3.7217,-3.5826,-3.5515,-3.5509,-3.5619,0.0,0.0,0.0,0.0,0.0,0.0,0.0,0.0,0.0,0.0,0.0,0.0,0.0,0.0,0.0,0.0,-3.0277,0.0,0.0,0.0,0.0,0.0,0.0,0.0,0.0,-3.3403,-3.4706,-3.5452,-3.6674,-3.7149,0.0,-3.6707,-3.4878,0.0,0.0,0.0,0.0,0.0,0.0,0.0,0.0,-3.33,-3.5234,-3.6162,-3.7246,-3.8457,-3.7681,-3.7215,-3.7164,-3.6531,-3.5613,-3.4604,-3.2943,-3.1498,0.0,0.0,0.0,0.0,0.0,0.0,0.0,0.0,0.0,0.0,0.0,0.0,0.0,0.0,0.0,0.0,0.0,0.0,0.0,0.0,0.0,0.0,0.0,-2.9176,0.0,0.0,0.0,0.0,0.0,0.0,0.0,0.0,0.0,-2.9923,-3.1083,-3.2031,-3.2596,-3.3358,-3.3621,-3.3018,0.0,0.0,0.0,0.0,0.0,0.0,0.0,-3.1955,-3.354,-3.3493,-3.3149,-3.3119,-3.4582,-3.5731,-3.5502,0.0,0.0,-3.7304,-3.7074,-3.7232,-3.7784,-3.7765,-3.7728,-3.8302,-3.8609,-3.8649,0.0,0.0,0.0,0.0,0.0,0.0,0.0,0.0,-3.1315,-3.1847,0.0,-3.1797,0.0,0.0,0.0,0.0,0.0,0.0,0.0,0.0,-3.6184,-3.7703,-3.7986,-3.8865,-3.9354,-3.9531,-4.0069,-3.9095,-3.65,-3.4189,0.0,0.0,0.0,0.0,0.0,0.0,-3.3514,-3.5444,-3.6015,-3.6817,-3.8035,-3.726,-3.7161,-3.7721,-3.7331,-3.6482,-3.5288,-3.4215,-3.2976,-3.1659,-3.114,0.0,0.0,0.0,0.0,0.0,0.0,0.0,0.0,0.0,0.0,0.0,0.0,0.0,0.0,0.0,0.0,0.0,0.0,0.0,0.0,-3.0474,0.0,0.0,0.0,0.0,0.0,0.0,0.0,0.0,0.0,0.0,-3.1213,-3.2701,-3.397,-3.4311,0.0,0.0,0.0,0.0,-3.2519,-3.2381,-3.213,-3.1994,-3.2299,-3.3052,-3.3764,-3.406,0.0,0.0,-3.3138,-3.4397,-3.5136,-3.3791,-3.5807,-3.8215,-4.0044,-3.9302,-3.9162,-4.0586,-4.0069,-3.9689,-3.9972,-4.0153,-4.0153,-3.1344,0.0,0.0,0.0,0.0,-3.293,-3.3835,-3.5895,-3.4844,-3.4585,-3.486,-3.3804,0.0,0.0,0.0,0.0,0.0,0.0,-3.5479,-3.62,-3.8147,-3.947,-4.0227,-4.1518,-4.2138,-4.2222,-4.1938,-4.0935,-3.9275,-3.8087,-3.597,-3.2915,0.0,0.0,0.0,0.0,-3.4087,-3.5444,-3.6081,-3.6813,-3.7605,-3.7371,-3.7287,-3.755,-3.7371,-3.6963,-3.6156,-3.5833,-3.4865,-3.3216,-3.2538,0.0,0.0,0.0,0.0,0.0,0.0,0.0,0.0,0.0,0.0,0.0,0.0,0.0,0.0,0.0,0.0,0.0,0.0,0.0,-3.1597,-3.0322,-2.9572,0.0,0.0,0.0,0.0,0.0,0.0,0.0,0.0,0.0,-3.4868,-3.5078,-3.5301,0.0,0.0,-3.6076,-3.5498,-3.4684,-3.3724,-3.2741,0.0,0.0,0.0,-3.2099,-3.299,-3.4744,-3.509,-3.514,-3.526,-3.5078,-3.4657,-3.4258,-3.5298,-3.6554,-3.7904,-3.8971,-3.9865,-4.0844,-4.0559,-4.0343,-4.1068,-4.1085,-4.0844,-3.4846,-3.436,-3.4048,-3.4762,-3.6048,-3.5456,-3.6384,-3.8056,-3.7195,-3.7181,-3.755,-3.6537,-3.5624,-3.4878,-3.4231,0.0,0.0,0.0,-3.73,-3.8337,-3.9619,-4.066,-4.1543,-4.2723,-4.3344,-4.3284,-4.2402,-4.1564,-4.0771,-3.9748,-3.7706,-3.4741,0.0,0.0,-3.2991,-3.3667,-3.4538,-3.5474,-3.5893,-3.6402,-3.703,-3.7045,-3.7165,-3.7389,-3.7404,-3.7225,-3.6866,-3.6678,-3.5814,-3.4226,-3.3864,-3.2722,0.0,0.0,0.0,0.0,0.0,0.0,0.0,0.0,0.0,0.0,0.0,-3.1229,-3.1916,0.0,0.0,0.0,-3.1871,-3.1798,-3.1482,-3.083,0.0,0.0,0.0,0.0,0.0,0.0,0.0,-3.1985,-3.4342,-3.6165,-3.6707,-3.6794,-3.7065,-3.7794,-3.7588,-3.7137,-3.6213,0.0,-3.4628,-3.273,-3.2347,-3.2101,-3.1858,-3.204,-3.2868,-3.4823,-3.4598,-3.4165,-3.4244,-3.4054,-3.378,-3.3407,-3.3867,-3.5003,-3.6836,-3.7751,-3.8781,-4.044,-4.0707,-4.0668,-4.0749,-4.0728,-4.0494,-3.8243,-3.9116,-3.6896,-3.6662,-3.7635,-3.8161,-3.8582,-3.8906,-3.8691,-3.9269,-4.0223,-3.9173,-3.8765,-3.877,-3.787,0.0,0.0,-3.8541,-3.9145,-4.0094,-4.0914,-4.1558,-4.214,-4.282,-4.322,-4.3145,-4.2028,-4.1414,-4.1205,-3.9798,-3.8167,-3.6558,-3.5818,-3.4943,-3.3819,-3.4207,-3.479,-3.5415,-3.5415,-3.5744,-3.6387,-3.6462,-3.6761,-3.7315,-3.7389,-3.7375,-3.7315,-3.6895,-3.6125,-3.4921,-3.4988,-3.4254,-3.239,0.0,0.0,0.0,0.0,0.0,0.0,0.0,0.0,0.0,0.0,0.0,0.0,0.0,0.0,0.0,-3.2109,0.0,-3.1512,-3.1811,0.0,0.0,0.0,-3.3316,-3.2633,-3.4318,-3.4961,-3.369,0.0,0.0,-3.7168,0.0,-3.8899,-3.973,-3.8837,-3.7697,-3.6622,-3.5993,-3.4892,-3.2466,-3.2139,-3.2052,-3.1705,-3.2096,-3.2846,-3.4176,-3.373,-3.2654,-3.1817,-3.2126,-3.2341,-3.1514,-3.218,-3.367,-3.6296,-3.6127,-3.6295,-3.9181,-4.0241,-4.0305,-3.9312,-3.9398,-3.9294,-3.9196,-3.9892,-3.9904,-4.005,-4.035,-4.0048,-4.0148,-4.0644,-4.0116,-3.9616,-3.9018,-3.7898,-3.715,-3.6825,-3.813,-3.9283,-4.0191,-4.1465,-4.2425,-4.2966,-4.2663,-4.2927,-4.3472,-4.2659,-4.2313,-4.2332,-4.2019,-4.135,-4.0457,-3.9922,-3.8728,-3.692,-3.6179,-3.5102,-3.3774,-3.3925,-3.4348,-3.4853,-3.4853,-3.5183,-3.5729,-3.6222,-3.6552,-3.6701,-3.7165,-3.7248,-3.6902,-3.6752,-3.6466,-3.5872,-3.4927,-3.4038,-3.3141,-3.1567,0.0,0.0,0.0,0.0,0.0,0.0,0.0,0.0,0.0,-3.1259,-3.1625,0.0,-3.2093,0.0,-3.156,-3.2285,-3.383,-3.3245,0.0,0.0,-3.4714,-3.4394,-3.4669,-3.5265,-3.5581,-3.539,-3.6879,-3.8121,-3.8731,-3.9442,-3.9665,-3.918,-3.8305,-3.7104,-3.5594,-3.4628,-3.3497,-3.1716,-3.0783,-3.015,-2.9539,-3.0115,-3.134,-3.275,-3.2117,-3.1359,-3.1381,-3.1581,-3.1587,-3.1057,-3.1794,-3.3168,-3.4854,-3.4919,-3.5366,-3.6845,-3.7524,-3.79,-3.7857,-3.7727,-3.7496,-3.9335,-4.0295,-4.0707,-4.0775,-4.0566,-4.0736,-4.101,-4.1246,-4.0422,-3.9725,-3.9243,-3.8249,-3.7907,-3.8028,-3.9318,-4.0567,-4.1858,-4.2857,-4.3592,-4.3972,-4.366,-4.3488,-4.3551,-4.2778,-4.2278,-4.2,-4.1743,-4.1175,-4.0514,-3.991,-3.888,-3.7461,-3.6827,-3.5793,-3.444,-3.4076,-3.4213,-3.4863,-3.5024,-3.5244,-3.5504,-3.6148,-3.6409,-3.619,-3.6424,-3.6436,-3.5918,-3.5982,-3.5776,-3.534,-3.4666,-3.4079,-3.3413,-3.1782,-3.0535,0.0,0.0,0.0,0.0,0.0,0.0,0.0,0.0,0.0,0.0,0.0,-3.2547,0.0,-3.2676,0.0,-3.4952,-3.4785,-3.516,-3.6718,-3.6468,-3.6197,-3.6198,-3.6866,-3.717,-3.6597,-3.7812,-3.8767,-3.8949,-3.9544,-3.9609,-3.8744,-3.7739,-3.661,-3.5154,-3.4086,-3.2834,-3.1261,-3.0385,-2.9719,-2.9086,-2.9461,-3.0397,-3.1689,-3.101,-3.0223,-3.0472,-3.0734,-3.0696,-3.0163,-3.0886,-3.1961,-3.313,-3.3545,-3.4028,-3.4955,-3.5505,-3.5954,-3.6416,-3.6428,-3.6327,-3.9154,-4.0305,-4.0318,-4.003,-3.969,-4.0592,-4.107,-4.1104,-3.9926,-3.9521,-3.9505,-3.8894,-3.9116,-4.0057,-4.0536,-4.1532,-4.2971,-4.3213,-4.3564,-4.3957,-4.3895,-4.3566,-4.3031,-4.2812,-4.2451,-4.1915,-4.1279,-4.0834,-4.0679,-3.9642,-3.8666,-3.7816,-3.7231,-3.6364,-3.5233,-3.4394,-3.4288,-3.4835,-3.5329,-3.5548,-3.5385,-3.5914,-3.5949,-3.5492,-3.5386,-3.5163,-3.4804,-3.4897,-3.4759,-3.4298,-3.4309,-3.4137,-3.366,-3.2321,-3.1597,0.0,-3.0535,0.0,0.0,0.0,0.0,0.0,0.0,0.0,0.0,-3.3438,-3.3334,-3.3789,-3.4267,-3.4816,-3.5669,-3.6193,-3.6821,-3.7584,-3.8093,-3.8094,-3.7506,-3.847,-3.8718,-3.7375,-3.8352,-3.8931,-3.8462,-3.8867,-3.8981,-3.8209,-3.7214,-3.6171,-3.5083,-3.3872,-3.249,-3.1258,-3.03,-2.9559,-2.9645,-2.9402,-2.9692,-3.0812,-3.0342,-2.9353,-2.93,-2.9678,-2.9851,-2.9284,-2.9874,-3.0808,-3.1707,-3.2172,-3.2804,-3.4009,-3.4596,-3.5038,-3.5391,-3.5627,-3.5658,-3.9459,-3.9769,-3.9756,-3.9703,-3.9599,-3.9324,-3.9572,-4.0187,-3.9241,-3.811,-3.6867,-3.6975,-3.7382,-3.815,-3.9902,-4.143,-4.2712,-4.3257,-4.3624,-4.363,-4.314,-4.3061,-4.3349,-4.1836,-4.1357,-4.1671,-4.1053,-4.0103,-3.9018,-3.8742,-3.8012,-3.6813,-3.6122,-3.5676,-3.5445,0.0,0.0,0.0,-3.4805,-3.5044,-3.4856,-3.4544,-3.4318,-3.4258,-3.3698,0.0,-3.4286,-3.3872,-3.3839,-3.4355,-3.3921,0.0,0.0,0.0,0.0,0.0,0.0,0.0,0.0,0.0,0.0,0.0,-3.4121,-3.3986,-3.4147,-3.3878,-3.391,-3.4482,-3.46,-3.5319,-3.6866,-3.6701,-3.7165,-3.8796,-3.8646,-3.8307,-3.818,-3.8441,-3.8262,-3.7466,-3.7788,-3.7985,-3.788,-3.8077,-3.7931,-3.7275,-3.6377,-3.5697,-3.4926,-3.3519,-3.2031,-3.0703,-2.9283,-2.8284,-2.8798,-2.8294,-2.8242,-2.8919,-2.9125,-2.8941,-2.9015,-2.9091,-2.9358,-2.9184,-2.9456,-3.018,-3.1813,-3.2298,-3.2869,-3.4494,-3.5253,-3.5593,-3.5413,-3.5377,-3.5405,-3.9094,0.0,-3.9168,-3.9024,0.0,-3.8449,-3.8423,-3.8654,-3.7778,-3.6695,-3.5659,-3.6089,-3.6777,-3.7685,-3.9224,-4.0798,-4.247,-4.2932,-4.3484,-4.4097,-4.3771,-4.3434,-4.304,-4.207,-4.1428,-4.1158,-4.0713,-4.0173,-3.9542,-3.8852,-3.8154,-3.7477,-3.6476,-3.5984,-3.5968,-3.5645,-3.517,-3.4455,-3.5123,-3.5347,-3.5123,-3.5142,-3.4874,-3.4302,0.0,0.0,0.0,0.0,0.0,0.0,0.0,0.0,0.0,0.0,0.0,-3.4368,-3.3475,-3.3352,-3.4321,-3.4429,-3.4737,-3.5399,-3.54,-3.5186,-3.4713,-3.4866,-3.5016,-3.5316,-3.5522,-3.606,-3.694,-3.6993,-3.733,-3.8272,-3.8108,-3.7898,-3.7883,-3.7629,-3.7383,-3.7166,-3.7158,-3.7225,-3.7373,-3.7661,-3.7797,-3.7466,-3.6656,-3.6005,-3.5551,-3.3895,-3.2111,-3.0736,-2.9401,-2.8544,-2.8779,-2.8426,-2.818,-2.8866,-2.8649,-2.8452,-2.8722,-2.8642,-2.8562,-2.8822,-2.9128,-2.9824,-3.0757,-3.1821,-3.2907,-3.3832,-3.479,-3.5444,-3.5383,-3.5024,-3.488,-3.8608,-3.8647,-3.8579,-3.8253,-3.7743,-3.7625,-3.7352,-3.6922,0.0,0.0,0.0,-3.591,-3.6816,-3.789,-3.8723,-4.0227,-4.2153,-4.2345,-4.3005,-4.4051,-4.4067,-4.3457,-4.2439,-4.2269,-4.1748,-4.0807,-4.0567,-4.0462,-4.0309,-3.9108,-3.8446,-3.8215,-3.7107,-3.6492,-3.6492,-3.6476,-3.6029,-3.5261,-3.5563,-3.5616,-3.5404,-3.5809,-3.5544,-3.4572,-3.4452,-3.4227,-3.3939,-3.3952,-3.4071,-3.4193,-3.4401,-3.4522,-3.4688,-3.4091,-3.4091,-3.4737,-3.4275,-3.4445,-3.5568,-3.5676,-3.5891,-3.6445,-3.6352,-3.5966,-3.5416,-3.578,-3.5988,-3.5988,-3.6345,-3.6577,-3.6712,-3.6925,-3.7233,-3.7428,-3.7383,-3.7323,-3.7293,-3.6888,-3.6625,-3.6592,-3.6612,-3.6678,-3.6854,-3.7314,-3.773,-3.772,-3.6985,-3.6385,-3.6104,-3.4199,-3.2238,-3.0902,-2.976,-2.923,-2.9233,-2.8928,-2.887,-2.9201,-2.8807,-2.845,-2.8607,-2.8464,-2.8215,-2.8274,-2.8937,-2.9574,-3.0075,-3.1783,-3.3129,-3.349,-3.4522,-3.551,-3.5828,-3.543,-3.5179,-3.8552,-3.854,-3.8201,-3.7678,-3.709,-3.658,-3.5963,-3.5504,-3.6021,-3.5845,-3.5154,-3.6452,-3.742,-3.8101,-3.9133,-4.039,-4.1653,-4.174,-4.1851,0.0,-4.2002,-4.1882,-4.1686,-4.1113,-4.1073,-4.1398,-4.0808,-4.0232,-3.9631,-3.8893,-3.8231,-3.7615,-3.6861,-3.6492,-3.6492,-3.6352,-3.6102,-3.5885,-3.546,-3.517,-3.4811,-3.4438,-3.4213,-3.4001,-3.3471,-3.3425,-3.3894,-3.3556,-3.3597,-3.4163,-3.4401,-3.4737,-3.5291,-3.5245,-3.5491,-3.6138,-3.6122,-3.6153,-3.6322,-3.6338,-3.6399,-3.6476,-3.6492,-3.6305,-3.6089,-3.6039,-3.5988,-3.5988,-3.5952,-3.6159,-3.6819,-3.6371,-3.6486,-3.7555,-3.7328,-3.7091,-3.701,-3.692,-3.6713,-3.6182,-3.6158,-3.6252,-3.6377,-3.6595,-3.6781,-3.6737,-3.6641,-3.6204,-3.5274,-3.3648,-3.2183,-3.1016,-2.9818,-2.9106,-2.8929,-2.8931,-2.9114,-2.9132,-2.9608,-2.9716,-2.9374,-2.9234,-2.9081,-2.8578,-2.9316,-3.0177,-3.1162,-3.2624,-3.4228,-3.551,-3.6506,-3.7207,-3.7697,-3.751,-3.7313,-3.7821,-3.7913,-3.7585,-3.7064,-3.638,-3.6118,-3.5774,-3.5494,-3.6111,-3.6111,-3.5884,-3.6766,-3.7525,-3.8069,-3.9147,-4.0187,-4.1127,-4.1444,-4.1797,-4.2117,-4.2132,-4.1934,-4.1599,-4.1264,-4.1087,-4.1016,-4.0693,-4.0185,-3.9508,-3.8831,-3.8169,-3.7492,-3.683,-3.6492,-3.6492,-3.6414,-3.6226,-3.5958,-3.5655,-3.5377,-3.5168,-3.4916,-3.4736,-3.4751,-3.445,-3.4482,-3.4878,-3.4805,-3.4912,-3.5278,-3.5492,-3.5707,-3.6014,-3.6045,-3.6168,-3.6461,-3.6492,-3.6492,-3.6492,-3.6492,-3.6492,-3.6492,-3.6492,-3.6492,-3.6352,-3.6289,-3.6289,-3.6226,-3.6085,-3.6143,-3.6527,-3.6155,-3.6137,-3.6808,-3.6611,-3.6459,-3.6444,-3.6459,-3.6386,-3.6161,-3.6148,-3.6274,-3.6352,-3.6429,-3.6492,-3.6492,-3.6492,-3.6148,-3.54,-3.4063,-3.2613,-3.1177,-3.0074,-2.9408,-2.9212,-2.9345,-2.9549,-2.9986,-3.0367,-3.0506,-3.0215,-3.0203,-3.0063,-2.9922,-3.0644,-3.1554,-3.225,-3.42,-3.5769,-3.6595,-3.7919,-3.8669,-3.8907,-3.9101,-3.8747,-3.715,-3.7243,-3.7095,-3.6698,-3.6058,-3.5818,-3.5747,-3.5912,-3.6232,-3.647,-3.6615,-3.7014,-3.7553,-3.8173,-3.909,-3.9881,-4.0637,-4.0985,-4.149,-4.2094,-4.1996,-4.172,-4.1401,-4.1355,-4.1078,-4.0555,-4.0385,-4.0031,-3.9477,-3.8692,-3.7938,-3.7292,-3.6738,-3.6492,-3.6492,-3.6414,-3.6289,-3.6037,-3.5879,-3.5653,-3.5489,-3.5489,-3.5489,-3.5489,-3.5554,-3.5589,-3.5688,-3.5894,-3.6085,-3.6211,-3.6414,-3.6492,-3.6492,-3.6492,-3.6492,-3.6492,-3.6492,-3.6492,-3.6492,-3.6492,-3.6492,-3.6492,-3.6492,-3.6492,-3.6492,-3.6492,-3.6492,-3.6492,-3.6289,-3.6211,-3.6257,-3.6163,-3.6037,-3.61,-3.61,-3.6146,-3.6115,-3.61,-3.6178,-3.6289,-3.6274,-3.6352,-3.6476,-3.6492,-3.6492,-3.6492,-3.6368,-3.6059,-3.5446,-3.453,-3.3277,-3.1685,-3.0416,-2.9729,-2.9704,-2.9858,-3.0228,-3.082,-3.1267,-3.1341,-3.1254,-3.118,-3.1014,-3.1008,-3.1833,-3.2567,-3.3042,-3.5093,-3.6894,-3.7494,-3.874,-3.986,-4.0296,-4.0704,-4.0313,-3.6951,-3.6858,-3.6989,-3.6923,-3.6558,-3.5658,-3.5629,-3.6312,-3.6391,-3.6615,-3.69,-3.6978,-3.7658,-3.8634,-3.8855,-3.9496,-4.0438,-4.0071,-4.0188,-4.06,-4.0147,-4.0188,-4.0562,-4.0601,-4.0601,-4.0432,-3.9893,-3.9539,-3.9339,-3.82,-3.7246,-3.6661,-3.6507,-3.6492,-3.6492,-3.6352,-3.6211,-3.6211,-3.6022,-3.5797,-3.5504,-3.5489,-3.5489,-3.5489,-3.5574,-3.5703,-3.5752,-3.6022,-3.6196,-3.6196,-3.6414,-3.6492,-3.6492,-3.6492,-3.6492,-3.6492,-3.6492,-3.6492,-3.6492,-3.6492,-3.6492,-3.6492,-3.6492,-3.6492,-3.6492,-3.6492,-3.6492,-3.6492,-3.6352,-3.6274,-3.6429,-3.6274,-3.6289,-3.6367,-3.6383,-3.6492,-3.6429,-3.6429,-3.6429,-3.6492,-3.6352,-3.6461,-3.6353,-3.6322,-3.6384,-3.6276,-3.5845,-3.5431,-3.4985,-3.4643,-3.4011,-3.2588,-3.1023,-2.991,-2.9961,-3.0367,-3.082,-3.1119,-3.2173,-3.2547,-3.2232,-3.2033,-3.1793,-3.184,-3.2081,-3.3042,-3.3758,-3.5213,-3.7235,-3.828,-3.9439,-4.0697,-4.1956,-4.2521,-4.1897,-3.5742,-3.5855,-3.6395,-3.6884,-3.6981,-3.5979,-3.5951,-3.6693,-3.6772,-3.6836,-3.6978,-3.6978,-3.7505,-3.8277,-3.8634,-3.9235,-4.0036,-4.0106,-4.0032,-3.9886,-3.965,-3.9734,-3.984,-3.9508,-3.9524,-3.9862,-3.9247,-3.8708,-3.8231,-3.7353,-3.6753,-3.6522,-3.6492,-3.6492,-3.6492,-3.6414,-3.6336,-3.6211,-3.6148,-3.6037,-3.5797,-3.5797,-3.5797,-3.5797,-3.5846,-3.5894,-3.6006,-3.6133,-3.6274,-3.6352,-3.6492,-3.6492,-3.6492,-3.6492,-3.6492,-3.6492,-3.6492,-3.6492,-3.6492,-3.6492,-3.6492,-3.6492,-3.6492,-3.6492,-3.6492,-3.6492,-3.6492,-3.6492,-3.6399,-3.6429,-3.6492,-3.6414,-3.6414,-3.6445,-3.6138,-3.6045,-3.6461,-3.6122,-3.5891,-3.5891,-3.5891,-3.5722,-3.5399,-3.5291,-3.5291,-3.5276,-3.5014,-3.4772,-3.4561,-3.4304,-3.3905,-3.325,-3.1893,-3.126,-3.1355,-3.1536,-3.1783,-3.2245,-3.286,-3.3072,-3.3381,-3.3283,-3.3156,-3.3121,-3.3789,-3.4364,-3.4845,-3.6268,-3.7962,-3.8973,-4.0362,-4.1796,-4.2904,-4.3228,-4.2704,-3.4666,-3.4809,-3.5444,-3.6276,-3.6895,-3.6253,-3.6284,-3.69,-3.6978,-3.6978,-3.6978,-3.6978,-3.7366,-3.7886,-3.8412,-3.8855,-3.941,-3.9536,-3.9313,-3.8789,-3.8811,-3.8971,-3.9198,-3.8765,-3.8862,-3.9293,-3.8646,-3.7877,-3.723,-3.6753,-3.6492,-3.6492,-3.6492,-3.6492,-3.6492,-3.6492,-3.6429,-3.6274,-3.6258,-3.6226,-3.6163,-3.6163,-3.61,-3.6037,-3.6022,-3.61,-3.6211,-3.6274,-3.6352,-3.6492,-3.6492,-3.6492,-3.6492,-3.6492,-3.6492,-3.6492,-3.6492,-3.6492,-3.6492,-3.6492,-3.6492,-3.6492,-3.6492,-3.6492,-3.6492,-3.6492,-3.6492,-3.6476,-3.6322,-3.6245,-3.6476,-3.6492,-3.6492,-3.6445,-3.5891,-3.5722,-3.6091,-3.5614,-3.5214,-3.5214,-3.5199,-3.5045,-3.4614,-3.4522,-3.4568,-3.4552,-3.4337,-3.4183,-3.4183,-3.3874,-3.3607,-3.3562,-3.2753,-3.2362,-3.2679,-3.2374,-3.2569,-3.3044,-3.3423,-3.3839,-3.4341,-3.4447,-3.4812,-3.4906,-3.553,-3.5935,-3.6073,-3.7337,-3.8447,-3.9343,-4.0672,-4.2145,-4.2803,-4.3217,-4.3122,-3.3875,-3.3815,-3.4028,-3.4934,-3.5982,-3.6238,-3.6615,-3.6978,-3.6978,-3.6978,-3.6978,-3.6978,-3.7352,-3.7886,-3.7976,-3.8209,-3.8582,-3.784,-3.7373,-3.7223,-3.7075,-3.7595,-3.865,-3.8565,-3.8831,-3.92,-3.8123,-3.7215,-3.6599,-3.6522,-3.6492,-3.6492,-3.6492,-3.6492,-3.6492,-3.6492,-3.6492,-3.6492,-3.6476,-3.6492,-3.6492,-3.6492,-3.6304,-3.61,-3.6148,-3.6211,-3.6211,-3.6414,-3.6492,-3.6492,-3.6492,-3.6492,-3.6492,-3.6492,-3.6492,-3.6492,-3.6492,-3.6492,-3.6492,-3.6492,-3.6492,-3.6492,-3.6492,-3.6492,-3.6492,-3.6492,-3.6492,-3.6492,-3.5953,-3.583,-3.6307,-3.6292,-3.6322,-3.6292,-3.5799,-3.546,-3.5491,-3.4922,-3.4552,-3.4506,-3.446,-3.4337,-3.4368,-3.446,-3.4321,-3.4198,-3.3844,-3.346,-3.346,-3.3387,-3.3345,-3.3337,-3.3186,-3.3107,-3.2559,-3.2408,-3.2607,-3.3138,-3.3815,-3.4528,-3.4949,-3.5477,-3.6042,-3.6565,-3.691,-3.7118,-3.7254,-3.7743,-3.859,-3.9535,-4.065,-4.1818,-4.2038,-4.3139,-4.2977,-3.3932,-3.3801,-3.3279,-3.4126,-3.5818,-3.5628,-3.6111,-3.6978,-3.6978,-3.6978,-3.6978,-3.6978,-3.7352,-3.7886,-3.7505,-3.7832,-3.8616,-3.7914,-3.7518,-3.7423,-3.6945,-3.7173,-3.7858,-3.748,-3.7569,-3.8,-3.7307,-3.6738,-3.6538,-3.6492,-3.6492,-3.6492,-3.6492,-3.6492,-3.6492,-3.6492,-3.6492,-3.6492,-3.6492,-3.6492,-3.6492,-3.6492,-3.6429,-3.6352,-3.6352,-3.6414,-3.6414,-3.6492,-3.6492,-3.6492,-3.6492,-3.6492,-3.6492,-3.6492,-3.6492,-3.6492,-3.6492,-3.6492,-3.6492,-3.6492,-3.6492,-3.6492,-3.6492,-3.6492,-3.6492,-3.6492,-3.6492,-3.6384,-3.5876,-3.566,-3.566,-3.5476,-3.5199,-3.5122,-3.4555,-3.434,-3.4583,-3.4186,-3.3683,-3.3737,-3.3444,-3.3136,-3.3229,-3.3152,-3.3152,-3.3121,-3.2921,-3.2813,-3.2767,-3.2752,-3.2711,-3.2614,-3.2627,-3.2658,-3.267,-3.2463,-3.2608,-3.3281,-3.393,-3.4788,-3.5422,-3.6576,-3.7279,-3.7936,-3.8231,-3.8538,-3.8709,-3.8186,-3.8932,-3.9405,-4.0552,-4.0757,-4.0937,-4.1643,-4.1537,-3.3397,-3.3191,-3.2758,-3.3662,-3.5275,-3.5274,-3.5937,-3.69,-3.6978,-3.6978,-3.6978,-3.6993,-3.7211,-3.7519,-3.7211,-3.7429,-3.8086,-3.739,-3.6823,-3.6605,-3.6109,-3.6283,-3.6873,-3.6489,-3.672,-3.7307,-3.6815,-3.6492,-3.6492,-3.6492,-3.6492,-3.6492,-3.6492,-3.6492,-3.6492,-3.6492,-3.6492,-3.6492,-3.6492,-3.6492,-3.6492,-3.6492,-3.6492,-3.6492,-3.6492,-3.6492,-3.6492,-3.6492,-3.6492,-3.6492,-3.6492,-3.6492,-3.6492,-3.6492,-3.6492,-3.6492,-3.6492,-3.6492,-3.6492,-3.6492,-3.6492,-3.6492,-3.6492,-3.6492,-3.6492,-3.6492,-3.6492,-3.6338,-3.5645,-3.5168,-3.4968,-3.4337,-3.3983,-3.4245,-3.3787,-3.3499,-3.4014,-3.3449,-3.3095,-3.3029,-3.2752,-3.2475,-3.2398,-3.2428,-3.2444,-3.2398,-3.2398,-3.2351,-3.2121,-3.202,-3.198,-3.1925,-3.1774,-3.197,-3.2122,-3.2121,-3.2741,-3.3446,-3.3839,-3.4789,-3.5954,-3.727,-3.8363,-3.9117,-3.9651,-3.9975,-3.9788,-3.9094,-3.9039,-3.9358,-3.9461,-3.9662,-3.9751,-3.9817,-3.9743,-3.2214,-3.1946,-3.2575,-3.3407,-3.4454,-3.5182,-3.6163,-3.69,-3.6978,-3.6978,-3.6978,-3.6978,-3.7056,-3.7042,-3.6986,-3.7,-3.6852,-3.5911,-3.5218,-3.4751,-3.4407,-3.4913,-3.5931,-3.5839,-3.6374,-3.7353,-3.6799,-3.6507,-3.6492,-3.6492,-3.6492,-3.6492,-3.6492,-3.6492,-3.6492,-3.6492,-3.6492,-3.6492,-3.6492,-3.6492,-3.6492,-3.6492,-3.6492,-3.6492,-3.6492,-3.6492,-3.6492,-3.6492,-3.6492,-3.6492,-3.6492,-3.6492,-3.6492,-3.6492,-3.6492,-3.6492,-3.6492,-3.6492,-3.6492,-3.6492,-3.6492,-3.6492,-3.6492,-3.6492,-3.6492,-3.6492,-3.6492,-3.6322,-3.543,-3.4599,-3.4383,-3.346,-3.3106,-3.4091,-3.3587,-3.328,-3.326,-3.2829,-3.2413,-3.2444,-3.2351,-3.2382,-3.2382,-3.229,-3.2275,-3.2367,-3.2398,-3.2127,-3.1636,-3.1404,-3.1258,-3.1128,-3.1049,-3.1127,-3.1407,-3.173,-3.2713,-3.3569,-3.3854,-3.4508,-3.5812,-3.7116,-3.841,-3.9277,-4.0323,-4.065,-4.0097,-3.943,-3.8944,-3.9043,-3.8867,-3.8394,-3.8249,-3.8186,-3.8187,-3.2178,-3.1773,-3.2001,-3.298,-3.421,-3.4637,-3.5561,-3.69,-3.6978,-3.6978,-3.6978,-3.6978,-3.6978,-3.6958,-3.6725,-3.6527,-3.6324,-3.53,-3.5018,-3.5257,-3.4496,-3.447,-3.519,-3.5583,-3.6064,-3.6675,-3.6599,-3.6492,-3.6492,-3.6492,-3.6492,-3.6492,-3.6492,-3.6492,-3.6492,-3.6492,-3.6492,-3.6492,-3.6492,-3.6492,-3.6492,-3.6492,-3.6492,-3.6492,-3.6492,-3.6492,-3.6492,-3.6492,-3.6492,-3.6492,-3.6492,-3.6492,-3.6492,-3.6492,-3.6492,-3.6492,-3.6492,-3.6492,-3.6492,-3.6492,-3.6492,-3.6492,-3.6492,-3.6492,-3.6492,-3.6492,-3.6492,-3.643,-3.5676,-3.5014,-3.4429,-3.366,-3.3121,-3.3059,-3.2732,-3.264,-3.2767,-3.2536,-3.2428,-3.2321,-3.1982,-3.1921,-3.2182,-3.2121,-3.1943,-3.217,-3.2231,-3.1986,-3.1326,-3.1043,-3.0806,-3.0379,-3.0286,-3.0307,-3.0664,-3.0844,-3.1252,-3.2231,-3.2857,-3.3684,-3.5131,-3.6865,-3.8173,-3.9526,-4.0533,-4.0778,-4.0243,-3.9542,-3.8854,-3.8176,-3.7626,-3.7123,-3.6634,-3.6595,-3.6688,-3.2176,-3.195,-3.1849,-3.2587,-3.3914,-3.4152,-3.5142,-3.6494,-3.69,-3.6978,-3.6978,-3.7056,-3.7134,-3.7063,-3.6892,-3.667,-3.6208,-3.5378,-3.5149,-3.5286,-3.437,-3.4137,-3.4755,-3.5428,-3.5816,-3.6148,-3.6414,-3.6492,-3.6492,-3.6616,-3.6677,-3.6677,-3.6677,-3.6693,-3.6693,-3.6554,-3.6492,-3.6492,-3.6492,-3.6492,-3.6492,-3.6492,-3.6492,-3.6492,-3.6492,-3.6492,-3.6492,-3.6492,-3.6492,-3.6492,-3.6492,-3.6492,-3.6492,-3.6492,-3.6492,-3.6492,-3.6492,-3.6492,-3.6492,-3.6492,-3.6492,-3.6492,-3.6492,-3.6492,-3.6492,-3.6492,-3.6492,-3.6415,-3.5614,-3.4997,-3.4445,-3.3552,-3.2875,-3.2475,-3.2388,-3.2302,-3.2398,-3.2398,-3.2398,-3.2321,-3.2004,-3.1989,-3.2097,-3.2081,-3.1811,-3.2059,-3.2135,-3.1906,-3.1217,-3.0767,-3.028,-2.9795,-2.9546,-2.9717,-3.0053,-3.0008,-2.9877,-3.0647,-3.1461,-3.2533,-3.3777,-3.5902,-3.7597,-3.9229,-4.0456,-4.0381,-3.9881,-3.8752,-3.7906,-3.7183,-3.6658,-3.6139,-3.5762,-3.5515,-3.558,-3.2213,-3.24,-3.2125,-3.2537,-3.3471,-3.4082,-3.4897,-3.5816,-3.6652,-3.707,-3.7056,-3.7226,-3.7303,-3.7366,-3.7263,-3.6982,-3.661,-3.5711,-3.511,-3.4569,-3.3847,-3.3772,-3.4293,-3.5118,-3.5688,-3.5879,-3.6352,-3.6554,-3.6662,-3.6923,-3.6999,-3.6999,-3.6999,-3.7015,-3.6938,-3.6677,-3.6569,-3.6492,-3.6492,-3.6492,-3.6554,-3.6554,-3.6554,-3.66,-3.6616,-3.6616,-3.6677,-3.6662,-3.6616,-3.6492,-3.6492,-3.6492,-3.6492,-3.6492,-3.6492,-3.6554,-3.6554,-3.6616,-3.6538,-3.6616,-3.6554,-3.6616,-3.6554,-3.6492,-3.6492,-3.6492,-3.6492,-3.643,-3.5414,-3.4614,-3.4291,-3.3383,-3.2644,-3.2413,-3.2342,-3.2398,-3.2398,-3.2398,-3.2398,-3.2382,-3.2272,-3.216,-3.217,-3.2139,-3.1998,-3.2023,-3.2079,-3.1734,-3.1046,-3.0437,-2.99,-2.9455,-2.8997,-2.9049,-2.9325,-2.9207,-2.9132,-2.9666,-3.0335,-3.1212,-3.258,-3.4712,-3.6675,-3.8361,-3.9436,-3.9438,-3.9061,-3.7735,-3.7152,-3.6881,-3.6208,-3.5494,-3.5003,-3.4695,-3.47,-3.2313,-3.24,-3.2313,-3.2723,-3.3484,-3.4288,-3.5087,-3.599,-3.6808,-3.7226,-3.738,-3.7457,-3.7534,-3.7448,-3.6816,-3.6501,-3.6298,-3.5253,-3.4652,-3.4597,-3.4028,-3.3868,-3.4153,-3.4743,-3.5494,-3.6006,-3.6476,-3.6984,-3.7134,-3.7254,-3.7314,-3.7314,-3.7329,-3.7225,-3.6999,-3.6938,-3.6739,-3.6554,-3.6492,-3.6616,-3.6816,-3.6877,-3.6968,-3.7118,-3.7118,-3.7118,-3.7194,-3.7178,-3.6952,-3.6554,-3.6492,-3.6492,-3.6492,-3.6554,-3.6616,-3.6816,-3.6877,-3.6984,-3.7074,-3.6984,-3.6877,-3.6877,-3.6616,-3.6492,-3.6492,-3.6492,-3.6492,-3.6353,-3.5691,-3.4924,-3.4327,-3.3441,-3.2813,-3.2338,-3.2358,-3.2398,-3.2398,-3.2398,-3.2398,-3.2367,-3.1927,-3.1903,-3.1992,-3.187,-3.1637,-3.1819,-3.1838,-3.1702,-3.097,-3.0283,-2.9793,-2.8967,-2.8479,-2.8472,-2.8472,-2.8336,-2.8423,-2.8813,-2.935,-2.98,-3.1381,-3.3254,-3.5077,-3.6805,-3.7192,-3.7296,-3.7012,-3.6251,-3.6202,-3.6091,-3.5082,-3.4034,-3.4134,-3.399,-3.4038,-3.2562,-3.2661,-3.2562,-3.2723,-3.3142,-3.3894,-3.4468,-3.5182,-3.6229,-3.6886,-3.712,-3.7534,-3.7558,-3.7333,-3.7037,-3.6577,-3.6086,-3.5379,-3.4877,-3.445,-3.4311,-3.4194,-3.4185,-3.4587,-3.5118,-3.5574,-3.6414,-3.6769,-3.7042,-3.7342,-3.7594,-3.7594,-3.7594,-3.7551,-3.7389,-3.7225,-3.7089,-3.6892,-3.6907,-3.6952,-3.715,-3.7165,-3.7194,-3.7358,-3.7401,-3.7401,-3.7401,-3.7401,-3.7238,-3.6952,-3.6892,-3.6846,-3.6754,-3.6846,-3.6923,-3.6999,-3.7105,-3.7254,-3.7314,-3.7165,-3.6999,-3.6938,-3.6693,-3.6554,-3.6492,-3.6492,-3.6492,-3.643,-3.5784,-3.5063,-3.4342,-3.3468,-3.2916,-3.2732,-3.2511,-3.2413,-3.2398,-3.2398,-3.2398,-3.229,-3.2035,-3.1772,-3.2104,-3.1769,-3.1647,-3.1649,-3.1784,-3.1516,-3.1072,-3.0342,-2.9723,-2.8974,-2.8396,-2.8381,-2.8297,-2.8157,-2.8147,-2.849,-2.8855,-2.9155,-3.0652,-3.2337,-3.3676,-3.5023,-3.51,-3.5193,-3.5168,-3.5013,-3.4689,-3.4298,-3.3338,-3.316,-3.3317,-3.3177,-3.3273,-3.2896,-3.3068,-3.2797,-3.2711,-3.2797,-3.3227,-3.3713,-3.4024,-3.5318,-3.6136,-3.6624,-3.7366,-3.7534,-3.7197,-3.7461,-3.7128,-3.5836,-3.5737,-3.5189,-3.4733,-3.4634,-3.4622,-3.4333,-3.4889,-3.5228,-3.5437,-3.6061,-3.6474,-3.6847,-3.7512,-3.777,-3.777,-3.7828,-3.7886,-3.777,-3.7594,-3.746,-3.7342,-3.7282,-3.7358,-3.7417,-3.7476,-3.7535,-3.7594,-3.7594,-3.7594,-3.7594,-3.7535,-3.7535,-3.7551,-3.7417,-3.7254,-3.7121,-3.7254,-3.7314,-3.721,-3.7373,-3.7476,-3.746,-3.7329,-3.7105,-3.706,-3.6739,-3.6492,-3.6492,-3.6492,-3.6492,-3.6492,-3.5723,-3.5063,-3.4386,-3.3249,-3.2895,-3.3034,-3.2782,-3.2444,-3.2398,-3.2398,-3.2398,-3.2398,-3.2287,-3.2206,-3.2038,-3.1996,-3.1925,-3.1709,-3.1697,-3.1501,-3.1069,-3.0383,-2.9868,-2.9403,-2.8897,-2.8414,-2.8223,-2.805,-2.81,-2.824,-2.8565,-2.9108,-3.0537,-3.194,-3.2816,-3.3436,-3.3252,-3.3572,-3.4086,-3.379,-3.3399,-3.3128,-3.265,-3.2751,-3.2869,-3.2406,-3.2245,-3.3068,-3.3081,-3.3081,-3.2896,-3.2896,-3.3569,-3.3966,-3.4011,-3.4979,-3.5869,-3.6688,-3.7028,-3.7405,-3.7837,-3.7259,-3.6939,-3.6954,-3.5822,-3.4795,-3.5256,-3.5186,-3.5244,-3.5215,-3.5744,-3.6226,-3.6363,-3.6592,-3.6865,-3.714,-3.7322,-3.746,-3.7535,-3.796,-3.8148,-3.7886,-3.7828,-3.7637,-3.746,-3.7417,-3.7594,-3.777,-3.7828,-3.7902,-3.8091,-3.8148,-3.8148,-3.8164,-3.8164,-3.8221,-3.8091,-3.7727,-3.7433,-3.7373,-3.7417,-3.7476,-3.7669,-3.7727,-3.7902,-3.8033,-3.7844,-3.7594,-3.727,-3.6984,-3.6816,-3.6492,-3.6492,-3.6492,-3.6384,-3.5876,-3.5155,-3.4451,-3.3579,-3.3196,-3.3176,-3.2803,-3.2398,-3.2398,-3.2398,-3.2398,-3.2398,-3.2342,-3.2302,-3.2191,-3.215,-3.2038,-3.1784,-3.1637,-3.1471,-3.1005,-3.0463,-2.9946,-2.9524,-2.9016,-2.8536,-2.8282,-2.8103,-2.8152,-2.8201,-2.8429,-2.8715,-3.0145,-3.0846,-3.1451,-3.1434,-3.1205,-3.1808,-3.2832,-3.2604,-3.2201,-3.2083,-3.2006,-3.1982,-3.1883,-3.1466,-3.1703,-3.3081,-3.3081,-3.3081,-3.2982,-3.2982,-3.3313,-3.3471,-3.3687,-3.4332,-3.5292,-3.6201,-3.6688,-3.7258,-3.7752,-3.7099,-3.6939,-3.6562,-3.5619,-3.5212,-3.5691,-3.5836,-3.5981,-3.617,-3.6227,-3.6336,-3.6011,-3.6401,-3.6636,-3.6689,-3.7277,-3.7578,-3.7087,-3.7886,-3.8017,-3.7828,-3.796,-3.8033,-3.796,-3.7844,-3.7976,-3.8091,-3.8132,-3.8205,-3.8335,-3.8391,-3.8391,-3.8391,-3.8391,-3.8391,-3.8351,-3.8033,-3.777,-3.7711,-3.7786,-3.7902,-3.7886,-3.8075,-3.8205,-3.8278,-3.796,-3.7594,-3.7417,-3.7029,-3.6739,-3.6554,-3.6492,-3.6492,-3.643,-3.6091,-3.5569,-3.5095,-3.3839,-3.3545,-3.3545,-3.2942,-3.2444,-3.2413,-3.2398,-3.2398,-3.2398,-3.2398,-3.2358,-3.2247,-3.2247,-3.215,-3.194,-3.1868,-3.1702,-3.1203,-3.0643,-3.0,-2.9544,-2.9032,-2.8625,-2.8369,-2.825,-2.8299,-2.8299,-2.8396,-2.8539,-2.9202,-2.9501,-2.9669,-2.9987,-3.0456,-3.0909,-3.1675,-3.1338,-3.1269,-3.1309,-3.1263,-3.1128,-3.094,-3.0729,-3.1303,-3.3081,-3.3081,-3.3081,-3.3081,-3.3081,-3.2896,-3.2982,-3.3142,-3.3602,-3.4489,-3.5412,-3.6314,-3.6717,-3.7199,-3.6968,-3.6257,-3.5561,-3.5444,-3.5546,-3.5894,-3.5938,-3.617,-3.6446,-3.6156,-3.563,-3.4636,-3.5654,-3.5929,-3.6091,-3.7013,-3.7147,-3.6646,-3.7754,-3.8017,-3.7711,-3.8033,-3.8335,-3.8278,-3.8278,-3.8335,-3.8335,-3.8335,-3.8391,-3.8391,-3.8391,-3.8391,-3.8391,-3.8391,-3.8391,-3.8391,-3.8391,-3.8262,-3.8148,-3.8205,-3.8262,-3.8001,-3.8262,-3.8278,-3.8205,-3.7828,-3.7476,-3.7373,-3.6907,-3.66,-3.6554,-3.6492,-3.6492,-3.6429,-3.6244,-3.6166,-3.612,-3.4879,-3.4275,-3.4214,-3.3383,-3.2659,-3.2536,-3.249,-3.2398,-3.2398,-3.2398,-3.2342,-3.2302,-3.2247,-3.215,-3.2094,-3.2023,-3.1779,-3.1247,-3.07,-3.0022,-2.9327,-2.8782,-2.8618,-2.8391,-2.8314,-2.8348,-2.8396,-2.8411,-2.8491,-2.8537,-2.8777,-2.9155,-2.9731,-3.0222,-3.0587,-3.0718,-3.0637,-3.0631,-3.0648,-3.0373,-3.0062,-2.9964,-2.9984,-3.0756,-3.3081,-3.3081,-3.3081,-3.3081,-3.3081,-3.3068,-3.3056,-3.3081,-3.3177,-3.3848,-3.4792,-3.5002,-3.5969,-3.6734,-3.6083,-3.5285,-3.4961,-3.5179,-3.543,-3.559,-3.559,-3.5764,-3.5793,-3.5648,-3.5096,-3.483,-3.5184,-3.5486,-3.557,-3.6216,-3.6477,-3.615,-3.7401,-3.7902,-3.7711,-3.8017,-3.8335,-3.8391,-3.8391,-3.8391,-3.8391,-3.8391,-3.8391,-3.8391,-3.8391,-3.8408,-3.8408,-3.8408,-3.8391,-3.8391,-3.8391,-3.8351,-3.8335,-3.8335,-3.8335,-3.8335,-3.8262,-3.8278,-3.8017,-3.7886,-3.7551,-3.7225,-3.6923,-3.6739,-3.6554,-3.6492,-3.6492,-3.6492,-3.6492,-3.6414,-3.6461,-3.5476,-3.5214,-3.4953,-3.4091,-3.3183,-3.3075,-3.2752,-3.2428,-3.2398,-3.2398,-3.2382,-3.2287,-3.2247,-3.2191,-3.215,-3.2135,-3.154,-3.0731,-3.0326,-2.9806,-2.9173,-2.8501,-2.8424,-2.8411,-2.8411,-2.8411,-2.8411,-2.8411,-2.8411,-2.8475,-2.8427,-2.8777,-2.9419,-2.9793,-2.998,-3.0006,-3.0064,-3.0351,-3.0647,-2.9908,-2.8983,-2.9311,-2.9623,-2.9999,-3.3081,-3.3081,-3.3081,-3.3081,-3.3081,-3.3081,-3.2893,-3.2654,-3.2616,-3.3273,-3.407,-3.4403,-3.5245,-3.6216,-3.5962,-3.5146,-3.4855,-3.5136,-3.5412,-3.5427,-3.5427,-3.5427,-3.5339,-3.5053,-3.4733,-3.4545,-3.4801,-3.4976,-3.5039,-3.5937,-3.5976,-3.5834,-3.6768,-3.7326,-3.7476,-3.7669,-3.8091,-3.8278,-3.8391,-3.8391,-3.8391,-3.8391,-3.8408,-3.8391,-3.8448,-3.8504,-3.852,-3.852,-3.852,-3.852,-3.8464,-3.8408,-3.8391,-3.8391,-3.8391,-3.8335,-3.8262,-3.8075,-3.7844,-3.7669,-3.727,-3.7044,-3.6877,-3.6693,-3.6554,-3.6492,-3.6492,-3.6492,-3.6492,-3.6492,-3.6476,-3.5815,-3.5416,-3.5109,-3.4099,-3.3395,-3.3146,-3.2655,-3.2425,-3.2302,-3.2302,-3.2231,-3.2287,-3.2247,-3.2191,-3.2191,-3.2191,-3.145,-3.0462,-3.0124,-2.9833,-2.9008,-2.8411,-2.846,-2.8444,-2.8444,-2.8444,-2.8444,-2.8444,-2.8444,-2.8541,-2.8573,-2.8826,-2.9275,-2.9448,-2.9607,-2.9895,-3.0164,-3.0402,-3.0464,-2.9454,-2.8761,-2.9027,-2.9375,-2.9694,-3.3081,-3.3068,-3.2955,-3.2905,-3.288,-3.278,-3.2453,-3.2114,-3.2051,-3.2691,-3.3603,-3.3778,-3.4604,-3.5683,-3.5715,-3.5229,-3.4704,-3.5049,-3.5165,-3.5179,-3.5179,-3.5223,-3.5078,-3.4816,-3.4563,-3.4645,-3.4727,-3.4631,-3.4808,-3.5672,-3.5846,-3.5823,-3.6161,-3.6754,-3.7322,-3.7468,-3.7833,-3.8205,-3.8391,-3.8391,-3.8391,-3.8448,-3.8448,-3.8448,-3.856,-3.86,-3.856,-3.8576,-3.856,-3.8504,-3.8464,-3.8335,-3.8335,-3.8278,-3.8278,-3.8148,-3.8001,-3.7886,-3.761,-3.7345,-3.7044,-3.6877,-3.6616,-3.6554,-3.6492,-3.6492,-3.6492,-3.6492,-3.6492,-3.6492,-3.6352,-3.5876,-3.5462,-3.4988,-3.4164,-3.3295,-3.3119,-3.2737,-3.2338,-3.2191,-3.215,-3.215,-3.215,-3.2135,-3.215,-3.2191,-3.2176,-3.1512,-3.0661,-3.0422,-2.9961,-2.8981,-2.8411,-2.846,-2.8493,-2.8541,-2.8525,-2.8525,-2.8573,-2.8573,-2.87,-2.8826,-2.9136,-2.9332,-2.9364,-2.9542,-2.9896,-3.0099,-3.0054,-2.9754,-2.8801,-2.8606,-2.9082,-2.9193,-2.931,-3.3081,-3.3031,-3.2528,-3.2315,-3.2252,-3.1838,-3.1574,-3.1499,-3.1486,-3.2096,-3.2928,-3.3064,-3.3977,-3.5136,-3.547,-3.5034,-3.47,-3.4545,-3.4646,-3.4661,-3.4782,-3.485,-3.4844,-3.489,-3.4802,-3.4802,-3.4868,-3.4817,-3.4868,-3.5544,-3.5814,-3.574,-3.6091,-3.6894,-3.7188,-3.723,-3.7743,-3.8278,-3.8391,-3.8391,-3.8391,-3.8504,-3.856,-3.8616,-3.8655,-3.8694,-3.8616,-3.8632,-3.8576,-3.8464,-3.8408,-3.8262,-3.8001,-3.7943,-3.777,-3.7711,-3.7653,-3.7669,-3.7225,-3.6999,-3.6816,-3.6677,-3.6554,-3.6492,-3.6492,-3.6492,-3.6492,-3.6492,-3.6492,-3.6429,-3.6336,-3.6291,-3.5891,-3.5217,-3.4436,-3.379,-3.3418,-3.2691,-3.2252,-3.2094,-3.2109,-3.1996,-3.1996,-3.1996,-3.2053,-3.215,-3.2023,-3.1359,-3.0744,-3.0335,-2.9889,-2.8842,-2.8541,-2.8636,-2.8525,-2.8621,-2.8605,-2.8605,-2.8605,-2.8653,-2.8873,-2.909,-2.9393,-2.9556,-2.9572,-2.9826,-3.0376,-3.0398,-2.9847,-2.9437,-2.8981,-2.9005,-2.9223,-2.9208,-2.9081,-3.2275,-3.32,-3.247,-3.2263,-3.2367,-3.1719,-3.121,-3.0997,-3.0934,-3.1227,-3.1805,-3.232,-3.3407,-3.4781,-3.4903,-3.4758,-3.4525,-3.4414,-3.4414,-3.4414,-3.4631,-3.4698,-3.4712,-3.4817,-3.4935,-3.4935,-3.5001,-3.4935,-3.5001,-3.5082,-3.5311,-3.5642,-3.5544,-3.5861,-3.689,-3.6894,-3.7238,-3.7711,-3.8148,-3.8448,-3.852,-3.856,-3.8616,-3.8711,-3.875,-3.875,-3.8711,-3.8616,-3.8576,-3.8464,-3.8319,-3.8075,-3.7886,-3.7711,-3.7476,-3.721,-3.727,-3.7225,-3.706,-3.6816,-3.6677,-3.6554,-3.6492,-3.6429,-3.6352,-3.6352,-3.6352,-3.6352,-3.6414,-3.6414,-3.6244,-3.5983,-3.563,-3.5125,-3.4406,-3.3839,-3.3299,-3.2675,-3.2191,-3.2109,-3.2012,-3.1955,-3.1898,-3.1826,-3.1925,-3.1992,-3.1769,-3.1106,-3.036,-2.9716,-2.9218,-2.8596,-2.8636,-2.8811,-2.87,-2.8637,-2.87,-2.8653,-2.8525,-2.8653,-2.9059,-2.9319,-2.9726,-3.0146,-3.0368,-3.0672,-3.1024,-3.0497,-2.9783,-2.9545,-2.9396,-2.9449,-2.9521,-2.9185,-2.9068,-3.1656,-3.2878,-3.2196,-3.1979,-3.2029,-3.1516,-3.0905,-3.0432,-3.0631,-3.0881,-3.1447,-3.2318,-3.3479,-3.4332,-3.4525,-3.4525,-3.4631,-3.4467,-3.4414,-3.4481,-3.4616,-3.475,-3.4817,-3.4935,-3.5082,-3.5016,-3.5228,-3.5148,-3.5001,-3.4964,-3.5156,-3.5654,-3.5606,-3.5794,-3.6425,-3.7018,-3.7429,-3.7786,-3.8262,-3.8504,-3.856,-3.8672,-3.8711,-3.8805,-3.8805,-3.8805,-3.8766,-3.8672,-3.8632,-3.8319,-3.8132,-3.7886,-3.761,-3.7373,-3.715,-3.6923,-3.6923,-3.6923,-3.6816,-3.6693,-3.6554,-3.6492,-3.6429,-3.6352,-3.6274,-3.6211,-3.6211,-3.6211,-3.6414,-3.6429,-3.6291,-3.5769,-3.5416,-3.482,-3.4086,-3.3582,-3.3077,-3.2542,-3.2206,-3.215,-3.2053,-3.1883,-3.1826,-3.1712,-3.1739,-3.1834,-3.1445,-3.0838,-3.0099,-2.9317,-2.8962,-2.8541,-2.8763,-2.8982,-2.9013,-2.892,-2.8873,-2.8732,-2.8605,-2.8779,-2.9273,-2.9778,-3.0277,-3.0683,-3.1069,-3.1633,-3.2048,-3.0851,-2.9736,-2.9735,-2.9716,-2.9817,-2.977,-2.9431,-2.9316,-3.1516,-3.1746,-3.1237,-3.0907,-3.0858,-3.088,-3.0534,-2.9982,-3.0585,-3.1211,-3.2028,-3.3381,-3.4045,-3.4399,-3.4414,-3.4414,-3.4414,-3.4414,-3.4414,-3.4549,-3.4668,-3.4868,-3.5001,-3.5213,-3.5424,-3.5424,-3.5424,-3.5294,-3.5148,-3.4935,-3.5207,-3.5551,-3.5585,-3.6507,-3.7121,-3.7421,-3.7916,-3.8187,-3.8448,-3.8504,-3.8672,-3.8766,-3.8876,-3.8805,-3.886,-3.886,-3.8616,-3.856,-3.8375,-3.8075,-3.7828,-3.7535,-3.721,-3.7029,-3.68,-3.6616,-3.6616,-3.6616,-3.6554,-3.6554,-3.6492,-3.6429,-3.6352,-3.6274,-3.6211,-3.6211,-3.6211,-3.6165,-3.6306,-3.6291,-3.6075,-3.5753,-3.5063,-3.4588,-3.3808,-3.3345,-3.2916,-3.2568,-3.2277,-3.2206,-3.2094,-3.1981,-3.1925,-3.1868,-3.1868,-3.1977,-3.128,-3.0654,-2.994,-2.9211,-2.8965,-2.8748,-2.8982,-2.9167,-2.9335,-2.9289,-2.9059,-2.9013,-2.8873,-2.9227,-2.9661,-3.0163,-3.057,-3.1233,-3.1635,-3.236,-3.279,-3.1757,-3.0845,-3.0226,-3.0037,-3.0114,-3.0302,-3.0287,-3.0179,-2.9896,-2.9961,-3.0268,-3.0576,-3.0714,-3.0369,-3.0062,-2.9856,-3.0139,-3.0921,-3.216,-3.3157,-3.3962,-3.4264,-3.4414,-3.4414,-3.4414,-3.4414,-3.4481,-3.4616,-3.4817,-3.4935,-3.5148,-3.5294,-3.5489,-3.5504,-3.5504,-3.5294,-3.5001,-3.4935,-3.4823,-3.5043,-3.5333,-3.5576,-3.6228,-3.7389,-3.7982,-3.835,-3.8448,-3.8504,-3.8616,-3.8672,-3.8766,-3.8805,-3.8711,-3.8711,-3.856,-3.8319,-3.8059,-3.7828,-3.7417,-3.7074,-3.6846,-3.6662,-3.6476,-3.6352,-3.6414,-3.6492,-3.6492,-3.6492,-3.6492,-3.6492,-3.6352,-3.618,-3.615,-3.6196,-3.6196,-3.6166,-3.6076,-3.5999,-3.5738,-3.4862,-3.406,-3.3863,-3.3571,-3.3121,-3.2813,-3.2486,-3.2333,-3.2247,-3.2206,-3.2094,-3.2094,-3.2023,-3.2094,-3.2074,-3.1251,-3.0489,-2.9794,-2.9387,-2.9186,-2.9202,-2.945,-2.9559,-2.9758,-2.9555,-2.9261,-2.9293,-2.9324,-2.9701,-3.0131,-3.0241,-3.0675,-3.1446,-3.2121,-3.2696,-3.2856,-3.2475,-3.1916,-3.123,-3.0738,-3.0437,-3.0683,-3.0997,-3.0843,-2.9189,-2.9252,-2.9779,-3.0209,-3.0532,-3.0279,-3.0011,-2.9856,-3.0075,-3.0996,-3.2448,-3.3017,-3.3659,-3.4182,-3.4414,-3.4414,-3.4414,-3.4414,-3.4481,-3.4616,-3.4817,-3.4935,-3.5148,-3.5359,-3.5489,-3.5504,-3.5374,-3.5228,-3.4935,-3.4868,-3.4898,-3.4831,-3.4787,-3.5249,-3.6006,-3.6966,-3.7976,-3.8278,-3.8448,-3.852,-3.8632,-3.8672,-3.8672,-3.8766,-3.8672,-3.8488,-3.8319,-3.8075,-3.7754,-3.7417,-3.7074,-3.6708,-3.6476,-3.6352,-3.6211,-3.6274,-3.6352,-3.6492,-3.6492,-3.6492,-3.6492,-3.6492,-3.6289,-3.6104,-3.5997,-3.6058,-3.615,-3.5829,-3.5723,-3.5737,-3.5676,-3.5014,-3.4506,-3.4552,-3.3583,-3.3044,-3.2875,-3.2619,-3.2465,-3.2302,-3.2247,-3.2262,-3.2247,-3.2216,-3.2032,-3.1956,-3.1459,-3.0664,-2.9959,-2.964,-2.9659,-2.9798,-3.0028,-3.0108,-3.0172,-3.0348,-3.0446,-3.032,-3.0364,-3.0356,-3.0582,-3.0674,-3.1033,-3.183,-3.2442,-3.2933,-3.2964,-3.2764,-3.2504,-3.2109,-3.1478,-3.0683,-3.1374,-3.1628,-3.1228,-2.9741,-2.9767,-2.9819,-2.9831,-2.9998,-3.0545,-3.0406,-2.9934,-3.0482,-3.1623,-3.2861,-3.3143,-3.3659,-3.4264,-3.4414,-3.4414,-3.4414,-3.4414,-3.4481,-3.4549,-3.4802,-3.492,-3.5082,-3.5294,-3.5504,-3.5439,-3.5294,-3.5148,-3.4868,-3.4935,-3.5052,-3.5285,-3.5464,-3.5834,-3.6446,-3.7695,-3.8335,-3.8391,-3.852,-3.8576,-3.856,-3.86,-3.8655,-3.8616,-3.8504,-3.8319,-3.8075,-3.7844,-3.7492,-3.7029,-3.6785,-3.6476,-3.6163,-3.6211,-3.6211,-3.6211,-3.6352,-3.6492,-3.6492,-3.6492,-3.6492,-3.6492,-3.6336,-3.609,-3.563,-3.5752,-3.612,-3.5968,-3.5907,-3.6215,-3.6107,-3.5737,-3.5245,-3.4737,-3.3767,-3.3229,-3.309,-3.3136,-3.3003,-3.2557,-3.2459,-3.2428,-3.2413,-3.2321,-3.2044,-3.1813,-3.152,-3.0969,-3.0273,-3.0033,-3.0101,-3.0275,-3.0526,-3.0778,-3.0924,-3.1451,-3.1643,-3.1452,-3.1237,-3.1122,-3.1203,-3.1399,-3.18,-3.2334,-3.2949,-3.3609,-3.3416,-3.3131,-3.2671,-3.2158,-3.1401,-3.1012,-3.1782,-3.2222,-3.1759,-2.9779,-2.9779,-2.9779,-2.9779,-2.9856,-3.0075,-2.9998,-2.9934,-3.062,-3.1476,-3.2434,-3.2946,-3.3673,-3.4196,-3.4414,-3.4414,-3.4414,-3.4414,-3.4481,-3.4735,-3.4868,-3.5082,-3.5294,-3.5359,-3.5439,-3.5294,-3.5213,-3.5016,-3.475,-3.5067,-3.5234,-3.5529,-3.6275,-3.6829,-3.7222,-3.7976,-3.8335,-3.8148,-3.8262,-3.8375,-3.8189,-3.8359,-3.8504,-3.8464,-3.8262,-3.8075,-3.7828,-3.7551,-3.7165,-3.68,-3.66,-3.6336,-3.6148,-3.6211,-3.6196,-3.6274,-3.6414,-3.6492,-3.6492,-3.6492,-3.6492,-3.6492,-3.6383,-3.6229,-3.6137,-3.6245,-3.6292,-3.6214,-3.6075,-3.6198,-3.5887,-3.5272,-3.4796,-3.4675,-3.406,-3.3737,-3.3598,-3.3814,-3.3783,-3.3029,-3.2644,-3.2552,-3.2505,-3.2428,-3.2167,-3.1982,-3.1751,-3.1634,-3.1083,-3.0682,-3.0582,-3.0779,-3.099,-3.1326,-3.1662,-3.2271,-3.2681,-3.2594,-3.2093,-3.1603,-3.1766,-3.2127,-3.2471,-3.2983,-3.366,-3.4242,-3.3996,-3.359,-3.2771,-3.21,-3.1601,-3.1413,-3.2013,-3.2384,-3.2276,-3.0216,-3.0126,-2.9934,-2.9666,-2.9553,-2.9704,-2.9779,-2.9921,-3.0545,-3.1341,-3.216,-3.2875,-3.3673,-3.4196,-3.4414,-3.4414,-3.4414,-3.4481,-3.4549,-3.4802,-3.5001,-3.5148,-3.5279,-3.5424,-3.5279,-3.5213,-3.5016,-3.4883,-3.475,-3.5299,-3.5785,-3.6337,-3.7163,-3.7594,-3.7902,-3.8091,-3.8132,-3.8001,-3.8132,-3.8132,-3.8075,-3.8205,-3.8335,-3.8205,-3.8017,-3.7828,-3.7551,-3.721,-3.6877,-3.6739,-3.6476,-3.6274,-3.6274,-3.6336,-3.6445,-3.6523,-3.66,-3.6677,-3.6693,-3.6554,-3.6492,-3.6492,-3.6492,-3.643,-3.643,-3.6492,-3.6597,-3.6547,-3.6315,-3.6344,-3.6247,-3.5494,-3.5239,-3.5192,-3.4812,-3.4488,-3.4106,-3.4321,-3.4091,-3.3352,-3.2859,-3.2752,-3.2552,-3.2475,-3.2321,-3.2182,-3.2028,-3.1913,-3.1793,-3.1441,-3.1236,-3.1423,-3.1702,-3.2126,-3.2644,-3.3191,-3.3505,-3.3656,-3.3172,-3.2512,-3.2706,-3.3111,-3.3364,-3.3575,-3.4083,-3.4442,-3.4492,-3.4072,-3.3217,-3.2631,-3.2238,-3.2213,-3.2398,-3.2431,-3.2431,-3.0882,-3.0794,-3.0114,-2.9428,-2.9089,-2.958,-2.9806,-2.9856,-3.0558,-3.1341,-3.2146,-3.2861,-3.3659,-3.4264,-3.4414,-3.4414,-3.4414,-3.4563,-3.4683,-3.4817,-3.5016,-3.5148,-3.5213,-3.5228,-3.5213,-3.5082,-3.4964,-3.475,-3.475,-3.5415,-3.6212,-3.7207,-3.7902,-3.8148,-3.8205,-3.8075,-3.8001,-3.7943,-3.7943,-3.7943,-3.8001,-3.8205,-3.8262,-3.8132,-3.7886,-3.7653,-3.7389,-3.7121,-3.68,-3.6585,-3.6321,-3.6399,-3.6538,-3.6662,-3.6892,-3.7074,-3.7044,-3.7044,-3.6999,-3.6739,-3.6677,-3.6662,-3.6616,-3.6291,-3.6364,-3.6674,-3.6899,-3.6999,-3.6888,-3.7152,-3.7168,-3.6805,-3.65,-3.6178,-3.5734,-3.5272,-3.475,-3.4475,-3.4125,-3.3648,-3.326,-3.2952,-3.2496,-3.2358,-3.2398,-3.2281,-3.2198,-3.2153,-3.2028,-3.1958,-3.1836,-3.2183,-3.2549,-3.3108,-3.3551,-3.3971,-3.4303,-3.4425,-3.4246,-3.3777,-3.3964,-3.3795,-3.3744,-3.388,-3.4336,-3.4572,-3.4598,-3.4268,-3.3617,-3.3124,-3.2726,-3.2453,-3.2468,-3.2398,-3.2391,-3.066,-3.0259,-2.9466,-2.9076,-2.9038,-2.9627,-2.9921,-2.9908,-3.0545,-3.1328,-3.216,-3.2861,-3.3673,-3.4346,-3.4414,-3.4414,-3.4414,-3.4481,-3.4668,-3.4817,-3.4949,-3.5148,-3.5213,-3.5213,-3.5148,-3.4949,-3.4817,-3.4631,-3.4802,-3.5449,-3.6768,-3.7976,-3.8221,-3.8335,-3.8262,-3.8075,-3.7943,-3.7886,-3.7886,-3.7886,-3.8001,-3.8205,-3.8205,-3.8148,-3.777,-3.7535,-3.7492,-3.7165,-3.6968,-3.7058,-3.7058,-3.7118,-3.7118,-3.7178,-3.7298,-3.7298,-3.7314,-3.7254,-3.727,-3.7044,-3.6923,-3.7029,-3.6984,-3.6846,-3.6828,-3.7021,-3.7306,-3.7404,-3.743,-3.7589,-3.7653,-3.7413,-3.7128,-3.6808,-3.6469,-3.6055,-3.5608,-3.5411,-3.4981,-3.3787,-3.3413,-3.2849,-3.241,-3.2398,-3.2398,-3.2342,-3.2281,-3.2268,-3.223,-3.216,-3.2335,-3.2688,-3.3096,-3.3528,-3.4105,-3.4539,-3.4905,-3.5165,-3.4891,-3.4506,-3.415,-3.3964,-3.3947,-3.4218,-3.4735,-3.4813,-3.47,-3.4268,-3.3885,-3.3523,-3.3134,-3.2742,-3.2523,-3.2523,-3.2468,-3.0873,-3.048,-2.9387,-2.9145,-2.9407,-2.9575,-2.9895,-3.0355,-3.1156,-3.1779,-3.2246,-3.3254,-3.3962,-3.4332,-3.4414,-3.4414,-3.4414,-3.4481,-3.4616,-3.475,-3.4868,-3.5001,-3.5133,-3.5082,-3.4964,-3.4817,-3.4683,-3.4481,-3.4787,-3.5706,-3.7011,-3.7844,-3.8221,-3.8408,-3.8278,-3.8075,-3.7943,-3.7886,-3.7886,-3.7886,-3.8001,-3.8205,-3.8278,-3.8148,-3.7711,-3.7711,-3.7711,-3.727,-3.7314,-3.7492,-3.7492,-3.761,-3.7711,-3.7828,-3.7844,-3.7844,-3.7669,-3.7669,-3.7551,-3.7314,-3.7314,-3.7373,-3.7389,-3.7373,-3.7373,-3.7488,-3.7754,-3.7969,-3.787,-3.7844,-3.7828,-3.7828,-3.761,-3.7373,-3.71,-3.6826,-3.6628,-3.6522,-3.5457,-3.4106,-3.3341,-3.2762,-3.2471,-3.2435,-3.2398,-3.2302,-3.2302,-3.2351,-3.236,-3.2314,-3.2562,-3.2956,-3.3367,-3.3804,-3.4431,-3.4975,-3.5224,-3.5407,-3.5313,-3.4912,-3.4421,-3.4421,-3.4675,-3.4905,-3.5142,-3.5143,-3.5052,-3.456,-3.4136,-3.3832,-3.3614,-3.337,-3.3037,-3.2757,-3.2703,-3.1143,-3.0975,-2.9552,-2.9204,-2.9817,-2.9508,-2.9929,-3.1072,-3.1763,-3.223,-3.2563,-3.37,-3.423,-3.4385,-3.4414,-3.4414,-3.4414,-3.4549,-3.4631,-3.4698,-3.4817,-3.4935,-3.4935,-3.4831,-3.4765,-3.4631,-3.4549,-3.4534,-3.4905,-3.577,-3.6768,-3.7401,-3.8091,-3.8391,-3.8335,-3.8132,-3.8001,-3.8017,-3.7943,-3.7886,-3.7886,-3.8075,-3.8189,-3.7943,-3.7828,-3.777,-3.7578,-3.7535,-3.7551,-3.7685,-3.7817,-3.7976,-3.8189,-3.8359,-3.8391,-3.8335,-3.8091,-3.8075,-3.7943,-3.7711,-3.7594,-3.7653,-3.777,-3.7828,-3.7828,-3.7902,-3.8091,-3.8205,-3.8148,-3.8148,-3.8148,-3.8075,-3.7902,-3.7727,-3.7488,-3.7219,-3.6995,-3.6658,-3.5794,-3.4623,-3.391,-3.333,-3.2966,-3.2962,-3.2757,-3.2532,-3.2302,-3.2413,-3.2523,-3.2523,-3.2888,-3.3266,-3.3614,-3.4086,-3.4769,-3.5224,-3.5441,-3.5543,-3.552,-3.5233,-3.4675,-3.4962,-3.5531,-3.5542,-3.5518,-3.5497,-3.5328,-3.4894,-3.4545,-3.4299,-3.4124,-3.4064,-3.3751,-3.3417,-3.2928,-3.0323,-2.9767,-2.8342,-2.81,-2.8795,-2.912,-2.9802,-3.0647,-3.1361,-3.1903,-3.2419,-3.3269,-3.3978,-3.4298,-3.4327,-3.4341,-3.4414,-3.4481,-3.4563,-3.4616,-3.475,-3.4735,-3.4868,-3.4683,-3.4698,-3.4631,-3.4616,-3.4654,-3.5088,-3.5882,-3.6707,-3.7358,-3.7976,-3.8278,-3.8391,-3.8205,-3.8205,-3.8148,-3.8017,-3.777,-3.7653,-3.7594,-3.7653,-3.7711,-3.777,-3.7828,-3.7828,-3.7902,-3.8075,-3.8278,-3.8335,-3.8448,-3.856,-3.8504,-3.8504,-3.852,-3.848,-3.8432,-3.8399,-3.823,-3.81,-3.8132,-3.8189,-3.8189,-3.8189,-3.8262,-3.8278,-3.8335,-3.8391,-3.8391,-3.8391,-3.8262,-3.8189,-3.8001,-3.7828,-3.7594,-3.7373,-3.6667,-3.5991,-3.5285,-3.4568,-3.4125,-3.3729,-3.3391,-3.3161,-3.2839,-3.2511,-3.2468,-3.2703,-3.2881,-3.3409,-3.3742,-3.3799,-3.4284,-3.5038,-3.5424,-3.5577,-3.5639,-3.5588,-3.5284,-3.4928,-3.5203,-3.5545,-3.5732,-3.5766,-3.5783,-3.5661,-3.5328,-3.5038,-3.474,-3.4854,-3.4884,-3.4771,-3.4521,-3.3767,-2.9813,-2.9321,-2.8004,-2.7919,-2.8812,-2.9261,-3.0001,-3.0785,-3.1036,-3.1377,-3.2011,-3.2724,-3.3398,-3.3935,-3.3993,-3.4254,-3.4356,-3.4414,-3.4481,-3.4549,-3.4549,-3.4616,-3.4616,-3.4616,-3.4549,-3.4563,-3.4481,-3.4654,-3.5088,-3.5642,-3.6275,-3.6982,-3.7594,-3.8148,-3.8335,-3.8391,-3.8335,-3.8148,-3.8017,-3.777,-3.746,-3.7476,-3.7594,-3.7695,-3.7828,-3.796,-3.8148,-3.8205,-3.8375,-3.86,-3.8711,-3.8982,-3.8925,-3.8755,-3.8804,-3.8853,-3.8877,-3.8672,-3.8694,-3.8678,-3.8567,-3.8528,-3.8504,-3.8432,-3.8375,-3.8448,-3.8335,-3.8391,-3.8391,-3.8391,-3.8391,-3.8335,-3.8262,-3.8205,-3.8132,-3.796,-3.7653,-3.7168,-3.6432,-3.5711,-3.5233,-3.5043,-3.4592,-3.3979,-3.3761,-3.3519,-3.313,-3.2827,-3.2989,-3.3256,-3.379,-3.423,-3.4316,-3.469,-3.5379,-3.5622,-3.5667,-3.5684,-3.5622,-3.5531,-3.5355,-3.5385,-3.5479,-3.5778,-3.5993,-3.6062,-3.5898,-3.5661,-3.5391,-3.5071,-3.5383,-3.5785,-3.5646,-3.5501,-3.5102,-2.9027,-2.8811,-2.7801,-2.8093,-2.9263,-2.9406,-3.0106,-3.1098,-3.0829,-3.0887,-3.1315,-3.1942,-3.2672,-3.3267,-3.3565,-3.3935,-3.424,-3.4385,-3.4414,-3.4414,-3.4414,-3.4481,-3.4481,-3.4414,-3.4414,-3.4414,-3.4414,-3.4414,-3.4534,-3.535,-3.6087,-3.6508,-3.7147,-3.7828,-3.8205,-3.8391,-3.8335,-3.8132,-3.7943,-3.777,-3.7594,-3.7401,-3.7578,-3.7754,-3.7943,-3.8059,-3.8262,-3.8448,-3.8544,-3.8655,-3.8838,-3.8972,-3.9177,-3.8967,-3.9072,-3.9137,-3.9128,-3.8979,-3.8925,-3.8914,-3.886,-3.8805,-3.8727,-3.8616,-3.856,-3.8504,-3.8391,-3.8391,-3.8391,-3.8391,-3.8391,-3.8391,-3.8391,-3.8335,-3.8335,-3.8262,-3.7886,-3.7621,-3.6932,-3.6197,-3.6041,-3.5922,-3.554,-3.4888,-3.4502,-3.4297,-3.3918,-3.3593,-3.3482,-3.3726,-3.4165,-3.4644,-3.4932,-3.5321,-3.5909,-3.58,-3.5817,-3.5756,-3.5756,-3.5756,-3.5766,-3.5744,-3.5797,-3.6002,-3.6165,-3.6191,-3.6174,-3.5968,-3.5677,-3.5362,-3.6006,-3.6454,-3.6192,-3.6166,-3.6422,-2.6731,-2.6206,-2.6357,-2.7307,-2.859,-2.8739,-2.9415,-3.0409,-3.058,-3.0594,-3.0736,-3.0942,-3.1787,-3.3536,-3.3536,-3.3819,-3.4327,-3.4414,-3.4414,-3.4414,-3.4346,-3.4414,-3.4414,-3.4414,-3.4414,-3.4414,-3.4414,-3.4414,-3.4534,-3.5529,-3.6259,-3.6446,-3.7637,-3.8148,-3.8278,-3.8391,-3.8335,-3.8205,-3.8059,-3.7886,-3.777,-3.7711,-3.7653,-3.777,-3.7886,-3.8132,-3.8335,-3.8391,-3.852,-3.8616,-3.8688,-3.8818,-3.9007,-3.9178,-3.9284,-3.9331,-3.9339,-3.9341,-3.927,-3.9143,-3.9094,-3.8985,-3.8821,-3.8711,-3.86,-3.8448,-3.8391,-3.8391,-3.8391,-3.8391,-3.8391,-3.8391,-3.8391,-3.8391,-3.8335,-3.8205,-3.7943,-3.7812,-3.752,-3.716,-3.7054,-3.7017,-3.7054,-3.6413,-3.5856,-3.5473,-3.4717,-3.4393,-3.4143,-3.4314,-3.4546,-3.5127,-3.566,-3.6113,-3.6655,-3.6068,-3.5932,-3.5932,-3.5932,-3.5932,-3.5993,-3.6079,-3.6165,-3.6208,-3.6233,-3.6259,-3.6199,-3.6156,-3.5985,-3.5819,-3.6676,-3.7103,-3.6781,-3.6792,-3.7112]}]]